Wetterdaten: Dienstag, 23.04.2019
Datum Zeit Temp. A. Feuchte A. Luftdruck Regen Wind Richtung Richtung Sonnenschein ET UV Solar Taupunkt Windchill Windböen
23.04.2019 00:00 8,4 °C 73 % 999,9 hPa 0,0 mm 0,0 km/h (0 Bft) O-SO 106 ° 0 min 0,000 mm 0,0 UV-I 0 W/m² 3,8 °C 8,4 °C 0,0 km/h (0 Bft)
23.04.2019 00:01 8,7 °C 71 % 999,9 hPa 0,0 mm 0,0 km/h (0 Bft) O-SO 106 ° 0 min 0,000 mm 0,0 UV-I 0 W/m² 3,7 °C 8,7 °C 0,0 km/h (0 Bft)
23.04.2019 00:02 8,9 °C 70 % 999,8 hPa 0,0 mm 0,0 km/h (0 Bft) O-SO 106 ° 0 min 0,000 mm 0,0 UV-I 0 W/m² 3,7 °C 8,9 °C 0,0 km/h (0 Bft)
23.04.2019 00:03 9,2 °C 69 % 999,8 hPa 0,0 mm 0,0 km/h (0 Bft) O-SO 106 ° 0 min 0,000 mm 0,0 UV-I 0 W/m² 3,8 °C 9,2 °C 0,0 km/h (0 Bft)
23.04.2019 00:04 9,4 °C 68 % 999,8 hPa 0,0 mm 0,1 km/h (0 Bft) O-SO 106 ° 0 min 0,000 mm 0,0 UV-I 0 W/m² 3,8 °C 9,4 °C 1,6 km/h (1 Bft)
23.04.2019 00:05 9,6 °C 67 % 999,8 hPa 0,0 mm 5,3 km/h (1 Bft) S 178 ° 0 min 0,000 mm 0,0 UV-I 0 W/m² 3,8 °C 9,2 °C 8,0 km/h (2 Bft)
23.04.2019 00:06 9,8 °C 67 % 999,8 hPa 0,0 mm 1,4 km/h (1 Bft) S 177 ° 0 min 0,000 mm 0,0 UV-I 0 W/m² 4,0 °C 9,8 °C 3,2 km/h (1 Bft)
23.04.2019 00:07 9,9 °C 66 % 999,8 hPa 0,0 mm 0,0 km/h (0 Bft) S 177 ° 0 min 0,000 mm 0,0 UV-I 0 W/m² 3,9 °C 9,9 °C 0,0 km/h (0 Bft)
23.04.2019 00:08 9,9 °C 66 % 999,9 hPa 0,0 mm 0,0 km/h (0 Bft) S 177 ° 0 min 0,000 mm 0,0 UV-I 0 W/m² 3,9 °C 9,9 °C 0,0 km/h (0 Bft)
23.04.2019 00:09 10,0 °C 66 % 999,9 hPa 0,0 mm 0,0 km/h (0 Bft) S 177 ° 0 min 0,000 mm 0,0 UV-I 0 W/m² 3,9 °C 10,0 °C 0,0 km/h (0 Bft)
23.04.2019 00:10 10,1 °C 66 % 999,9 hPa 0,0 mm 1,1 km/h (1 Bft) S 177 ° 0 min 0,000 mm 0,0 UV-I 0 W/m² 4,0 °C 10,1 °C 3,2 km/h (1 Bft)
23.04.2019 00:11 10,1 °C 65 % 999,9 hPa 0,0 mm 0,4 km/h (0 Bft) S 177 ° 0 min 0,000 mm 0,0 UV-I 0 W/m² 3,8 °C 10,1 °C 1,6 km/h (1 Bft)
23.04.2019 00:12 9,9 °C 65 % 999,9 hPa 0,0 mm 0,0 km/h (0 Bft) S 177 ° 0 min 0,000 mm 0,0 UV-I 0 W/m² 3,6 °C 9,9 °C 0,0 km/h (0 Bft)
23.04.2019 00:13 9,8 °C 66 % 999,8 hPa 0,0 mm 0,0 km/h (0 Bft) S 177 ° 0 min 0,000 mm 0,0 UV-I 0 W/m² 3,8 °C 9,8 °C 0,0 km/h (0 Bft)
23.04.2019 00:14 9,4 °C 67 % 999,8 hPa 0,0 mm 0,0 km/h (0 Bft) S 177 ° 0 min 0,000 mm 0,0 UV-I 0 W/m² 3,6 °C 9,4 °C 0,0 km/h (0 Bft)
23.04.2019 00:15 9,1 °C 68 % 999,8 hPa 0,0 mm 0,0 km/h (0 Bft) S 177 ° 0 min 0,000 mm 0,0 UV-I 0 W/m² 3,5 °C 9,1 °C 0,0 km/h (0 Bft)
23.04.2019 00:16 8,7 °C 69 % 999,8 hPa 0,0 mm 0,0 km/h (0 Bft) S 177 ° 0 min 0,000 mm 0,0 UV-I 0 W/m² 3,3 °C 8,7 °C 0,0 km/h (0 Bft)
23.04.2019 00:17 8,5 °C 70 % 999,8 hPa 0,0 mm 0,0 km/h (0 Bft) S 177 ° 0 min 0,000 mm 0,0 UV-I 0 W/m² 3,3 °C 8,5 °C 0,0 km/h (0 Bft)
23.04.2019 00:18 8,3 °C 71 % 999,8 hPa 0,0 mm 0,0 km/h (0 Bft) S 177 ° 0 min 0,000 mm 0,0 UV-I 0 W/m² 3,4 °C 8,3 °C 0,0 km/h (0 Bft)
23.04.2019 00:19 8,3 °C 72 % 999,8 hPa 0,0 mm 0,0 km/h (0 Bft) S 177 ° 0 min 0,000 mm 0,0 UV-I 0 W/m² 3,6 °C 8,3 °C 0,0 km/h (0 Bft)
23.04.2019 00:20 8,6 °C 72 % 999,7 hPa 0,0 mm 0,0 km/h (0 Bft) S 177 ° 0 min 0,000 mm 0,0 UV-I 0 W/m² 3,8 °C 8,6 °C 0,0 km/h (0 Bft)
23.04.2019 00:21 8,6 °C 71 % 999,7 hPa 0,0 mm 1,0 km/h (0 Bft) S 177 ° 0 min 0,000 mm 0,0 UV-I 0 W/m² 3,6 °C 8,6 °C 3,2 km/h (1 Bft)
23.04.2019 00:22 8,8 °C 71 % 999,7 hPa 0,0 mm 0,7 km/h (0 Bft) S 177 ° 0 min 0,000 mm 0,0 UV-I 0 W/m² 3,8 °C 8,8 °C 3,2 km/h (1 Bft)
23.04.2019 00:23 9,0 °C 71 % 999,7 hPa 0,0 mm 1,8 km/h (1 Bft) S 177 ° 0 min 0,000 mm 0,0 UV-I 0 W/m² 4,0 °C 9,0 °C 4,8 km/h (1 Bft)
23.04.2019 00:24 9,2 °C 70 % 999,6 hPa 0,0 mm 1,3 km/h (1 Bft) S 177 ° 0 min 0,000 mm 0,0 UV-I 0 W/m² 4,0 °C 9,2 °C 4,8 km/h (1 Bft)
23.04.2019 00:25 9,3 °C 70 % 999,6 hPa 0,0 mm 0,0 km/h (0 Bft) S 177 ° 0 min 0,000 mm 0,0 UV-I 0 W/m² 4,1 °C 9,3 °C 0,0 km/h (0 Bft)
23.04.2019 00:26 9,4 °C 69 % 999,6 hPa 0,0 mm 0,0 km/h (0 Bft) S 177 ° 0 min 0,000 mm 0,0 UV-I 0 W/m² 4,0 °C 9,4 °C 0,0 km/h (0 Bft)
23.04.2019 00:27 9,5 °C 68 % 999,6 hPa 0,0 mm 0,0 km/h (0 Bft) S 177 ° 0 min 0,000 mm 0,0 UV-I 0 W/m² 3,9 °C 9,5 °C 0,0 km/h (0 Bft)
23.04.2019 00:28 9,6 °C 68 % 999,7 hPa 0,0 mm 0,0 km/h (0 Bft) S 177 ° 0 min 0,000 mm 0,0 UV-I 0 W/m² 4,0 °C 9,6 °C 0,0 km/h (0 Bft)
23.04.2019 00:29 9,4 °C 68 % 999,6 hPa 0,0 mm 0,0 km/h (0 Bft) S 177 ° 0 min 0,000 mm 0,0 UV-I 0 W/m² 3,8 °C 9,4 °C 0,0 km/h (0 Bft)
23.04.2019 00:30 9,2 °C 69 % 999,6 hPa 0,0 mm 0,0 km/h (0 Bft) S 177 ° 0 min 0,000 mm 0,0 UV-I 0 W/m² 3,8 °C 9,2 °C 0,0 km/h (0 Bft)
23.04.2019 00:31 8,9 °C 69 % 999,6 hPa 0,0 mm 0,0 km/h (0 Bft) S 177 ° 0 min 0,000 mm 0,0 UV-I 0 W/m² 3,5 °C 8,9 °C 0,0 km/h (0 Bft)
23.04.2019 00:32 8,6 °C 70 % 999,6 hPa 0,0 mm 0,0 km/h (0 Bft) S 177 ° 0 min 0,000 mm 0,0 UV-I 0 W/m² 3,4 °C 8,6 °C 0,0 km/h (0 Bft)
23.04.2019 00:33 8,2 °C 71 % 999,6 hPa 0,0 mm 0,0 km/h (0 Bft) S 177 ° 0 min 0,000 mm 0,0 UV-I 0 W/m² 3,3 °C 8,2 °C 0,0 km/h (0 Bft)
23.04.2019 00:34 8,0 °C 72 % 999,6 hPa 0,0 mm 0,0 km/h (0 Bft) S 177 ° 0 min 0,000 mm 0,0 UV-I 0 W/m² 3,3 °C 8,0 °C 0,0 km/h (0 Bft)
23.04.2019 00:35 7,8 °C 73 % 999,6 hPa 0,0 mm 0,0 km/h (0 Bft) S 177 ° 0 min 0,000 mm 0,0 UV-I 0 W/m² 3,3 °C 7,8 °C 0,0 km/h (0 Bft)
23.04.2019 00:36 7,8 °C 74 % 999,6 hPa 0,0 mm 0,0 km/h (0 Bft) S 177 ° 0 min 0,000 mm 0,0 UV-I 0 W/m² 3,5 °C 7,8 °C 0,0 km/h (0 Bft)
23.04.2019 00:37 7,9 °C 74 % 999,6 hPa 0,0 mm 0,0 km/h (0 Bft) S 177 ° 0 min 0,000 mm 0,0 UV-I 0 W/m² 3,6 °C 7,9 °C 0,0 km/h (0 Bft)
23.04.2019 00:38 7,9 °C 74 % 999,6 hPa 0,0 mm 0,0 km/h (0 Bft) S 177 ° 0 min 0,000 mm 0,0 UV-I 0 W/m² 3,6 °C 7,9 °C 0,0 km/h (0 Bft)
23.04.2019 00:39 8,1 °C 73 % 999,6 hPa 0,0 mm 0,0 km/h (0 Bft) S 177 ° 0 min 0,000 mm 0,0 UV-I 0 W/m² 3,6 °C 8,1 °C 0,0 km/h (0 Bft)
23.04.2019 00:40 8,2 °C 73 % 999,6 hPa 0,0 mm 0,0 km/h (0 Bft) S 177 ° 0 min 0,000 mm 0,0 UV-I 0 W/m² 3,7 °C 8,2 °C 0,0 km/h (0 Bft)
23.04.2019 00:41 8,2 °C 73 % 999,6 hPa 0,0 mm 0,0 km/h (0 Bft) S 177 ° 0 min 0,000 mm 0,0 UV-I 0 W/m² 3,7 °C 8,2 °C 0,0 km/h (0 Bft)
23.04.2019 00:42 8,3 °C 72 % 999,5 hPa 0,0 mm 0,0 km/h (0 Bft) S 177 ° 0 min 0,000 mm 0,0 UV-I 0 W/m² 3,6 °C 8,3 °C 0,0 km/h (0 Bft)
23.04.2019 00:43 8,4 °C 72 % 999,5 hPa 0,0 mm 0,0 km/h (0 Bft) S 177 ° 0 min 0,000 mm 0,0 UV-I 0 W/m² 3,7 °C 8,4 °C 0,0 km/h (0 Bft)
23.04.2019 00:44 8,4 °C 72 % 999,4 hPa 0,0 mm 0,0 km/h (0 Bft) S 177 ° 0 min 0,000 mm 0,0 UV-I 0 W/m² 3,7 °C 8,4 °C 0,0 km/h (0 Bft)
23.04.2019 00:45 8,4 °C 72 % 999,4 hPa 0,0 mm 0,1 km/h (0 Bft) S 177 ° 0 min 0,000 mm 0,0 UV-I 0 W/m² 3,7 °C 8,4 °C 1,6 km/h (1 Bft)
23.04.2019 00:46 8,3 °C 72 % 999,4 hPa 0,0 mm 0,1 km/h (0 Bft) S 177 ° 0 min 0,000 mm 0,0 UV-I 0 W/m² 3,6 °C 8,3 °C 1,6 km/h (1 Bft)
23.04.2019 00:47 8,3 °C 73 % 999,4 hPa 0,0 mm 0,0 km/h (0 Bft) S 177 ° 0 min 0,000 mm 0,0 UV-I 0 W/m² 3,8 °C 8,3 °C 0,0 km/h (0 Bft)
23.04.2019 00:48 8,3 °C 73 % 999,3 hPa 0,0 mm 1,3 km/h (1 Bft) S 177 ° 0 min 0,000 mm 0,0 UV-I 0 W/m² 3,8 °C 8,3 °C 4,8 km/h (1 Bft)
23.04.2019 00:49 8,5 °C 72 % 999,3 hPa 0,0 mm 0,7 km/h (0 Bft) S 177 ° 0 min 0,000 mm 0,0 UV-I 0 W/m² 3,7 °C 8,5 °C 3,2 km/h (1 Bft)
23.04.2019 00:50 8,7 °C 72 % 999,3 hPa 0,0 mm 0,0 km/h (0 Bft) S 177 ° 0 min 0,000 mm 0,0 UV-I 0 W/m² 3,9 °C 8,7 °C 0,0 km/h (0 Bft)
23.04.2019 00:51 8,9 °C 71 % 999,3 hPa 0,0 mm 0,0 km/h (0 Bft) S 177 ° 0 min 0,000 mm 0,0 UV-I 0 W/m² 3,9 °C 8,9 °C 0,0 km/h (0 Bft)
23.04.2019 00:52 8,7 °C 70 % 999,3 hPa 0,0 mm 1,8 km/h (1 Bft) S 177 ° 0 min 0,000 mm 0,0 UV-I 0 W/m² 3,5 °C 8,7 °C 3,2 km/h (1 Bft)
23.04.2019 00:53 8,4 °C 71 % 999,3 hPa 0,0 mm 0,8 km/h (0 Bft) S 178 ° 0 min 0,000 mm 0,0 UV-I 0 W/m² 3,5 °C 8,4 °C 3,2 km/h (1 Bft)
23.04.2019 00:54 8,2 °C 72 % 999,3 hPa 0,0 mm 0,0 km/h (0 Bft) S 178 ° 0 min 0,000 mm 0,0 UV-I 0 W/m² 3,5 °C 8,2 °C 0,0 km/h (0 Bft)
23.04.2019 00:55 7,9 °C 73 % 999,3 hPa 0,0 mm 0,0 km/h (0 Bft) S 178 ° 0 min 0,000 mm 0,0 UV-I 0 W/m² 3,4 °C 7,9 °C 0,0 km/h (0 Bft)
23.04.2019 00:56 7,6 °C 74 % 999,3 hPa 0,0 mm 0,0 km/h (0 Bft) S 178 ° 0 min 0,000 mm 0,0 UV-I 0 W/m² 3,3 °C 7,6 °C 0,0 km/h (0 Bft)
23.04.2019 00:57 7,5 °C 75 % 999,3 hPa 0,0 mm 0,0 km/h (0 Bft) S 178 ° 0 min 0,000 mm 0,0 UV-I 0 W/m² 3,4 °C 7,5 °C 0,0 km/h (0 Bft)
23.04.2019 00:58 7,4 °C 75 % 999,3 hPa 0,0 mm 0,0 km/h (0 Bft) S 178 ° 0 min 0,000 mm 0,0 UV-I 0 W/m² 3,3 °C 7,4 °C 0,0 km/h (0 Bft)
23.04.2019 00:59 7,4 °C 75 % 999,3 hPa 0,0 mm 0,0 km/h (0 Bft) S 178 ° 0 min 0,000 mm 0,0 UV-I 0 W/m² 3,3 °C 7,4 °C 0,0 km/h (0 Bft)
23.04.2019 01:00 7,4 °C 76 % 999,4 hPa 0,0 mm 0,0 km/h (0 Bft) S 178 ° 0 min 0,025 mm 0,0 UV-I 0 W/m² 3,5 °C 7,4 °C 0,0 km/h (0 Bft)
23.04.2019 01:01 7,6 °C 76 % 999,3 hPa 0,0 mm 0,0 km/h (0 Bft) S 177 ° 0 min 0,000 mm 0,0 UV-I 0 W/m² 3,6 °C 7,6 °C 0,0 km/h (0 Bft)
23.04.2019 01:02 7,6 °C 75 % 999,3 hPa 0,0 mm 0,0 km/h (0 Bft) S 178 ° 0 min 0,000 mm 0,0 UV-I 0 W/m² 3,5 °C 7,6 °C 0,0 km/h (0 Bft)
23.04.2019 01:03 7,7 °C 75 % 999,3 hPa 0,0 mm 0,0 km/h (0 Bft) S 178 ° 0 min 0,000 mm 0,0 UV-I 0 W/m² 3,6 °C 7,7 °C 0,0 km/h (0 Bft)
23.04.2019 01:04 7,8 °C 75 % 999,3 hPa 0,0 mm 0,0 km/h (0 Bft) S 177 ° 0 min 0,000 mm 0,0 UV-I 0 W/m² 3,7 °C 7,8 °C 0,0 km/h (0 Bft)
23.04.2019 01:05 7,8 °C 75 % 999,3 hPa 0,0 mm 0,0 km/h (0 Bft) S 178 ° 0 min 0,000 mm 0,0 UV-I 0 W/m² 3,7 °C 7,8 °C 0,0 km/h (0 Bft)
23.04.2019 01:06 7,9 °C 75 % 999,2 hPa 0,0 mm 1,1 km/h (1 Bft) S 177 ° 0 min 0,000 mm 0,0 UV-I 0 W/m² 3,7 °C 7,9 °C 3,2 km/h (1 Bft)
23.04.2019 01:07 8,1 °C 75 % 999,2 hPa 0,0 mm 2,3 km/h (1 Bft) S 177 ° 0 min 0,000 mm 0,0 UV-I 0 W/m² 3,9 °C 8,1 °C 3,2 km/h (1 Bft)
23.04.2019 01:08 8,1 °C 75 % 999,2 hPa 0,0 mm 2,3 km/h (1 Bft) S 177 ° 0 min 0,000 mm 0,0 UV-I 0 W/m² 3,9 °C 8,1 °C 3,2 km/h (1 Bft)
23.04.2019 01:09 8,3 °C 74 % 999,1 hPa 0,0 mm 0,5 km/h (0 Bft) S 177 ° 0 min 0,000 mm 0,0 UV-I 0 W/m² 3,9 °C 8,3 °C 1,6 km/h (1 Bft)
23.04.2019 01:10 8,4 °C 73 % 999,1 hPa 0,0 mm 0,0 km/h (0 Bft) S 177 ° 0 min 0,000 mm 0,0 UV-I 0 W/m² 3,8 °C 8,4 °C 0,0 km/h (0 Bft)
23.04.2019 01:11 8,6 °C 73 % 999,1 hPa 0,0 mm 0,0 km/h (0 Bft) S 177 ° 0 min 0,000 mm 0,0 UV-I 0 W/m² 4,0 °C 8,6 °C 0,0 km/h (0 Bft)
23.04.2019 01:12 8,8 °C 71 % 999,1 hPa 0,0 mm 3,0 km/h (1 Bft) S 177 ° 0 min 0,000 mm 0,0 UV-I 0 W/m² 3,8 °C 8,8 °C 4,8 km/h (1 Bft)
23.04.2019 01:13 8,9 °C 70 % 999,1 hPa 0,0 mm 2,9 km/h (1 Bft) S 177 ° 0 min 0,000 mm 0,0 UV-I 0 W/m² 3,7 °C 8,9 °C 4,8 km/h (1 Bft)
23.04.2019 01:14 9,1 °C 70 % 999,1 hPa 0,0 mm 0,0 km/h (0 Bft) S 177 ° 0 min 0,000 mm 0,0 UV-I 0 W/m² 3,9 °C 9,1 °C 0,0 km/h (0 Bft)
23.04.2019 01:15 9,1 °C 70 % 999,1 hPa 0,0 mm 0,0 km/h (0 Bft) S 177 ° 0 min 0,000 mm 0,0 UV-I 0 W/m² 3,9 °C 9,1 °C 0,0 km/h (0 Bft)
23.04.2019 01:16 9,1 °C 69 % 999,1 hPa 0,0 mm 0,0 km/h (0 Bft) S 177 ° 0 min 0,000 mm 0,0 UV-I 0 W/m² 3,7 °C 9,1 °C 0,0 km/h (0 Bft)
23.04.2019 01:17 9,2 °C 69 % 999,1 hPa 0,0 mm 0,0 km/h (0 Bft) S 177 ° 0 min 0,000 mm 0,0 UV-I 0 W/m² 3,8 °C 9,2 °C 0,0 km/h (0 Bft)
23.04.2019 01:18 9,2 °C 69 % 999,1 hPa 0,0 mm 0,0 km/h (0 Bft) S 177 ° 0 min 0,000 mm 0,0 UV-I 0 W/m² 3,8 °C 9,2 °C 0,0 km/h (0 Bft)
23.04.2019 01:19 9,2 °C 69 % 999,1 hPa 0,0 mm 0,0 km/h (0 Bft) S 177 ° 0 min 0,000 mm 0,0 UV-I 0 W/m² 3,8 °C 9,2 °C 0,0 km/h (0 Bft)
23.04.2019 01:20 9,1 °C 70 % 999,0 hPa 0,0 mm 0,0 km/h (0 Bft) S 177 ° 0 min 0,000 mm 0,0 UV-I 0 W/m² 3,9 °C 9,1 °C 0,0 km/h (0 Bft)
23.04.2019 01:21 8,9 °C 69 % 998,9 hPa 0,0 mm 0,0 km/h (0 Bft) S 177 ° 0 min 0,000 mm 0,0 UV-I 0 W/m² 3,5 °C 8,9 °C 0,0 km/h (0 Bft)
23.04.2019 01:22 8,6 °C 70 % 998,9 hPa 0,0 mm 0,0 km/h (0 Bft) S 178 ° 0 min 0,000 mm 0,0 UV-I 0 W/m² 3,4 °C 8,6 °C 0,0 km/h (0 Bft)
23.04.2019 01:23 8,1 °C 72 % 999,0 hPa 0,0 mm 0,0 km/h (0 Bft) S 178 ° 0 min 0,000 mm 0,0 UV-I 0 W/m² 3,4 °C 8,1 °C 0,0 km/h (0 Bft)
23.04.2019 01:24 7,8 °C 73 % 999,0 hPa 0,0 mm 0,0 km/h (0 Bft) W-NW 292 ° 0 min 0,000 mm 0,0 UV-I 0 W/m² 3,3 °C 7,8 °C 0,0 km/h (0 Bft)
23.04.2019 01:25 7,6 °C 74 % 998,9 hPa 0,0 mm 0,0 km/h (0 Bft) W-NW 292 ° 0 min 0,000 mm 0,0 UV-I 0 W/m² 3,3 °C 7,6 °C 0,0 km/h (0 Bft)
23.04.2019 01:26 7,3 °C 74 % 999,0 hPa 0,0 mm 4,8 km/h (1 Bft) W-SW 240 ° 0 min 0,000 mm 0,0 UV-I 0 W/m² 3,0 °C 6,8 °C 6,4 km/h (2 Bft)
23.04.2019 01:27 7,1 °C 75 % 999,0 hPa 0,0 mm 4,8 km/h (1 Bft) W-SW 247 ° 0 min 0,000 mm 0,0 UV-I 0 W/m² 3,0 °C 6,5 °C 6,4 km/h (2 Bft)
23.04.2019 01:28 7,1 °C 76 % 998,9 hPa 0,0 mm 3,6 km/h (1 Bft) W-SW 250 ° 0 min 0,000 mm 0,0 UV-I 0 W/m² 3,2 °C 7,1 °C 6,4 km/h (2 Bft)
23.04.2019 01:29 7,1 °C 77 % 998,9 hPa 0,0 mm 1,7 km/h (1 Bft) W-SW 250 ° 0 min 0,000 mm 0,0 UV-I 0 W/m² 3,3 °C 7,1 °C 4,8 km/h (1 Bft)
23.04.2019 01:30 7,1 °C 77 % 998,9 hPa 0,0 mm 0,1 km/h (0 Bft) W-SW 250 ° 0 min 0,000 mm 0,0 UV-I 0 W/m² 3,3 °C 7,1 °C 1,6 km/h (1 Bft)
23.04.2019 01:31 7,2 °C 77 % 999,0 hPa 0,0 mm 0,0 km/h (0 Bft) W-SW 250 ° 0 min 0,000 mm 0,0 UV-I 0 W/m² 3,4 °C 7,2 °C 0,0 km/h (0 Bft)
23.04.2019 01:32 7,3 °C 76 % 999,0 hPa 0,0 mm 0,0 km/h (0 Bft) W-SW 250 ° 0 min 0,000 mm 0,0 UV-I 0 W/m² 3,4 °C 7,3 °C 0,0 km/h (0 Bft)
23.04.2019 01:33 7,3 °C 76 % 999,0 hPa 0,0 mm 0,0 km/h (0 Bft) W-SW 250 ° 0 min 0,000 mm 0,0 UV-I 0 W/m² 3,4 °C 7,3 °C 0,0 km/h (0 Bft)
23.04.2019 01:34 7,4 °C 76 % 998,9 hPa 0,0 mm 2,4 km/h (1 Bft) W-SW 250 ° 0 min 0,000 mm 0,0 UV-I 0 W/m² 3,5 °C 7,4 °C 4,8 km/h (1 Bft)
23.04.2019 01:35 7,7 °C 75 % 998,9 hPa 0,0 mm 3,4 km/h (1 Bft) W-SW 250 ° 0 min 0,000 mm 0,0 UV-I 0 W/m² 3,6 °C 7,7 °C 4,8 km/h (1 Bft)
23.04.2019 01:36 7,8 °C 75 % 998,9 hPa 0,0 mm 3,0 km/h (1 Bft) W-SW 250 ° 0 min 0,000 mm 0,0 UV-I 0 W/m² 3,7 °C 7,8 °C 4,8 km/h (1 Bft)
23.04.2019 01:37 8,1 °C 75 % 998,8 hPa 0,0 mm 3,3 km/h (1 Bft) W-SW 250 ° 0 min 0,000 mm 0,0 UV-I 0 W/m² 3,9 °C 8,1 °C 4,8 km/h (1 Bft)
23.04.2019 01:38 8,2 °C 74 % 998,8 hPa 0,0 mm 3,4 km/h (1 Bft) W-SW 250 ° 0 min 0,000 mm 0,0 UV-I 0 W/m² 3,8 °C 8,2 °C 4,8 km/h (1 Bft)
23.04.2019 01:39 8,3 °C 74 % 998,8 hPa 0,0 mm 3,0 km/h (1 Bft) W-SW 250 ° 0 min 0,000 mm 0,0 UV-I 0 W/m² 3,9 °C 8,3 °C 4,8 km/h (1 Bft)
23.04.2019 01:40 8,4 °C 73 % 998,7 hPa 0,0 mm 2,3 km/h (1 Bft) W-SW 250 ° 0 min 0,000 mm 0,0 UV-I 0 W/m² 3,8 °C 8,4 °C 3,2 km/h (1 Bft)
23.04.2019 01:41 8,4 °C 73 % 998,7 hPa 0,0 mm 2,7 km/h (1 Bft) W-SW 250 ° 0 min 0,000 mm 0,0 UV-I 0 W/m² 3,8 °C 8,4 °C 3,2 km/h (1 Bft)
23.04.2019 01:42 8,5 °C 72 % 998,7 hPa 0,0 mm 2,4 km/h (1 Bft) W-SW 250 ° 0 min 0,000 mm 0,0 UV-I 0 W/m² 3,7 °C 8,5 °C 3,2 km/h (1 Bft)
23.04.2019 01:43 8,6 °C 72 % 998,7 hPa 0,0 mm 0,1 km/h (0 Bft) W-SW 250 ° 0 min 0,000 mm 0,0 UV-I 0 W/m² 3,8 °C 8,6 °C 1,6 km/h (1 Bft)
23.04.2019 01:44 8,7 °C 72 % 998,7 hPa 0,0 mm 2,0 km/h (1 Bft) W-SW 250 ° 0 min 0,000 mm 0,0 UV-I 0 W/m² 3,9 °C 8,7 °C 4,8 km/h (1 Bft)
23.04.2019 01:45 8,7 °C 72 % 998,7 hPa 0,0 mm 3,0 km/h (1 Bft) W-SW 250 ° 0 min 0,000 mm 0,0 UV-I 0 W/m² 3,9 °C 8,7 °C 4,8 km/h (1 Bft)
23.04.2019 01:46 8,7 °C 72 % 998,7 hPa 0,0 mm 1,3 km/h (1 Bft) W-SW 250 ° 0 min 0,000 mm 0,0 UV-I 0 W/m² 3,9 °C 8,7 °C 3,2 km/h (1 Bft)
23.04.2019 01:47 8,7 °C 72 % 998,7 hPa 0,0 mm 2,3 km/h (1 Bft) W-SW 250 ° 0 min 0,000 mm 0,0 UV-I 0 W/m² 3,9 °C 8,7 °C 4,8 km/h (1 Bft)
23.04.2019 01:48 8,7 °C 71 % 998,7 hPa 0,0 mm 0,9 km/h (0 Bft) W-SW 250 ° 0 min 0,000 mm 0,0 UV-I 0 W/m² 3,7 °C 8,7 °C 3,2 km/h (1 Bft)
23.04.2019 01:49 8,7 °C 71 % 998,7 hPa 0,0 mm 0,0 km/h (0 Bft) W-SW 250 ° 0 min 0,000 mm 0,0 UV-I 0 W/m² 3,7 °C 8,7 °C 0,0 km/h (0 Bft)
23.04.2019 01:50 8,8 °C 71 % 998,7 hPa 0,0 mm 0,0 km/h (0 Bft) W-SW 250 ° 0 min 0,000 mm 0,0 UV-I 0 W/m² 3,8 °C 8,8 °C 0,0 km/h (0 Bft)
23.04.2019 01:51 8,7 °C 71 % 998,6 hPa 0,0 mm 0,0 km/h (0 Bft) W-SW 250 ° 0 min 0,000 mm 0,0 UV-I 0 W/m² 3,7 °C 8,7 °C 0,0 km/h (0 Bft)
23.04.2019 01:52 8,4 °C 71 % 998,7 hPa 0,0 mm 0,0 km/h (0 Bft) W-SW 250 ° 0 min 0,000 mm 0,0 UV-I 0 W/m² 3,5 °C 8,4 °C 0,0 km/h (0 Bft)
23.04.2019 01:53 8,2 °C 72 % 998,7 hPa 0,0 mm 0,1 km/h (0 Bft) W-SW 250 ° 0 min 0,000 mm 0,0 UV-I 0 W/m² 3,5 °C 8,2 °C 1,6 km/h (1 Bft)
23.04.2019 01:54 8,0 °C 74 % 998,7 hPa 0,0 mm 0,0 km/h (0 Bft) W-SW 250 ° 0 min 0,000 mm 0,0 UV-I 0 W/m² 3,7 °C 8,0 °C 0,0 km/h (0 Bft)
23.04.2019 01:55 7,8 °C 74 % 998,6 hPa 0,0 mm 0,0 km/h (0 Bft) W-SW 250 ° 0 min 0,000 mm 0,0 UV-I 0 W/m² 3,5 °C 7,8 °C 0,0 km/h (0 Bft)
23.04.2019 01:56 7,7 °C 75 % 998,6 hPa 0,0 mm 0,0 km/h (0 Bft) W-SW 250 ° 0 min 0,000 mm 0,0 UV-I 0 W/m² 3,6 °C 7,7 °C 0,0 km/h (0 Bft)
23.04.2019 01:57 7,6 °C 75 % 998,6 hPa 0,0 mm 0,0 km/h (0 Bft) W-SW 250 ° 0 min 0,000 mm 0,0 UV-I 0 W/m² 3,5 °C 7,6 °C 0,0 km/h (0 Bft)
23.04.2019 01:58 7,5 °C 75 % 998,5 hPa 0,0 mm 0,0 km/h (0 Bft) W-SW 250 ° 0 min 0,000 mm 0,0 UV-I 0 W/m² 3,4 °C 7,5 °C 0,0 km/h (0 Bft)
23.04.2019 01:59 7,4 °C 76 % 998,5 hPa 0,0 mm 0,0 km/h (0 Bft) W-SW 250 ° 0 min 0,000 mm 0,0 UV-I 0 W/m² 3,5 °C 7,4 °C 0,0 km/h (0 Bft)
23.04.2019 02:00 7,4 °C 76 % 998,5 hPa 0,0 mm 0,0 km/h (0 Bft) W-SW 250 ° 0 min 0,026 mm 0,0 UV-I 0 W/m² 3,5 °C 7,4 °C 0,0 km/h (0 Bft)
23.04.2019 02:01 7,4 °C 76 % 998,5 hPa 0,0 mm 0,0 km/h (0 Bft) W-SW 250 ° 0 min 0,000 mm 0,0 UV-I 0 W/m² 3,5 °C 7,4 °C 0,0 km/h (0 Bft)
23.04.2019 02:02 7,3 °C 76 % 998,5 hPa 0,0 mm 0,0 km/h (0 Bft) W-SW 250 ° 0 min 0,000 mm 0,0 UV-I 0 W/m² 3,4 °C 7,3 °C 0,0 km/h (0 Bft)
23.04.2019 02:03 7,3 °C 77 % 998,5 hPa 0,0 mm 0,0 km/h (0 Bft) W-SW 250 ° 0 min 0,000 mm 0,0 UV-I 0 W/m² 3,5 °C 7,3 °C 0,0 km/h (0 Bft)
23.04.2019 02:04 7,3 °C 77 % 998,4 hPa 0,0 mm 0,0 km/h (0 Bft) W-SW 250 ° 0 min 0,000 mm 0,0 UV-I 0 W/m² 3,5 °C 7,3 °C 0,0 km/h (0 Bft)
23.04.2019 02:05 7,3 °C 77 % 998,4 hPa 0,0 mm 0,0 km/h (0 Bft) W-SW 250 ° 0 min 0,000 mm 0,0 UV-I 0 W/m² 3,5 °C 7,3 °C 0,0 km/h (0 Bft)
23.04.2019 02:06 7,3 °C 77 % 998,4 hPa 0,0 mm 0,0 km/h (0 Bft) W-SW 250 ° 0 min 0,000 mm 0,0 UV-I 0 W/m² 3,5 °C 7,3 °C 0,0 km/h (0 Bft)
23.04.2019 02:07 7,2 °C 77 % 998,4 hPa 0,0 mm 0,0 km/h (0 Bft) W-SW 250 ° 0 min 0,000 mm 0,0 UV-I 0 W/m² 3,4 °C 7,2 °C 0,0 km/h (0 Bft)
23.04.2019 02:08 7,2 °C 77 % 998,4 hPa 0,0 mm 0,0 km/h (0 Bft) W-SW 250 ° 0 min 0,000 mm 0,0 UV-I 0 W/m² 3,4 °C 7,2 °C 0,0 km/h (0 Bft)
23.04.2019 02:09 7,1 °C 77 % 998,4 hPa 0,0 mm 0,0 km/h (0 Bft) W-SW 250 ° 0 min 0,000 mm 0,0 UV-I 0 W/m² 3,3 °C 7,1 °C 0,0 km/h (0 Bft)
23.04.2019 02:10 6,9 °C 78 % 998,4 hPa 0,0 mm 0,0 km/h (0 Bft) W-SW 250 ° 0 min 0,000 mm 0,0 UV-I 0 W/m² 3,3 °C 6,9 °C 0,0 km/h (0 Bft)
23.04.2019 02:11 6,7 °C 78 % 998,4 hPa 0,0 mm 0,6 km/h (0 Bft) W-SW 250 ° 0 min 0,000 mm 0,0 UV-I 0 W/m² 3,1 °C 6,7 °C 1,6 km/h (1 Bft)
23.04.2019 02:12 6,7 °C 79 % 998,4 hPa 0,0 mm 0,0 km/h (0 Bft) W-SW 250 ° 0 min 0,000 mm 0,0 UV-I 0 W/m² 3,3 °C 6,7 °C 0,0 km/h (0 Bft)
23.04.2019 02:13 6,7 °C 79 % 998,4 hPa 0,0 mm 0,0 km/h (0 Bft) W-SW 250 ° 0 min 0,000 mm 0,0 UV-I 0 W/m² 3,3 °C 6,7 °C 0,0 km/h (0 Bft)
23.04.2019 02:14 6,8 °C 79 % 998,4 hPa 0,0 mm 0,0 km/h (0 Bft) W-SW 250 ° 0 min 0,000 mm 0,0 UV-I 0 W/m² 3,4 °C 6,8 °C 0,0 km/h (0 Bft)
23.04.2019 02:15 6,8 °C 79 % 998,3 hPa 0,0 mm 0,0 km/h (0 Bft) W-SW 250 ° 0 min 0,000 mm 0,0 UV-I 0 W/m² 3,4 °C 6,8 °C 0,0 km/h (0 Bft)
23.04.2019 02:16 6,8 °C 79 % 998,3 hPa 0,0 mm 0,0 km/h (0 Bft) W-SW 250 ° 0 min 0,000 mm 0,0 UV-I 0 W/m² 3,4 °C 6,8 °C 0,0 km/h (0 Bft)
23.04.2019 02:17 6,8 °C 79 % 998,3 hPa 0,0 mm 0,0 km/h (0 Bft) W-SW 250 ° 0 min 0,000 mm 0,0 UV-I 0 W/m² 3,4 °C 6,8 °C 0,0 km/h (0 Bft)
23.04.2019 02:18 6,8 °C 79 % 998,3 hPa 0,0 mm 0,0 km/h (0 Bft) W-SW 250 ° 0 min 0,000 mm 0,0 UV-I 0 W/m² 3,4 °C 6,8 °C 0,0 km/h (0 Bft)
23.04.2019 02:19 6,8 °C 79 % 998,4 hPa 0,0 mm 0,0 km/h (0 Bft) W-SW 250 ° 0 min 0,000 mm 0,0 UV-I 0 W/m² 3,4 °C 6,8 °C 0,0 km/h (0 Bft)
23.04.2019 02:20 6,8 °C 79 % 998,4 hPa 0,0 mm 0,0 km/h (0 Bft) W-SW 250 ° 0 min 0,000 mm 0,0 UV-I 0 W/m² 3,4 °C 6,8 °C 0,0 km/h (0 Bft)
23.04.2019 02:21 6,8 °C 79 % 998,3 hPa 0,0 mm 0,0 km/h (0 Bft) W-SW 250 ° 0 min 0,000 mm 0,0 UV-I 0 W/m² 3,4 °C 6,8 °C 0,0 km/h (0 Bft)
23.04.2019 02:22 6,8 °C 79 % 998,3 hPa 0,0 mm 0,0 km/h (0 Bft) W-SW 250 ° 0 min 0,000 mm 0,0 UV-I 0 W/m² 3,4 °C 6,8 °C 0,0 km/h (0 Bft)
23.04.2019 02:23 6,8 °C 79 % 998,3 hPa 0,0 mm 0,0 km/h (0 Bft) W-SW 250 ° 0 min 0,000 mm 0,0 UV-I 0 W/m² 3,4 °C 6,8 °C 0,0 km/h (0 Bft)
23.04.2019 02:24 6,8 °C 79 % 998,2 hPa 0,0 mm 0,0 km/h (0 Bft) W-SW 250 ° 0 min 0,000 mm 0,0 UV-I 0 W/m² 3,4 °C 6,8 °C 0,0 km/h (0 Bft)
23.04.2019 02:25 6,8 °C 79 % 998,2 hPa 0,0 mm 0,0 km/h (0 Bft) W-SW 250 ° 0 min 0,000 mm 0,0 UV-I 0 W/m² 3,4 °C 6,8 °C 0,0 km/h (0 Bft)
23.04.2019 02:26 6,6 °C 78 % 998,3 hPa 0,0 mm 0,0 km/h (0 Bft) W-SW 250 ° 0 min 0,000 mm 0,0 UV-I 0 W/m² 3,0 °C 6,6 °C 0,0 km/h (0 Bft)
23.04.2019 02:27 6,3 °C 78 % 998,3 hPa 0,0 mm 0,0 km/h (0 Bft) W-SW 250 ° 0 min 0,000 mm 0,0 UV-I 0 W/m² 2,8 °C 6,3 °C 0,0 km/h (0 Bft)
23.04.2019 02:28 6,2 °C 79 % 998,4 hPa 0,0 mm 0,0 km/h (0 Bft) W-SW 250 ° 0 min 0,000 mm 0,0 UV-I 0 W/m² 2,8 °C 6,2 °C 0,0 km/h (0 Bft)
23.04.2019 02:29 6,1 °C 80 % 998,3 hPa 0,0 mm 0,0 km/h (0 Bft) W-SW 250 ° 0 min 0,000 mm 0,0 UV-I 0 W/m² 2,9 °C 6,1 °C 0,0 km/h (0 Bft)
23.04.2019 02:30 6,0 °C 81 % 998,3 hPa 0,0 mm 0,0 km/h (0 Bft) W-SW 250 ° 0 min 0,000 mm 0,0 UV-I 0 W/m² 3,0 °C 6,0 °C 0,0 km/h (0 Bft)
23.04.2019 02:31 5,9 °C 81 % 998,3 hPa 0,0 mm 0,0 km/h (0 Bft) W-SW 250 ° 0 min 0,000 mm 0,0 UV-I 0 W/m² 2,9 °C 5,9 °C 0,0 km/h (0 Bft)
23.04.2019 02:32 5,8 °C 81 % 998,3 hPa 0,0 mm 0,0 km/h (0 Bft) W-SW 250 ° 0 min 0,000 mm 0,0 UV-I 0 W/m² 2,8 °C 5,8 °C 0,0 km/h (0 Bft)
23.04.2019 02:33 5,8 °C 81 % 998,3 hPa 0,0 mm 0,0 km/h (0 Bft) W-SW 250 ° 0 min 0,000 mm 0,0 UV-I 0 W/m² 2,8 °C 5,8 °C 0,0 km/h (0 Bft)
23.04.2019 02:34 5,8 °C 82 % 998,4 hPa 0,0 mm 0,0 km/h (0 Bft) W-SW 250 ° 0 min 0,000 mm 0,0 UV-I 0 W/m² 3,0 °C 5,8 °C 0,0 km/h (0 Bft)
23.04.2019 02:35 5,7 °C 82 % 998,3 hPa 0,0 mm 0,0 km/h (0 Bft) W-SW 250 ° 0 min 0,000 mm 0,0 UV-I 0 W/m² 2,9 °C 5,7 °C 0,0 km/h (0 Bft)
23.04.2019 02:36 5,7 °C 82 % 998,3 hPa 0,0 mm 0,0 km/h (0 Bft) W-SW 250 ° 0 min 0,000 mm 0,0 UV-I 0 W/m² 2,9 °C 5,7 °C 0,0 km/h (0 Bft)
23.04.2019 02:37 5,8 °C 82 % 998,3 hPa 0,0 mm 0,0 km/h (0 Bft) W-SW 250 ° 0 min 0,000 mm 0,0 UV-I 0 W/m² 3,0 °C 5,8 °C 0,0 km/h (0 Bft)
23.04.2019 02:38 5,9 °C 82 % 998,3 hPa 0,0 mm 0,0 km/h (0 Bft) W-SW 250 ° 0 min 0,000 mm 0,0 UV-I 0 W/m² 3,1 °C 5,9 °C 0,0 km/h (0 Bft)
23.04.2019 02:39 6,2 °C 82 % 998,3 hPa 0,0 mm 0,0 km/h (0 Bft) W-SW 250 ° 0 min 0,000 mm 0,0 UV-I 0 W/m² 3,4 °C 6,2 °C 0,0 km/h (0 Bft)
23.04.2019 02:40 6,3 °C 82 % 998,3 hPa 0,0 mm 0,0 km/h (0 Bft) W-SW 250 ° 0 min 0,000 mm 0,0 UV-I 0 W/m² 3,5 °C 6,3 °C 0,0 km/h (0 Bft)
23.04.2019 02:41 6,4 °C 81 % 998,2 hPa 0,0 mm 0,0 km/h (0 Bft) W-SW 250 ° 0 min 0,000 mm 0,0 UV-I 0 W/m² 3,4 °C 6,4 °C 0,0 km/h (0 Bft)
23.04.2019 02:42 6,7 °C 80 % 998,2 hPa 0,0 mm 0,0 km/h (0 Bft) W-SW 250 ° 0 min 0,000 mm 0,0 UV-I 0 W/m² 3,5 °C 6,7 °C 0,0 km/h (0 Bft)
23.04.2019 02:43 6,8 °C 80 % 998,2 hPa 0,0 mm 0,0 km/h (0 Bft) W-SW 250 ° 0 min 0,000 mm 0,0 UV-I 0 W/m² 3,6 °C 6,8 °C 0,0 km/h (0 Bft)
23.04.2019 02:44 6,8 °C 79 % 998,2 hPa 0,0 mm 0,0 km/h (0 Bft) W-SW 250 ° 0 min 0,000 mm 0,0 UV-I 0 W/m² 3,4 °C 6,8 °C 0,0 km/h (0 Bft)
23.04.2019 02:45 6,6 °C 78 % 998,2 hPa 0,0 mm 0,0 km/h (0 Bft) W-SW 250 ° 0 min 0,000 mm 0,0 UV-I 0 W/m² 3,0 °C 6,6 °C 0,0 km/h (0 Bft)
23.04.2019 02:46 6,4 °C 78 % 998,2 hPa 0,0 mm 0,0 km/h (0 Bft) W-SW 250 ° 0 min 0,000 mm 0,0 UV-I 0 W/m² 2,8 °C 6,4 °C 0,0 km/h (0 Bft)
23.04.2019 02:47 6,2 °C 79 % 998,3 hPa 0,0 mm 0,0 km/h (0 Bft) W-SW 250 ° 0 min 0,000 mm 0,0 UV-I 0 W/m² 2,8 °C 6,2 °C 0,0 km/h (0 Bft)
23.04.2019 02:48 5,9 °C 80 % 998,2 hPa 0,0 mm 0,0 km/h (0 Bft) W-SW 250 ° 0 min 0,000 mm 0,0 UV-I 0 W/m² 2,7 °C 5,9 °C 0,0 km/h (0 Bft)
23.04.2019 02:49 5,8 °C 80 % 998,2 hPa 0,0 mm 0,0 km/h (0 Bft) W-SW 250 ° 0 min 0,000 mm 0,0 UV-I 0 W/m² 2,6 °C 5,8 °C 0,0 km/h (0 Bft)
23.04.2019 02:50 5,8 °C 81 % 998,2 hPa 0,0 mm 0,0 km/h (0 Bft) W-SW 250 ° 0 min 0,000 mm 0,0 UV-I 0 W/m² 2,8 °C 5,8 °C 0,0 km/h (0 Bft)
23.04.2019 02:51 5,8 °C 82 % 998,2 hPa 0,0 mm 0,0 km/h (0 Bft) W-SW 250 ° 0 min 0,000 mm 0,0 UV-I 0 W/m² 3,0 °C 5,8 °C 0,0 km/h (0 Bft)
23.04.2019 02:52 5,8 °C 82 % 998,2 hPa 0,0 mm 0,0 km/h (0 Bft) W-SW 250 ° 0 min 0,000 mm 0,0 UV-I 0 W/m² 3,0 °C 5,8 °C 0,0 km/h (0 Bft)
23.04.2019 02:53 5,8 °C 82 % 998,2 hPa 0,0 mm 0,0 km/h (0 Bft) W-SW 250 ° 0 min 0,000 mm 0,0 UV-I 0 W/m² 3,0 °C 5,8 °C 0,0 km/h (0 Bft)
23.04.2019 02:54 5,7 °C 82 % 998,2 hPa 0,0 mm 0,0 km/h (0 Bft) W-SW 250 ° 0 min 0,000 mm 0,0 UV-I 0 W/m² 2,9 °C 5,7 °C 0,0 km/h (0 Bft)
23.04.2019 02:55 5,7 °C 82 % 998,2 hPa 0,0 mm 0,0 km/h (0 Bft) W-SW 250 ° 0 min 0,000 mm 0,0 UV-I 0 W/m² 2,9 °C 5,7 °C 0,0 km/h (0 Bft)
23.04.2019 02:56 5,7 °C 82 % 998,2 hPa 0,0 mm 0,0 km/h (0 Bft) W-SW 250 ° 0 min 0,000 mm 0,0 UV-I 0 W/m² 2,9 °C 5,7 °C 0,0 km/h (0 Bft)
23.04.2019 02:57 5,7 °C 82 % 998,2 hPa 0,0 mm 0,0 km/h (0 Bft) W-SW 250 ° 0 min 0,000 mm 0,0 UV-I 0 W/m² 2,9 °C 5,7 °C 0,0 km/h (0 Bft)
23.04.2019 02:58 5,8 °C 83 % 998,2 hPa 0,0 mm 0,0 km/h (0 Bft) W-SW 250 ° 0 min 0,000 mm 0,0 UV-I 0 W/m² 3,1 °C 5,8 °C 0,0 km/h (0 Bft)
23.04.2019 02:59 5,8 °C 83 % 998,2 hPa 0,0 mm 0,0 km/h (0 Bft) W-SW 250 ° 0 min 0,000 mm 0,0 UV-I 0 W/m² 3,1 °C 5,8 °C 0,0 km/h (0 Bft)
23.04.2019 03:00 5,8 °C 83 % 998,2 hPa 0,0 mm 0,0 km/h (0 Bft) W-SW 250 ° 0 min 0,000 mm 0,0 UV-I 0 W/m² 3,1 °C 5,8 °C 0,0 km/h (0 Bft)
23.04.2019 03:01 5,9 °C 83 % 998,1 hPa 0,0 mm 0,0 km/h (0 Bft) W-SW 250 ° 0 min 0,000 mm 0,0 UV-I 0 W/m² 3,2 °C 5,9 °C 0,0 km/h (0 Bft)
23.04.2019 03:02 5,9 °C 82 % 998,1 hPa 0,0 mm 0,0 km/h (0 Bft) W-SW 250 ° 0 min 0,000 mm 0,0 UV-I 0 W/m² 3,1 °C 5,9 °C 0,0 km/h (0 Bft)
23.04.2019 03:03 6,0 °C 82 % 998,1 hPa 0,0 mm 0,0 km/h (0 Bft) W-SW 250 ° 0 min 0,000 mm 0,0 UV-I 0 W/m² 3,2 °C 6,0 °C 0,0 km/h (0 Bft)
23.04.2019 03:04 6,0 °C 81 % 998,1 hPa 0,0 mm 0,0 km/h (0 Bft) W-SW 250 ° 0 min 0,000 mm 0,0 UV-I 0 W/m² 3,0 °C 6,0 °C 0,0 km/h (0 Bft)
23.04.2019 03:05 6,0 °C 81 % 998,0 hPa 0,0 mm 0,0 km/h (0 Bft) W-SW 250 ° 0 min 0,000 mm 0,0 UV-I 0 W/m² 3,0 °C 6,0 °C 0,0 km/h (0 Bft)
23.04.2019 03:06 5,9 °C 82 % 998,0 hPa 0,0 mm 0,0 km/h (0 Bft) W-SW 250 ° 0 min 0,000 mm 0,0 UV-I 0 W/m² 3,1 °C 5,9 °C 0,0 km/h (0 Bft)
23.04.2019 03:07 5,9 °C 82 % 998,0 hPa 0,0 mm 0,0 km/h (0 Bft) W-SW 250 ° 0 min 0,000 mm 0,0 UV-I 0 W/m² 3,1 °C 5,9 °C 0,0 km/h (0 Bft)
23.04.2019 03:08 5,9 °C 82 % 998,0 hPa 0,0 mm 0,0 km/h (0 Bft) W-SW 250 ° 0 min 0,000 mm 0,0 UV-I 0 W/m² 3,1 °C 5,9 °C 0,0 km/h (0 Bft)
23.04.2019 03:09 5,9 °C 82 % 998,0 hPa 0,0 mm 0,0 km/h (0 Bft) W-SW 250 ° 0 min 0,000 mm 0,0 UV-I 0 W/m² 3,1 °C 5,9 °C 0,0 km/h (0 Bft)
23.04.2019 03:10 5,9 °C 82 % 997,9 hPa 0,0 mm 0,0 km/h (0 Bft) W-SW 250 ° 0 min 0,000 mm 0,0 UV-I 0 W/m² 3,1 °C 5,9 °C 0,0 km/h (0 Bft)
23.04.2019 03:11 6,0 °C 82 % 997,9 hPa 0,0 mm 0,0 km/h (0 Bft) W-SW 250 ° 0 min 0,000 mm 0,0 UV-I 0 W/m² 3,2 °C 6,0 °C 0,0 km/h (0 Bft)
23.04.2019 03:12 6,1 °C 82 % 997,9 hPa 0,0 mm 0,0 km/h (0 Bft) W-SW 250 ° 0 min 0,000 mm 0,0 UV-I 0 W/m² 3,3 °C 6,1 °C 0,0 km/h (0 Bft)
23.04.2019 03:13 6,1 °C 82 % 997,8 hPa 0,0 mm 0,0 km/h (0 Bft) W-SW 250 ° 0 min 0,000 mm 0,0 UV-I 0 W/m² 3,3 °C 6,1 °C 0,0 km/h (0 Bft)
23.04.2019 03:14 6,1 °C 82 % 997,8 hPa 0,0 mm 0,0 km/h (0 Bft) W-SW 250 ° 0 min 0,000 mm 0,0 UV-I 0 W/m² 3,3 °C 6,1 °C 0,0 km/h (0 Bft)
23.04.2019 03:15 6,0 °C 82 % 997,8 hPa 0,0 mm 0,0 km/h (0 Bft) W-SW 250 ° 0 min 0,000 mm 0,0 UV-I 0 W/m² 3,2 °C 6,0 °C 0,0 km/h (0 Bft)
23.04.2019 03:16 5,9 °C 81 % 997,9 hPa 0,0 mm 0,0 km/h (0 Bft) W-SW 250 ° 0 min 0,000 mm 0,0 UV-I 0 W/m² 2,9 °C 5,9 °C 0,0 km/h (0 Bft)
23.04.2019 03:17 5,7 °C 81 % 997,9 hPa 0,0 mm 0,0 km/h (0 Bft) W-SW 250 ° 0 min 0,000 mm 0,0 UV-I 0 W/m² 2,7 °C 5,7 °C 0,0 km/h (0 Bft)
23.04.2019 03:18 5,6 °C 82 % 998,0 hPa 0,0 mm 0,0 km/h (0 Bft) W-SW 250 ° 0 min 0,000 mm 0,0 UV-I 0 W/m² 2,8 °C 5,6 °C 0,0 km/h (0 Bft)
23.04.2019 03:19 5,5 °C 82 % 997,9 hPa 0,0 mm 0,0 km/h (0 Bft) W-SW 250 ° 0 min 0,000 mm 0,0 UV-I 0 W/m² 2,7 °C 5,5 °C 0,0 km/h (0 Bft)
23.04.2019 03:20 5,4 °C 83 % 998,0 hPa 0,0 mm 0,0 km/h (0 Bft) W-SW 250 ° 0 min 0,000 mm 0,0 UV-I 0 W/m² 2,7 °C 5,4 °C 0,0 km/h (0 Bft)
23.04.2019 03:21 5,4 °C 83 % 998,0 hPa 0,0 mm 0,0 km/h (0 Bft) W-SW 250 ° 0 min 0,000 mm 0,0 UV-I 0 W/m² 2,7 °C 5,4 °C 0,0 km/h (0 Bft)
23.04.2019 03:22 5,4 °C 84 % 997,9 hPa 0,0 mm 0,0 km/h (0 Bft) W-SW 250 ° 0 min 0,000 mm 0,0 UV-I 0 W/m² 2,9 °C 5,4 °C 0,0 km/h (0 Bft)
23.04.2019 03:23 5,4 °C 84 % 997,9 hPa 0,0 mm 0,0 km/h (0 Bft) W-SW 250 ° 0 min 0,000 mm 0,0 UV-I 0 W/m² 2,9 °C 5,4 °C 0,0 km/h (0 Bft)
23.04.2019 03:24 5,4 °C 84 % 997,9 hPa 0,0 mm 0,0 km/h (0 Bft) W-SW 250 ° 0 min 0,000 mm 0,0 UV-I 0 W/m² 2,9 °C 5,4 °C 0,0 km/h (0 Bft)
23.04.2019 03:25 5,4 °C 84 % 997,8 hPa 0,0 mm 0,0 km/h (0 Bft) W-SW 250 ° 0 min 0,000 mm 0,0 UV-I 0 W/m² 2,9 °C 5,4 °C 0,0 km/h (0 Bft)
23.04.2019 03:26 5,5 °C 84 % 997,9 hPa 0,0 mm 0,0 km/h (0 Bft) W-SW 250 ° 0 min 0,000 mm 0,0 UV-I 0 W/m² 3,0 °C 5,5 °C 0,0 km/h (0 Bft)
23.04.2019 03:27 5,6 °C 84 % 997,9 hPa 0,0 mm 0,0 km/h (0 Bft) W-SW 250 ° 0 min 0,000 mm 0,0 UV-I 0 W/m² 3,1 °C 5,6 °C 0,0 km/h (0 Bft)
23.04.2019 03:28 5,7 °C 84 % 997,8 hPa 0,0 mm 0,0 km/h (0 Bft) W-SW 250 ° 0 min 0,000 mm 0,0 UV-I 0 W/m² 3,2 °C 5,7 °C 0,0 km/h (0 Bft)
23.04.2019 03:29 5,9 °C 83 % 997,8 hPa 0,0 mm 0,0 km/h (0 Bft) W-SW 250 ° 0 min 0,000 mm 0,0 UV-I 0 W/m² 3,2 °C 5,9 °C 0,0 km/h (0 Bft)
23.04.2019 03:30 6,1 °C 82 % 997,8 hPa 0,0 mm 0,0 km/h (0 Bft) W-SW 250 ° 0 min 0,000 mm 0,0 UV-I 0 W/m² 3,3 °C 6,1 °C 0,0 km/h (0 Bft)
23.04.2019 03:31 6,1 °C 82 % 997,9 hPa 0,0 mm 0,0 km/h (0 Bft) W-SW 250 ° 0 min 0,000 mm 0,0 UV-I 0 W/m² 3,3 °C 6,1 °C 0,0 km/h (0 Bft)
23.04.2019 03:32 6,2 °C 82 % 997,9 hPa 0,0 mm 0,0 km/h (0 Bft) W-SW 250 ° 0 min 0,000 mm 0,0 UV-I 0 W/m² 3,4 °C 6,2 °C 0,0 km/h (0 Bft)
23.04.2019 03:33 6,2 °C 81 % 997,8 hPa 0,0 mm 0,0 km/h (0 Bft) W-SW 250 ° 0 min 0,000 mm 0,0 UV-I 0 W/m² 3,2 °C 6,2 °C 0,0 km/h (0 Bft)
23.04.2019 03:34 6,2 °C 81 % 997,8 hPa 0,0 mm 0,0 km/h (0 Bft) W-SW 250 ° 0 min 0,000 mm 0,0 UV-I 0 W/m² 3,2 °C 6,2 °C 0,0 km/h (0 Bft)
23.04.2019 03:35 6,0 °C 81 % 997,9 hPa 0,0 mm 0,0 km/h (0 Bft) W-SW 250 ° 0 min 0,000 mm 0,0 UV-I 0 W/m² 3,0 °C 6,0 °C 0,0 km/h (0 Bft)
23.04.2019 03:36 5,7 °C 80 % 997,9 hPa 0,0 mm 0,0 km/h (0 Bft) W-SW 250 ° 0 min 0,000 mm 0,0 UV-I 0 W/m² 2,5 °C 5,7 °C 0,0 km/h (0 Bft)
23.04.2019 03:37 5,5 °C 80 % 997,9 hPa 0,0 mm 0,0 km/h (0 Bft) W-SW 250 ° 0 min 0,000 mm 0,0 UV-I 0 W/m² 2,3 °C 5,5 °C 0,0 km/h (0 Bft)
23.04.2019 03:38 5,3 °C 82 % 997,9 hPa 0,0 mm 0,0 km/h (0 Bft) W-SW 250 ° 0 min 0,000 mm 0,0 UV-I 0 W/m² 2,5 °C 5,3 °C 0,0 km/h (0 Bft)
23.04.2019 03:39 5,3 °C 83 % 997,9 hPa 0,0 mm 0,0 km/h (0 Bft) W-SW 250 ° 0 min 0,000 mm 0,0 UV-I 0 W/m² 2,7 °C 5,3 °C 0,0 km/h (0 Bft)
23.04.2019 03:40 5,3 °C 84 % 997,9 hPa 0,0 mm 0,0 km/h (0 Bft) W-SW 250 ° 0 min 0,000 mm 0,0 UV-I 0 W/m² 2,8 °C 5,3 °C 0,0 km/h (0 Bft)
23.04.2019 03:41 5,5 °C 84 % 997,9 hPa 0,0 mm 0,0 km/h (0 Bft) W-SW 250 ° 0 min 0,000 mm 0,0 UV-I 0 W/m² 3,0 °C 5,5 °C 0,0 km/h (0 Bft)
23.04.2019 03:42 5,7 °C 84 % 997,8 hPa 0,0 mm 0,0 km/h (0 Bft) W-SW 250 ° 0 min 0,000 mm 0,0 UV-I 0 W/m² 3,2 °C 5,7 °C 0,0 km/h (0 Bft)
23.04.2019 03:43 5,9 °C 84 % 997,8 hPa 0,0 mm 0,0 km/h (0 Bft) W-SW 250 ° 0 min 0,000 mm 0,0 UV-I 0 W/m² 3,4 °C 5,9 °C 0,0 km/h (0 Bft)
23.04.2019 03:44 6,2 °C 83 % 997,8 hPa 0,0 mm 0,0 km/h (0 Bft) W-SW 250 ° 0 min 0,000 mm 0,0 UV-I 0 W/m² 3,5 °C 6,2 °C 0,0 km/h (0 Bft)
23.04.2019 03:45 6,3 °C 82 % 997,8 hPa 0,0 mm 0,0 km/h (0 Bft) W-SW 250 ° 0 min 0,000 mm 0,0 UV-I 0 W/m² 3,5 °C 6,3 °C 0,0 km/h (0 Bft)
23.04.2019 03:46 6,3 °C 82 % 997,8 hPa 0,0 mm 0,0 km/h (0 Bft) W-SW 250 ° 0 min 0,000 mm 0,0 UV-I 0 W/m² 3,5 °C 6,3 °C 0,0 km/h (0 Bft)
23.04.2019 03:47 6,3 °C 82 % 997,8 hPa 0,0 mm 0,0 km/h (0 Bft) W-SW 250 ° 0 min 0,000 mm 0,0 UV-I 0 W/m² 3,5 °C 6,3 °C 0,0 km/h (0 Bft)
23.04.2019 03:48 6,2 °C 82 % 997,8 hPa 0,0 mm 0,0 km/h (0 Bft) W-SW 250 ° 0 min 0,000 mm 0,0 UV-I 0 W/m² 3,4 °C 6,2 °C 0,0 km/h (0 Bft)
23.04.2019 03:49 6,2 °C 82 % 997,8 hPa 0,0 mm 0,0 km/h (0 Bft) W-SW 250 ° 0 min 0,000 mm 0,0 UV-I 0 W/m² 3,4 °C 6,2 °C 0,0 km/h (0 Bft)
23.04.2019 03:50 6,2 °C 82 % 997,7 hPa 0,0 mm 0,0 km/h (0 Bft) W-SW 250 ° 0 min 0,000 mm 0,0 UV-I 0 W/m² 3,4 °C 6,2 °C 0,0 km/h (0 Bft)
23.04.2019 03:51 6,4 °C 82 % 997,8 hPa 0,0 mm 0,0 km/h (0 Bft) W-SW 250 ° 0 min 0,000 mm 0,0 UV-I 0 W/m² 3,6 °C 6,4 °C 0,0 km/h (0 Bft)
23.04.2019 03:52 6,4 °C 81 % 997,7 hPa 0,0 mm 0,0 km/h (0 Bft) W-SW 250 ° 0 min 0,000 mm 0,0 UV-I 0 W/m² 3,4 °C 6,4 °C 0,0 km/h (0 Bft)
23.04.2019 03:53 6,5 °C 81 % 997,8 hPa 0,0 mm 0,0 km/h (0 Bft) W-SW 250 ° 0 min 0,000 mm 0,0 UV-I 0 W/m² 3,5 °C 6,5 °C 0,0 km/h (0 Bft)
23.04.2019 03:54 6,6 °C 81 % 997,7 hPa 0,0 mm 0,0 km/h (0 Bft) W-SW 250 ° 0 min 0,000 mm 0,0 UV-I 0 W/m² 3,6 °C 6,6 °C 0,0 km/h (0 Bft)
23.04.2019 03:55 6,5 °C 81 % 997,7 hPa 0,0 mm 0,0 km/h (0 Bft) W-SW 250 ° 0 min 0,000 mm 0,0 UV-I 0 W/m² 3,5 °C 6,5 °C 0,0 km/h (0 Bft)
23.04.2019 03:56 6,3 °C 81 % 997,7 hPa 0,0 mm 0,0 km/h (0 Bft) W-SW 250 ° 0 min 0,000 mm 0,0 UV-I 0 W/m² 3,3 °C 6,3 °C 0,0 km/h (0 Bft)
23.04.2019 03:57 6,2 °C 80 % 997,7 hPa 0,0 mm 0,6 km/h (0 Bft) W-SW 250 ° 0 min 0,000 mm 0,0 UV-I 0 W/m² 3,0 °C 6,2 °C 3,2 km/h (1 Bft)
23.04.2019 03:58 6,1 °C 81 % 997,7 hPa 0,0 mm 0,8 km/h (0 Bft) W-SW 250 ° 0 min 0,000 mm 0,0 UV-I 0 W/m² 3,1 °C 6,1 °C 3,2 km/h (1 Bft)
23.04.2019 03:59 5,9 °C 81 % 997,7 hPa 0,0 mm 0,0 km/h (0 Bft) W-SW 250 ° 0 min 0,000 mm 0,0 UV-I 0 W/m² 2,9 °C 5,9 °C 0,0 km/h (0 Bft)
23.04.2019 04:00 5,8 °C 82 % 997,7 hPa 0,0 mm 0,0 km/h (0 Bft) W-SW 250 ° 0 min 0,000 mm 0,0 UV-I 0 W/m² 3,0 °C 5,8 °C 0,0 km/h (0 Bft)
23.04.2019 04:01 5,8 °C 82 % 997,7 hPa 0,0 mm 0,0 km/h (0 Bft) W-SW 250 ° 0 min 0,000 mm 0,0 UV-I 0 W/m² 3,0 °C 5,8 °C 0,0 km/h (0 Bft)
23.04.2019 04:02 5,7 °C 82 % 997,7 hPa 0,0 mm 0,0 km/h (0 Bft) W-SW 250 ° 0 min 0,000 mm 0,0 UV-I 0 W/m² 2,9 °C 5,7 °C 0,0 km/h (0 Bft)
23.04.2019 04:03 5,7 °C 83 % 997,7 hPa 0,0 mm 0,0 km/h (0 Bft) W-SW 250 ° 0 min 0,000 mm 0,0 UV-I 0 W/m² 3,0 °C 5,7 °C 0,0 km/h (0 Bft)
23.04.2019 04:04 5,6 °C 83 % 997,7 hPa 0,0 mm 0,0 km/h (0 Bft) W-SW 250 ° 0 min 0,000 mm 0,0 UV-I 0 W/m² 2,9 °C 5,6 °C 0,0 km/h (0 Bft)
23.04.2019 04:05 5,6 °C 83 % 997,6 hPa 0,0 mm 0,0 km/h (0 Bft) W-SW 250 ° 0 min 0,000 mm 0,0 UV-I 0 W/m² 2,9 °C 5,6 °C 0,0 km/h (0 Bft)
23.04.2019 04:06 5,6 °C 83 % 997,7 hPa 0,0 mm 0,0 km/h (0 Bft) W-SW 250 ° 0 min 0,000 mm 0,0 UV-I 0 W/m² 2,9 °C 5,6 °C 0,0 km/h (0 Bft)
23.04.2019 04:07 5,6 °C 83 % 997,6 hPa 0,0 mm 0,0 km/h (0 Bft) W-SW 250 ° 0 min 0,000 mm 0,0 UV-I 0 W/m² 2,9 °C 5,6 °C 0,0 km/h (0 Bft)
23.04.2019 04:08 5,6 °C 83 % 997,6 hPa 0,0 mm 0,0 km/h (0 Bft) W-SW 250 ° 0 min 0,000 mm 0,0 UV-I 0 W/m² 2,9 °C 5,6 °C 0,0 km/h (0 Bft)
23.04.2019 04:09 5,6 °C 84 % 997,5 hPa 0,0 mm 0,0 km/h (0 Bft) W-SW 250 ° 0 min 0,000 mm 0,0 UV-I 0 W/m² 3,1 °C 5,6 °C 0,0 km/h (0 Bft)
23.04.2019 04:10 5,6 °C 84 % 997,6 hPa 0,0 mm 0,0 km/h (0 Bft) W-SW 250 ° 0 min 0,000 mm 0,0 UV-I 0 W/m² 3,1 °C 5,6 °C 0,0 km/h (0 Bft)
23.04.2019 04:11 5,6 °C 84 % 997,5 hPa 0,0 mm 0,0 km/h (0 Bft) W-SW 250 ° 0 min 0,000 mm 0,0 UV-I 0 W/m² 3,1 °C 5,6 °C 0,0 km/h (0 Bft)
23.04.2019 04:12 5,6 °C 84 % 997,6 hPa 0,0 mm 0,0 km/h (0 Bft) W-SW 250 ° 0 min 0,000 mm 0,0 UV-I 0 W/m² 3,1 °C 5,6 °C 0,0 km/h (0 Bft)
23.04.2019 04:13 5,6 °C 84 % 997,6 hPa 0,0 mm 0,0 km/h (0 Bft) W-SW 250 ° 0 min 0,000 mm 0,0 UV-I 0 W/m² 3,1 °C 5,6 °C 0,0 km/h (0 Bft)
23.04.2019 04:14 5,6 °C 83 % 997,6 hPa 0,0 mm 0,0 km/h (0 Bft) W-SW 250 ° 0 min 0,000 mm 0,0 UV-I 0 W/m² 2,9 °C 5,6 °C 0,0 km/h (0 Bft)
23.04.2019 04:15 5,5 °C 83 % 997,6 hPa 0,0 mm 0,0 km/h (0 Bft) W-SW 250 ° 0 min 0,000 mm 0,0 UV-I 0 W/m² 2,8 °C 5,5 °C 0,0 km/h (0 Bft)
23.04.2019 04:16 5,6 °C 84 % 997,6 hPa 0,0 mm 0,0 km/h (0 Bft) W-SW 250 ° 0 min 0,000 mm 0,0 UV-I 0 W/m² 3,1 °C 5,6 °C 0,0 km/h (0 Bft)
23.04.2019 04:17 5,6 °C 84 % 997,5 hPa 0,0 mm 0,0 km/h (0 Bft) W-SW 250 ° 0 min 0,000 mm 0,0 UV-I 0 W/m² 3,1 °C 5,6 °C 0,0 km/h (0 Bft)
23.04.2019 04:18 5,7 °C 84 % 997,5 hPa 0,0 mm 0,0 km/h (0 Bft) W-SW 250 ° 0 min 0,000 mm 0,0 UV-I 0 W/m² 3,2 °C 5,7 °C 0,0 km/h (0 Bft)
23.04.2019 04:19 5,7 °C 84 % 997,5 hPa 0,0 mm 0,0 km/h (0 Bft) W-SW 250 ° 0 min 0,000 mm 0,0 UV-I 0 W/m² 3,2 °C 5,7 °C 0,0 km/h (0 Bft)
23.04.2019 04:20 5,8 °C 84 % 997,5 hPa 0,0 mm 0,0 km/h (0 Bft) W-SW 250 ° 0 min 0,000 mm 0,0 UV-I 0 W/m² 3,3 °C 5,8 °C 0,0 km/h (0 Bft)
23.04.2019 04:21 6,0 °C 84 % 997,5 hPa 0,0 mm 0,0 km/h (0 Bft) W-SW 250 ° 0 min 0,000 mm 0,0 UV-I 0 W/m² 3,5 °C 6,0 °C 0,0 km/h (0 Bft)
23.04.2019 04:22 6,2 °C 84 % 997,5 hPa 0,0 mm 0,0 km/h (0 Bft) W-SW 250 ° 0 min 0,000 mm 0,0 UV-I 0 W/m² 3,7 °C 6,2 °C 0,0 km/h (0 Bft)
23.04.2019 04:23 6,2 °C 83 % 997,5 hPa 0,0 mm 0,5 km/h (0 Bft) W-SW 250 ° 0 min 0,000 mm 0,0 UV-I 0 W/m² 3,5 °C 6,2 °C 3,2 km/h (1 Bft)
23.04.2019 04:24 6,2 °C 83 % 997,4 hPa 0,0 mm 1,1 km/h (1 Bft) W-SW 250 ° 0 min 0,000 mm 0,0 UV-I 0 W/m² 3,5 °C 6,2 °C 3,2 km/h (1 Bft)
23.04.2019 04:25 6,2 °C 82 % 997,4 hPa 0,0 mm 0,3 km/h (0 Bft) W-SW 250 ° 0 min 0,000 mm 0,0 UV-I 0 W/m² 3,4 °C 6,2 °C 3,2 km/h (1 Bft)
23.04.2019 04:26 6,1 °C 83 % 997,3 hPa 0,0 mm 0,0 km/h (0 Bft) W-SW 250 ° 0 min 0,000 mm 0,0 UV-I 0 W/m² 3,4 °C 6,1 °C 0,0 km/h (0 Bft)
23.04.2019 04:27 6,1 °C 83 % 997,3 hPa 0,0 mm 0,0 km/h (0 Bft) W-SW 250 ° 0 min 0,000 mm 0,0 UV-I 0 W/m² 3,4 °C 6,1 °C 0,0 km/h (0 Bft)
23.04.2019 04:28 6,1 °C 83 % 997,3 hPa 0,0 mm 0,0 km/h (0 Bft) W-SW 250 ° 0 min 0,000 mm 0,0 UV-I 0 W/m² 3,4 °C 6,1 °C 0,0 km/h (0 Bft)
23.04.2019 04:29 6,1 °C 83 % 997,3 hPa 0,0 mm 0,0 km/h (0 Bft) W-SW 250 ° 0 min 0,000 mm 0,0 UV-I 0 W/m² 3,4 °C 6,1 °C 0,0 km/h (0 Bft)
23.04.2019 04:30 6,1 °C 83 % 997,3 hPa 0,0 mm 0,0 km/h (0 Bft) W-SW 250 ° 0 min 0,000 mm 0,0 UV-I 0 W/m² 3,4 °C 6,1 °C 0,0 km/h (0 Bft)
23.04.2019 04:31 6,1 °C 83 % 997,3 hPa 0,0 mm 0,0 km/h (0 Bft) W-SW 250 ° 0 min 0,000 mm 0,0 UV-I 0 W/m² 3,4 °C 6,1 °C 0,0 km/h (0 Bft)
23.04.2019 04:32 6,1 °C 83 % 997,3 hPa 0,0 mm 0,0 km/h (0 Bft) W-SW 250 ° 0 min 0,000 mm 0,0 UV-I 0 W/m² 3,4 °C 6,1 °C 0,0 km/h (0 Bft)
23.04.2019 04:33 6,0 °C 83 % 997,3 hPa 0,0 mm 0,0 km/h (0 Bft) W-SW 250 ° 0 min 0,000 mm 0,0 UV-I 0 W/m² 3,3 °C 6,0 °C 0,0 km/h (0 Bft)
23.04.2019 04:34 5,9 °C 83 % 997,3 hPa 0,0 mm 0,0 km/h (0 Bft) W-SW 250 ° 0 min 0,000 mm 0,0 UV-I 0 W/m² 3,2 °C 5,9 °C 0,0 km/h (0 Bft)
23.04.2019 04:35 5,9 °C 83 % 997,3 hPa 0,0 mm 0,0 km/h (0 Bft) W-SW 250 ° 0 min 0,000 mm 0,0 UV-I 0 W/m² 3,2 °C 5,9 °C 0,0 km/h (0 Bft)
23.04.2019 04:36 5,8 °C 83 % 997,3 hPa 0,0 mm 0,0 km/h (0 Bft) W-SW 250 ° 0 min 0,000 mm 0,0 UV-I 0 W/m² 3,1 °C 5,8 °C 0,0 km/h (0 Bft)
23.04.2019 04:37 5,7 °C 83 % 997,3 hPa 0,0 mm 0,0 km/h (0 Bft) W-SW 250 ° 0 min 0,000 mm 0,0 UV-I 0 W/m² 3,0 °C 5,7 °C 0,0 km/h (0 Bft)
23.04.2019 04:38 5,6 °C 83 % 997,2 hPa 0,0 mm 0,0 km/h (0 Bft) W-SW 250 ° 0 min 0,000 mm 0,0 UV-I 0 W/m² 2,9 °C 5,6 °C 0,0 km/h (0 Bft)
23.04.2019 04:39 5,5 °C 84 % 997,2 hPa 0,0 mm 0,0 km/h (0 Bft) W-SW 250 ° 0 min 0,000 mm 0,0 UV-I 0 W/m² 3,0 °C 5,5 °C 0,0 km/h (0 Bft)
23.04.2019 04:40 5,4 °C 84 % 997,3 hPa 0,0 mm 0,0 km/h (0 Bft) W-SW 250 ° 0 min 0,000 mm 0,0 UV-I 0 W/m² 2,9 °C 5,4 °C 0,0 km/h (0 Bft)
23.04.2019 04:41 5,4 °C 84 % 997,3 hPa 0,0 mm 0,0 km/h (0 Bft) W-SW 250 ° 0 min 0,000 mm 0,0 UV-I 0 W/m² 2,9 °C 5,4 °C 0,0 km/h (0 Bft)
23.04.2019 04:42 5,6 °C 85 % 997,2 hPa 0,0 mm 0,1 km/h (0 Bft) W-SW 250 ° 0 min 0,000 mm 0,0 UV-I 0 W/m² 3,3 °C 5,6 °C 1,6 km/h (1 Bft)
23.04.2019 04:43 5,6 °C 84 % 997,2 hPa 0,0 mm 0,0 km/h (0 Bft) W-SW 250 ° 0 min 0,000 mm 0,0 UV-I 0 W/m² 3,1 °C 5,6 °C 0,0 km/h (0 Bft)
23.04.2019 04:44 5,7 °C 84 % 997,1 hPa 0,0 mm 0,0 km/h (0 Bft) W-SW 250 ° 0 min 0,000 mm 0,0 UV-I 0 W/m² 3,2 °C 5,7 °C 0,0 km/h (0 Bft)
23.04.2019 04:45 5,8 °C 83 % 997,2 hPa 0,0 mm 0,0 km/h (0 Bft) W-SW 250 ° 0 min 0,000 mm 0,0 UV-I 0 W/m² 3,1 °C 5,8 °C 0,0 km/h (0 Bft)
23.04.2019 04:46 5,9 °C 83 % 997,1 hPa 0,0 mm 2,4 km/h (1 Bft) W-SW 250 ° 0 min 0,000 mm 0,0 UV-I 0 W/m² 3,2 °C 5,9 °C 4,8 km/h (1 Bft)
23.04.2019 04:47 6,1 °C 83 % 997,1 hPa 0,0 mm 2,6 km/h (1 Bft) W-SW 250 ° 0 min 0,000 mm 0,0 UV-I 0 W/m² 3,4 °C 6,1 °C 4,8 km/h (1 Bft)
23.04.2019 04:48 6,2 °C 82 % 997,1 hPa 0,0 mm 1,8 km/h (1 Bft) W-SW 250 ° 0 min 0,000 mm 0,0 UV-I 0 W/m² 3,4 °C 6,2 °C 6,4 km/h (2 Bft)
23.04.2019 04:49 6,3 °C 81 % 997,1 hPa 0,0 mm 0,0 km/h (0 Bft) W-SW 250 ° 0 min 0,000 mm 0,0 UV-I 0 W/m² 3,3 °C 6,3 °C 0,0 km/h (0 Bft)
23.04.2019 04:50 6,6 °C 81 % 997,1 hPa 0,0 mm 0,0 km/h (0 Bft) W-SW 250 ° 0 min 0,000 mm 0,0 UV-I 0 W/m² 3,6 °C 6,6 °C 0,0 km/h (0 Bft)
23.04.2019 04:51 6,6 °C 80 % 997,0 hPa 0,0 mm 0,4 km/h (0 Bft) W-SW 250 ° 0 min 0,000 mm 0,0 UV-I 0 W/m² 3,4 °C 6,6 °C 1,6 km/h (1 Bft)
23.04.2019 04:52 6,7 °C 80 % 997,0 hPa 0,0 mm 0,0 km/h (0 Bft) W-SW 250 ° 0 min 0,000 mm 0,0 UV-I 0 W/m² 3,5 °C 6,7 °C 0,0 km/h (0 Bft)
23.04.2019 04:53 6,7 °C 80 % 997,0 hPa 0,0 mm 0,0 km/h (0 Bft) W-SW 250 ° 0 min 0,000 mm 0,0 UV-I 0 W/m² 3,5 °C 6,7 °C 0,0 km/h (0 Bft)
23.04.2019 04:54 6,7 °C 80 % 997,0 hPa 0,0 mm 0,0 km/h (0 Bft) W-SW 250 ° 0 min 0,000 mm 0,0 UV-I 0 W/m² 3,5 °C 6,7 °C 0,0 km/h (0 Bft)
23.04.2019 04:55 6,7 °C 80 % 996,9 hPa 0,0 mm 0,0 km/h (0 Bft) W-SW 250 ° 0 min 0,000 mm 0,0 UV-I 0 W/m² 3,5 °C 6,7 °C 0,0 km/h (0 Bft)
23.04.2019 04:56 6,7 °C 80 % 996,9 hPa 0,0 mm 0,0 km/h (0 Bft) W-SW 250 ° 0 min 0,000 mm 0,0 UV-I 0 W/m² 3,5 °C 6,7 °C 0,0 km/h (0 Bft)
23.04.2019 04:57 6,6 °C 80 % 996,9 hPa 0,0 mm 0,0 km/h (0 Bft) W-SW 250 ° 0 min 0,000 mm 0,0 UV-I 0 W/m² 3,4 °C 6,6 °C 0,0 km/h (0 Bft)
23.04.2019 04:58 6,6 °C 80 % 996,9 hPa 0,0 mm 0,0 km/h (0 Bft) W-SW 250 ° 0 min 0,000 mm 0,0 UV-I 0 W/m² 3,4 °C 6,6 °C 0,0 km/h (0 Bft)
23.04.2019 04:59 6,6 °C 80 % 997,0 hPa 0,0 mm 0,1 km/h (0 Bft) W-SW 250 ° 0 min 0,000 mm 0,0 UV-I 0 W/m² 3,4 °C 6,6 °C 1,6 km/h (1 Bft)
23.04.2019 05:00 6,6 °C 80 % 997,0 hPa 0,0 mm 1,2 km/h (1 Bft) W-SW 250 ° 0 min 0,000 mm 0,0 UV-I 0 W/m² 3,4 °C 6,6 °C 4,8 km/h (1 Bft)
23.04.2019 05:01 6,7 °C 80 % 996,9 hPa 0,0 mm 0,0 km/h (0 Bft) W-SW 250 ° 0 min 0,000 mm 0,0 UV-I 0 W/m² 3,5 °C 6,7 °C 0,0 km/h (0 Bft)
23.04.2019 05:02 6,8 °C 79 % 997,0 hPa 0,0 mm 0,0 km/h (0 Bft) W-SW 250 ° 0 min 0,000 mm 0,0 UV-I 0 W/m² 3,4 °C 6,8 °C 0,0 km/h (0 Bft)
23.04.2019 05:03 6,8 °C 79 % 996,9 hPa 0,0 mm 0,0 km/h (0 Bft) W-SW 250 ° 0 min 0,000 mm 0,0 UV-I 0 W/m² 3,4 °C 6,8 °C 0,0 km/h (0 Bft)
23.04.2019 05:04 6,8 °C 79 % 996,9 hPa 0,0 mm 0,0 km/h (0 Bft) W-SW 250 ° 0 min 0,000 mm 0,0 UV-I 0 W/m² 3,4 °C 6,8 °C 0,0 km/h (0 Bft)
23.04.2019 05:05 6,8 °C 79 % 996,9 hPa 0,0 mm 0,0 km/h (0 Bft) W-SW 250 ° 0 min 0,000 mm 0,0 UV-I 0 W/m² 3,4 °C 6,8 °C 0,0 km/h (0 Bft)
23.04.2019 05:06 6,8 °C 78 % 996,9 hPa 0,0 mm 0,0 km/h (0 Bft) W-SW 250 ° 0 min 0,000 mm 0,0 UV-I 0 W/m² 3,2 °C 6,8 °C 0,0 km/h (0 Bft)
23.04.2019 05:07 6,8 °C 78 % 996,9 hPa 0,0 mm 0,0 km/h (0 Bft) W-SW 250 ° 0 min 0,000 mm 0,0 UV-I 0 W/m² 3,2 °C 6,8 °C 0,0 km/h (0 Bft)
23.04.2019 05:08 6,8 °C 78 % 996,8 hPa 0,0 mm 1,3 km/h (1 Bft) W-SW 250 ° 0 min 0,000 mm 0,0 UV-I 0 W/m² 3,2 °C 6,8 °C 4,8 km/h (1 Bft)
23.04.2019 05:09 7,0 °C 77 % 996,9 hPa 0,0 mm 0,4 km/h (0 Bft) W-SW 250 ° 0 min 0,000 mm 0,0 UV-I 0 W/m² 3,2 °C 7,0 °C 1,6 km/h (1 Bft)
23.04.2019 05:10 7,1 °C 77 % 996,8 hPa 0,0 mm 0,0 km/h (0 Bft) W-SW 250 ° 0 min 0,000 mm 0,0 UV-I 0 W/m² 3,3 °C 7,1 °C 0,0 km/h (0 Bft)
23.04.2019 05:11 7,3 °C 76 % 996,8 hPa 0,0 mm 1,2 km/h (1 Bft) O-SO 123 ° 0 min 0,000 mm 0,0 UV-I 0 W/m² 3,4 °C 7,3 °C 3,2 km/h (1 Bft)
23.04.2019 05:12 7,4 °C 76 % 996,9 hPa 0,0 mm 0,0 km/h (0 Bft) O-SO 123 ° 0 min 0,000 mm 0,0 UV-I 0 W/m² 3,5 °C 7,4 °C 0,0 km/h (0 Bft)
23.04.2019 05:13 7,4 °C 76 % 996,9 hPa 0,0 mm 0,0 km/h (0 Bft) O-SO 123 ° 0 min 0,000 mm 0,0 UV-I 0 W/m² 3,5 °C 7,4 °C 0,0 km/h (0 Bft)
23.04.2019 05:14 7,4 °C 76 % 996,8 hPa 0,0 mm 0,0 km/h (0 Bft) O-SO 123 ° 0 min 0,000 mm 0,0 UV-I 0 W/m² 3,5 °C 7,4 °C 0,0 km/h (0 Bft)
23.04.2019 05:15 7,3 °C 76 % 996,8 hPa 0,0 mm 0,0 km/h (0 Bft) O-SO 123 ° 0 min 0,000 mm 0,0 UV-I 0 W/m² 3,4 °C 7,3 °C 0,0 km/h (0 Bft)
23.04.2019 05:16 7,3 °C 76 % 996,8 hPa 0,0 mm 0,0 km/h (0 Bft) O-SO 123 ° 0 min 0,000 mm 0,0 UV-I 0 W/m² 3,4 °C 7,3 °C 0,0 km/h (0 Bft)
23.04.2019 05:17 7,4 °C 76 % 996,8 hPa 0,0 mm 0,0 km/h (0 Bft) O-SO 123 ° 0 min 0,000 mm 0,0 UV-I 0 W/m² 3,5 °C 7,4 °C 0,0 km/h (0 Bft)
23.04.2019 05:18 7,4 °C 76 % 996,8 hPa 0,0 mm 0,0 km/h (0 Bft) O-SO 123 ° 0 min 0,000 mm 0,0 UV-I 0 W/m² 3,5 °C 7,4 °C 0,0 km/h (0 Bft)
23.04.2019 05:19 7,6 °C 76 % 996,8 hPa 0,0 mm 0,0 km/h (0 Bft) O-SO 123 ° 0 min 0,000 mm 0,0 UV-I 0 W/m² 3,6 °C 7,6 °C 0,0 km/h (0 Bft)
23.04.2019 05:20 7,7 °C 75 % 996,8 hPa 0,0 mm 0,0 km/h (0 Bft) O-SO 123 ° 0 min 0,000 mm 0,0 UV-I 0 W/m² 3,6 °C 7,7 °C 0,0 km/h (0 Bft)
23.04.2019 05:21 7,7 °C 76 % 996,8 hPa 0,0 mm 0,0 km/h (0 Bft) O-SO 123 ° 0 min 0,000 mm 0,0 UV-I 0 W/m² 3,7 °C 7,7 °C 0,0 km/h (0 Bft)
23.04.2019 05:22 7,7 °C 76 % 996,8 hPa 0,0 mm 0,0 km/h (0 Bft) O-SO 123 ° 0 min 0,000 mm 0,0 UV-I 0 W/m² 3,7 °C 7,7 °C 0,0 km/h (0 Bft)
23.04.2019 05:23 7,9 °C 75 % 996,8 hPa 0,0 mm 0,0 km/h (0 Bft) O-SO 123 ° 0 min 0,000 mm 0,0 UV-I 0 W/m² 3,7 °C 7,9 °C 0,0 km/h (0 Bft)
23.04.2019 05:24 8,2 °C 72 % 996,8 hPa 0,0 mm 0,0 km/h (0 Bft) O-SO 123 ° 0 min 0,000 mm 0,0 UV-I 0 W/m² 3,5 °C 8,2 °C 0,0 km/h (0 Bft)
23.04.2019 05:25 8,5 °C 71 % 996,8 hPa 0,0 mm 1,8 km/h (1 Bft) O-SO 114 ° 0 min 0,000 mm 0,0 UV-I 0 W/m² 3,5 °C 8,5 °C 4,8 km/h (1 Bft)
23.04.2019 05:26 8,8 °C 70 % 996,8 hPa 0,0 mm 0,1 km/h (0 Bft) O-SO 114 ° 0 min 0,000 mm 0,0 UV-I 0 W/m² 3,6 °C 8,8 °C 1,6 km/h (1 Bft)
23.04.2019 05:27 9,1 °C 68 % 996,8 hPa 0,0 mm 0,0 km/h (0 Bft) O-SO 114 ° 0 min 0,000 mm 0,0 UV-I 0 W/m² 3,5 °C 9,1 °C 0,0 km/h (0 Bft)
23.04.2019 05:28 9,3 °C 67 % 996,7 hPa 0,0 mm 0,0 km/h (0 Bft) O-SO 114 ° 0 min 0,000 mm 0,0 UV-I 0 W/m² 3,5 °C 9,3 °C 0,0 km/h (0 Bft)
23.04.2019 05:29 9,6 °C 66 % 996,7 hPa 0,0 mm 0,0 km/h (0 Bft) O-SO 114 ° 0 min 0,000 mm 0,0 UV-I 0 W/m² 3,6 °C 9,6 °C 0,0 km/h (0 Bft)
23.04.2019 05:30 9,7 °C 66 % 996,7 hPa 0,0 mm 1,3 km/h (1 Bft) O-SO 123 ° 0 min 0,000 mm 0,0 UV-I 0 W/m² 3,7 °C 9,7 °C 4,8 km/h (1 Bft)
23.04.2019 05:31 9,9 °C 64 % 996,7 hPa 0,0 mm 0,3 km/h (0 Bft) O-SO 121 ° 0 min 0,000 mm 0,0 UV-I 0 W/m² 3,4 °C 9,9 °C 3,2 km/h (1 Bft)
23.04.2019 05:32 10,0 °C 65 % 996,6 hPa 0,0 mm 1,0 km/h (0 Bft) O-SO 122 ° 0 min 0,000 mm 0,0 UV-I 0 W/m² 3,7 °C 10,0 °C 3,2 km/h (1 Bft)
23.04.2019 05:33 10,1 °C 63 % 996,6 hPa 0,0 mm 0,0 km/h (0 Bft) O-SO 122 ° 0 min 0,000 mm 0,0 UV-I 0 W/m² 3,4 °C 10,1 °C 0,0 km/h (0 Bft)
23.04.2019 05:34 10,2 °C 63 % 996,6 hPa 0,0 mm 0,5 km/h (0 Bft) O-SO 102 ° 0 min 0,000 mm 0,0 UV-I 0 W/m² 3,5 °C 10,2 °C 4,8 km/h (1 Bft)
23.04.2019 05:35 10,3 °C 61 % 996,6 hPa 0,0 mm 1,1 km/h (1 Bft) O-SO 109 ° 0 min 0,000 mm 0,0 UV-I 0 W/m² 3,1 °C 10,3 °C 4,8 km/h (1 Bft)
23.04.2019 05:36 10,4 °C 59 % 996,6 hPa 0,0 mm 0,0 km/h (0 Bft) N-NO 22 ° 0 min 0,000 mm 0,0 UV-I 0 W/m² 2,7 °C 10,4 °C 0,0 km/h (0 Bft)
23.04.2019 05:37 10,6 °C 61 % 996,6 hPa 0,0 mm 2,0 km/h (1 Bft) N-NW 332 ° 0 min 0,000 mm 0,0 UV-I 0 W/m² 3,4 °C 10,6 °C 4,8 km/h (1 Bft)
23.04.2019 05:38 10,8 °C 60 % 996,6 hPa 0,0 mm 0,4 km/h (0 Bft) W-SW 243 ° 0 min 0,000 mm 0,0 UV-I 0 W/m² 3,4 °C 10,8 °C 1,6 km/h (1 Bft)
23.04.2019 05:39 10,8 °C 59 % 996,6 hPa 0,0 mm 0,0 km/h (0 Bft) W-SW 243 ° 0 min 0,000 mm 0,0 UV-I 0 W/m² 3,1 °C 10,8 °C 0,0 km/h (0 Bft)
23.04.2019 05:40 11,0 °C 58 % 996,6 hPa 0,0 mm 0,4 km/h (0 Bft) W 265 ° 0 min 0,000 mm 0,0 UV-I 0 W/m² 3,1 °C 11,0 °C 1,6 km/h (1 Bft)
23.04.2019 05:41 11,1 °C 58 % 996,6 hPa 0,0 mm 0,0 km/h (0 Bft) W 265 ° 0 min 0,000 mm 0,0 UV-I 0 W/m² 3,2 °C 11,1 °C 0,0 km/h (0 Bft)
23.04.2019 05:42 11,2 °C 58 % 996,6 hPa 0,0 mm 0,4 km/h (0 Bft) W 265 ° 0 min 0,000 mm 0,0 UV-I 0 W/m² 3,2 °C 11,2 °C 3,2 km/h (1 Bft)
23.04.2019 05:43 11,2 °C 58 % 996,6 hPa 0,0 mm 1,1 km/h (1 Bft) W-NW 300 ° 0 min 0,000 mm 0,0 UV-I 0 W/m² 3,2 °C 11,2 °C 3,2 km/h (1 Bft)
23.04.2019 05:44 11,2 °C 58 % 996,6 hPa 0,0 mm 0,0 km/h (0 Bft) W-NW 300 ° 0 min 0,000 mm 0,0 UV-I 0 W/m² 3,2 °C 11,2 °C 0,0 km/h (0 Bft)
23.04.2019 05:45 11,2 °C 57 % 996,6 hPa 0,0 mm 0,0 km/h (0 Bft) W-NW 300 ° 0 min 0,000 mm 0,0 UV-I 0 W/m² 3,0 °C 11,2 °C 0,0 km/h (0 Bft)
23.04.2019 05:46 11,2 °C 58 % 996,6 hPa 0,0 mm 0,0 km/h (0 Bft) W-NW 300 ° 0 min 0,000 mm 0,0 UV-I 0 W/m² 3,2 °C 11,2 °C 0,0 km/h (0 Bft)
23.04.2019 05:47 11,2 °C 59 % 996,6 hPa 0,0 mm 0,0 km/h (0 Bft) W-NW 300 ° 0 min 0,000 mm 0,0 UV-I 0 W/m² 3,5 °C 11,2 °C 0,0 km/h (0 Bft)
23.04.2019 05:48 11,2 °C 55 % 996,5 hPa 0,0 mm 0,0 km/h (0 Bft) W-NW 300 ° 0 min 0,000 mm 0,0 UV-I 0 W/m² 2,5 °C 11,2 °C 0,0 km/h (0 Bft)
23.04.2019 05:49 11,2 °C 57 % 996,5 hPa 0,0 mm 0,0 km/h (0 Bft) W-NW 300 ° 0 min 0,000 mm 0,0 UV-I 0 W/m² 3,0 °C 11,2 °C 0,0 km/h (0 Bft)
23.04.2019 05:50 11,3 °C 57 % 996,6 hPa 0,0 mm 0,0 km/h (0 Bft) W-NW 300 ° 0 min 0,000 mm 0,0 UV-I 0 W/m² 3,1 °C 11,3 °C 0,0 km/h (0 Bft)
23.04.2019 05:51 11,3 °C 58 % 996,6 hPa 0,0 mm 0,0 km/h (0 Bft) W-NW 300 ° 0 min 0,000 mm 0,0 UV-I 0 W/m² 3,3 °C 11,3 °C 0,0 km/h (0 Bft)
23.04.2019 05:52 11,3 °C 56 % 996,6 hPa 0,0 mm 0,0 km/h (0 Bft) W-NW 300 ° 0 min 0,000 mm 0,0 UV-I 0 W/m² 2,8 °C 11,3 °C 0,0 km/h (0 Bft)
23.04.2019 05:53 11,2 °C 58 % 996,5 hPa 0,0 mm 0,0 km/h (0 Bft) W-NW 300 ° 0 min 0,000 mm 0,0 UV-I 0 W/m² 3,2 °C 11,2 °C 0,0 km/h (0 Bft)
23.04.2019 05:54 11,3 °C 58 % 996,5 hPa 0,0 mm 0,0 km/h (0 Bft) W-NW 300 ° 0 min 0,000 mm 0,0 UV-I 0 W/m² 3,3 °C 11,3 °C 0,0 km/h (0 Bft)
23.04.2019 05:55 11,3 °C 56 % 996,6 hPa 0,0 mm 0,6 km/h (0 Bft) W-NW 300 ° 0 min 0,000 mm 0,0 UV-I 0 W/m² 2,8 °C 11,3 °C 3,2 km/h (1 Bft)
23.04.2019 05:56 11,3 °C 56 % 996,6 hPa 0,0 mm 0,0 km/h (0 Bft) W-NW 300 ° 0 min 0,000 mm 0,0 UV-I 0 W/m² 2,8 °C 11,3 °C 0,0 km/h (0 Bft)
23.04.2019 05:57 11,3 °C 56 % 996,5 hPa 0,0 mm 1,5 km/h (1 Bft) W-NW 284 ° 0 min 0,000 mm 0,0 UV-I 0 W/m² 2,8 °C 11,3 °C 3,2 km/h (1 Bft)
23.04.2019 05:58 11,4 °C 56 % 996,6 hPa 0,0 mm 2,9 km/h (1 Bft) W-SW 249 ° 0 min 0,000 mm 0,0 UV-I 0 W/m² 2,9 °C 11,4 °C 6,4 km/h (2 Bft)
23.04.2019 05:59 11,5 °C 54 % 996,5 hPa 0,0 mm 0,4 km/h (0 Bft) SW 228 ° 0 min 0,000 mm 0,0 UV-I 0 W/m² 2,5 °C 11,5 °C 1,6 km/h (1 Bft)
23.04.2019 06:00 11,7 °C 52 % 996,5 hPa 0,0 mm 1,0 km/h (0 Bft) W 279 ° 0 min 0,025 mm 0,0 UV-I 0 W/m² 2,2 °C 11,7 °C 9,7 km/h (2 Bft)
23.04.2019 06:01 11,8 °C 52 % 996,5 hPa 0,0 mm 6,2 km/h (2 Bft) S-SW 213 ° 0 min 0,000 mm 0,0 UV-I 0 W/m² 2,3 °C 11,8 °C 6,4 km/h (2 Bft)
23.04.2019 06:02 12,1 °C 52 % 996,5 hPa 0,0 mm 0,9 km/h (0 Bft) S-SW 211 ° 0 min 0,000 mm 0,0 UV-I 0 W/m² 2,5 °C 12,1 °C 1,6 km/h (1 Bft)
23.04.2019 06:03 12,1 °C 52 % 996,5 hPa 0,0 mm 0,3 km/h (0 Bft) S-SO 147 ° 0 min 0,000 mm 0,0 UV-I 0 W/m² 2,5 °C 12,1 °C 1,6 km/h (1 Bft)
23.04.2019 06:04 12,2 °C 52 % 996,5 hPa 0,0 mm 0,0 km/h (0 Bft) S-SO 147 ° 0 min 0,000 mm 0,0 UV-I 0 W/m² 2,6 °C 12,2 °C 0,0 km/h (0 Bft)
23.04.2019 06:05 12,2 °C 52 % 996,6 hPa 0,0 mm 0,0 km/h (0 Bft) S-SO 147 ° 0 min 0,000 mm 0,0 UV-I 0 W/m² 2,6 °C 12,2 °C 0,0 km/h (0 Bft)
23.04.2019 06:06 12,1 °C 54 % 996,5 hPa 0,0 mm 0,1 km/h (0 Bft) S-SO 147 ° 0 min 0,000 mm 0,0 UV-I 0 W/m² 3,1 °C 12,1 °C 1,6 km/h (1 Bft)
23.04.2019 06:07 12,1 °C 52 % 996,5 hPa 0,0 mm 1,3 km/h (1 Bft) S-SO 150 ° 0 min 0,000 mm 0,0 UV-I 0 W/m² 2,5 °C 12,1 °C 3,2 km/h (1 Bft)
23.04.2019 06:08 12,1 °C 53 % 996,5 hPa 0,0 mm 6,0 km/h (2 Bft) NW 313 ° 0 min 0,000 mm 0,0 UV-I 0 W/m² 2,8 °C 12,1 °C 11,3 km/h (2 Bft)
23.04.2019 06:09 12,1 °C 52 % 996,5 hPa 0,0 mm 1,3 km/h (1 Bft) SW 225 ° 0 min 0,000 mm 0,0 UV-I 0 W/m² 2,5 °C 12,1 °C 3,2 km/h (1 Bft)
23.04.2019 06:10 12,1 °C 52 % 996,5 hPa 0,0 mm 2,4 km/h (1 Bft) NW 312 ° 0 min 0,000 mm 0,0 UV-I 0 W/m² 2,5 °C 12,1 °C 6,4 km/h (2 Bft)
23.04.2019 06:11 11,9 °C 57 % 996,5 hPa 0,0 mm 1,6 km/h (1 Bft) NW 312 ° 0 min 0,000 mm 0,0 UV-I 0 W/m² 3,7 °C 11,9 °C 4,8 km/h (1 Bft)
23.04.2019 06:12 11,7 °C 58 % 996,5 hPa 0,0 mm 0,2 km/h (0 Bft) NW 312 ° 0 min 0,000 mm 0,0 UV-I 0 W/m² 3,7 °C 11,7 °C 1,6 km/h (1 Bft)
23.04.2019 06:13 11,4 °C 58 % 996,5 hPa 0,0 mm 0,1 km/h (0 Bft) NW 312 ° 0 min 0,000 mm 0,0 UV-I 0 W/m² 3,4 °C 11,4 °C 1,6 km/h (1 Bft)
23.04.2019 06:14 11,1 °C 59 % 996,6 hPa 0,0 mm 0,0 km/h (0 Bft) NW 312 ° 0 min 0,000 mm 0,0 UV-I 0 W/m² 3,4 °C 11,1 °C 0,0 km/h (0 Bft)
23.04.2019 06:15 10,8 °C 61 % 996,6 hPa 0,0 mm 0,0 km/h (0 Bft) NW 312 ° 0 min 0,000 mm 0,0 UV-I 0 W/m² 3,6 °C 10,8 °C 0,0 km/h (0 Bft)
23.04.2019 06:16 10,6 °C 62 % 996,6 hPa 0,0 mm 0,0 km/h (0 Bft) NW 312 ° 0 min 0,000 mm 0,0 UV-I 0 W/m² 3,6 °C 10,6 °C 0,0 km/h (0 Bft)
23.04.2019 06:17 10,3 °C 63 % 996,6 hPa 0,0 mm 0,0 km/h (0 Bft) NW 312 ° 0 min 0,000 mm 0,0 UV-I 0 W/m² 3,6 °C 10,3 °C 0,0 km/h (0 Bft)
23.04.2019 06:18 10,2 °C 63 % 996,5 hPa 0,0 mm 0,0 km/h (0 Bft) NW 312 ° 0 min 0,000 mm 0,0 UV-I 0 W/m² 3,5 °C 10,2 °C 0,0 km/h (0 Bft)
23.04.2019 06:19 10,1 °C 64 % 996,5 hPa 0,0 mm 0,3 km/h (0 Bft) NW 312 ° 0 min 0,000 mm 0,0 UV-I 0 W/m² 3,6 °C 10,1 °C 3,2 km/h (1 Bft)
23.04.2019 06:20 10,1 °C 64 % 996,5 hPa 0,0 mm 0,3 km/h (0 Bft) NW 312 ° 0 min 0,000 mm 0,0 UV-I 0 W/m² 3,6 °C 10,1 °C 3,2 km/h (1 Bft)
23.04.2019 06:21 10,1 °C 64 % 996,5 hPa 0,0 mm 0,0 km/h (0 Bft) NW 312 ° 0 min 0,000 mm 0,0 UV-I 0 W/m² 3,6 °C 10,1 °C 0,0 km/h (0 Bft)
23.04.2019 06:22 10,2 °C 63 % 996,5 hPa 0,0 mm 0,0 km/h (0 Bft) NW 312 ° 0 min 0,000 mm 0,0 UV-I 0 W/m² 3,5 °C 10,2 °C 0,0 km/h (0 Bft)
23.04.2019 06:23 10,3 °C 61 % 996,5 hPa 0,0 mm 0,0 km/h (0 Bft) NW 312 ° 0 min 0,000 mm 0,0 UV-I 0 W/m² 3,1 °C 10,3 °C 0,0 km/h (0 Bft)
23.04.2019 06:24 10,4 °C 61 % 996,5 hPa 0,0 mm 0,0 km/h (0 Bft) NW 312 ° 0 min 0,000 mm 0,0 UV-I 5 W/m² 3,2 °C 10,4 °C 0,0 km/h (0 Bft)
23.04.2019 06:25 10,6 °C 60 % 996,5 hPa 0,0 mm 0,0 km/h (0 Bft) NW 312 ° 0 min 0,000 mm 0,0 UV-I 5 W/m² 3,2 °C 10,6 °C 0,0 km/h (0 Bft)
23.04.2019 06:26 10,6 °C 60 % 996,5 hPa 0,0 mm 0,0 km/h (0 Bft) NW 312 ° 0 min 0,000 mm 0,0 UV-I 5 W/m² 3,2 °C 10,6 °C 0,0 km/h (0 Bft)
23.04.2019 06:27 10,7 °C 60 % 996,5 hPa 0,0 mm 0,0 km/h (0 Bft) NW 312 ° 0 min 0,000 mm 0,0 UV-I 5 W/m² 3,3 °C 10,7 °C 0,0 km/h (0 Bft)
23.04.2019 06:28 10,8 °C 59 % 996,6 hPa 0,0 mm 0,1 km/h (0 Bft) NW 312 ° 0 min 0,000 mm 0,0 UV-I 5 W/m² 3,1 °C 10,8 °C 1,6 km/h (1 Bft)
23.04.2019 06:29 10,8 °C 60 % 996,5 hPa 0,0 mm 1,2 km/h (1 Bft) NW 312 ° 0 min 0,000 mm 0,0 UV-I 7 W/m² 3,4 °C 10,8 °C 3,2 km/h (1 Bft)
23.04.2019 06:30 10,9 °C 58 % 996,5 hPa 0,0 mm 1,2 km/h (1 Bft) NW 312 ° 0 min 0,000 mm 0,0 UV-I 7 W/m² 3,0 °C 10,9 °C 3,2 km/h (1 Bft)
23.04.2019 06:31 11,1 °C 56 % 996,5 hPa 0,0 mm 0,1 km/h (0 Bft) NW 312 ° 0 min 0,000 mm 0,0 UV-I 7 W/m² 2,7 °C 11,1 °C 1,6 km/h (1 Bft)
23.04.2019 06:32 11,2 °C 57 % 996,5 hPa 0,0 mm 0,0 km/h (0 Bft) NW 312 ° 0 min 0,000 mm 0,0 UV-I 9 W/m² 3,0 °C 11,2 °C 0,0 km/h (0 Bft)
23.04.2019 06:33 11,2 °C 58 % 996,4 hPa 0,0 mm 0,2 km/h (0 Bft) NW 312 ° 0 min 0,000 mm 0,0 UV-I 9 W/m² 3,2 °C 11,2 °C 3,2 km/h (1 Bft)
23.04.2019 06:34 11,3 °C 58 % 996,4 hPa 0,0 mm 0,4 km/h (0 Bft) NW 312 ° 0 min 0,000 mm 0,0 UV-I 9 W/m² 3,3 °C 11,3 °C 1,6 km/h (1 Bft)
23.04.2019 06:35 11,3 °C 57 % 996,4 hPa 0,0 mm 0,0 km/h (0 Bft) NW 312 ° 0 min 0,000 mm 0,0 UV-I 11 W/m² 3,1 °C 11,3 °C 0,0 km/h (0 Bft)
23.04.2019 06:36 11,3 °C 57 % 996,4 hPa 0,0 mm 2,9 km/h (1 Bft) NO 35 ° 0 min 0,000 mm 0,0 UV-I 11 W/m² 3,1 °C 11,3 °C 6,4 km/h (2 Bft)
23.04.2019 06:37 11,3 °C 56 % 996,4 hPa 0,0 mm 0,1 km/h (0 Bft) NO 36 ° 0 min 0,000 mm 0,0 UV-I 12 W/m² 2,8 °C 11,3 °C 1,6 km/h (1 Bft)
23.04.2019 06:38 11,3 °C 58 % 996,4 hPa 0,0 mm 0,0 km/h (0 Bft) NO 36 ° 0 min 0,000 mm 0,0 UV-I 12 W/m² 3,3 °C 11,3 °C 0,0 km/h (0 Bft)
23.04.2019 06:39 11,2 °C 59 % 996,3 hPa 0,0 mm 0,0 km/h (0 Bft) NO 36 ° 0 min 0,000 mm 0,0 UV-I 12 W/m² 3,5 °C 11,2 °C 0,0 km/h (0 Bft)
23.04.2019 06:40 11,1 °C 60 % 996,4 hPa 0,0 mm 1,7 km/h (1 Bft) NO 35 ° 0 min 0,000 mm 0,0 UV-I 14 W/m² 3,6 °C 11,1 °C 3,2 km/h (1 Bft)
23.04.2019 06:41 11,1 °C 59 % 996,4 hPa 0,0 mm 2,3 km/h (1 Bft) NO 34 ° 0 min 0,000 mm 0,0 UV-I 14 W/m² 3,4 °C 11,1 °C 3,2 km/h (1 Bft)
23.04.2019 06:42 11,0 °C 59 % 996,4 hPa 0,0 mm 0,1 km/h (0 Bft) NO 34 ° 0 min 0,000 mm 0,0 UV-I 14 W/m² 3,3 °C 11,0 °C 1,6 km/h (1 Bft)
23.04.2019 06:43 11,1 °C 59 % 996,4 hPa 0,0 mm 1,8 km/h (1 Bft) W-NW 292 ° 0 min 0,000 mm 0,0 UV-I 16 W/m² 3,4 °C 11,1 °C 3,2 km/h (1 Bft)
23.04.2019 06:44 11,1 °C 58 % 996,4 hPa 0,0 mm 0,9 km/h (0 Bft) W-NW 292 ° 0 min 0,000 mm 0,0 UV-I 16 W/m² 3,2 °C 11,1 °C 3,2 km/h (1 Bft)
23.04.2019 06:45 11,1 °C 59 % 996,4 hPa 0,0 mm 0,6 km/h (0 Bft) W-NW 292 ° 0 min 0,000 mm 0,0 UV-I 16 W/m² 3,4 °C 11,1 °C 3,2 km/h (1 Bft)
23.04.2019 06:46 11,2 °C 58 % 996,3 hPa 0,0 mm 1,1 km/h (1 Bft) W-NW 292 ° 0 min 0,000 mm 0,0 UV-I 16 W/m² 3,2 °C 11,2 °C 3,2 km/h (1 Bft)
23.04.2019 06:47 11,2 °C 57 % 996,4 hPa 0,0 mm 0,2 km/h (0 Bft) W-NW 292 ° 0 min 0,000 mm 0,0 UV-I 18 W/m² 3,0 °C 11,2 °C 1,6 km/h (1 Bft)
23.04.2019 06:48 11,3 °C 57 % 996,4 hPa 0,0 mm 0,0 km/h (0 Bft) W-NW 292 ° 0 min 0,000 mm 0,0 UV-I 18 W/m² 3,1 °C 11,3 °C 0,0 km/h (0 Bft)
23.04.2019 06:49 11,4 °C 55 % 996,4 hPa 0,0 mm 0,0 km/h (0 Bft) W-NW 292 ° 0 min 0,000 mm 0,0 UV-I 18 W/m² 2,7 °C 11,4 °C 0,0 km/h (0 Bft)
23.04.2019 06:50 11,5 °C 56 % 996,4 hPa 0,0 mm 0,0 km/h (0 Bft) W-NW 292 ° 0 min 0,000 mm 0,0 UV-I 19 W/m² 3,0 °C 11,5 °C 0,0 km/h (0 Bft)
23.04.2019 06:51 11,5 °C 58 % 996,4 hPa 0,0 mm 0,0 km/h (0 Bft) W-NW 292 ° 0 min 0,000 mm 0,0 UV-I 19 W/m² 3,5 °C 11,5 °C 0,0 km/h (0 Bft)
23.04.2019 06:52 11,4 °C 60 % 996,3 hPa 0,0 mm 0,0 km/h (0 Bft) W-NW 292 ° 0 min 0,000 mm 0,0 UV-I 19 W/m² 3,9 °C 11,4 °C 0,0 km/h (0 Bft)
23.04.2019 06:53 11,2 °C 62 % 996,4 hPa 0,0 mm 0,0 km/h (0 Bft) W-NW 292 ° 0 min 0,000 mm 0,0 UV-I 19 W/m² 4,2 °C 11,2 °C 0,0 km/h (0 Bft)
23.04.2019 06:54 11,1 °C 61 % 996,4 hPa 0,0 mm 0,0 km/h (0 Bft) W-NW 292 ° 0 min 0,000 mm 0,0 UV-I 19 W/m² 3,9 °C 11,1 °C 0,0 km/h (0 Bft)
23.04.2019 06:55 11,0 °C 61 % 996,4 hPa 0,0 mm 0,0 km/h (0 Bft) W-NW 292 ° 0 min 0,000 mm 0,0 UV-I 19 W/m² 3,8 °C 11,0 °C 0,0 km/h (0 Bft)
23.04.2019 06:56 10,9 °C 61 % 996,4 hPa 0,0 mm 0,0 km/h (0 Bft) W-NW 292 ° 0 min 0,000 mm 0,0 UV-I 21 W/m² 3,7 °C 10,9 °C 0,0 km/h (0 Bft)
23.04.2019 06:57 10,9 °C 61 % 996,4 hPa 0,0 mm 0,0 km/h (0 Bft) W-NW 292 ° 0 min 0,000 mm 0,0 UV-I 21 W/m² 3,7 °C 10,9 °C 0,0 km/h (0 Bft)
23.04.2019 06:58 10,9 °C 62 % 996,4 hPa 0,0 mm 0,0 km/h (0 Bft) W-NW 292 ° 0 min 0,000 mm 0,0 UV-I 21 W/m² 3,9 °C 10,9 °C 0,0 km/h (0 Bft)
23.04.2019 06:59 10,9 °C 60 % 996,4 hPa 0,0 mm 0,0 km/h (0 Bft) W-NW 292 ° 0 min 0,000 mm 0,0 UV-I 21 W/m² 3,4 °C 10,9 °C 0,0 km/h (0 Bft)
23.04.2019 07:00 10,9 °C 60 % 996,3 hPa 0,0 mm 0,0 km/h (0 Bft) W-NW 292 ° 0 min 0,026 mm 0,0 UV-I 21 W/m² 3,4 °C 10,9 °C 0,0 km/h (0 Bft)
23.04.2019 07:01 10,9 °C 61 % 996,4 hPa 0,0 mm 0,0 km/h (0 Bft) W-NW 292 ° 0 min 0,000 mm 0,0 UV-I 23 W/m² 3,7 °C 10,9 °C 0,0 km/h (0 Bft)
23.04.2019 07:02 10,8 °C 63 % 996,4 hPa 0,0 mm 0,0 km/h (0 Bft) W-NW 292 ° 0 min 0,000 mm 0,0 UV-I 23 W/m² 4,0 °C 10,8 °C 0,0 km/h (0 Bft)
23.04.2019 07:03 10,8 °C 61 % 996,4 hPa 0,0 mm 0,0 km/h (0 Bft) W-NW 292 ° 0 min 0,000 mm 0,0 UV-I 23 W/m² 3,6 °C 10,8 °C 0,0 km/h (0 Bft)
23.04.2019 07:04 10,8 °C 59 % 996,4 hPa 0,0 mm 0,0 km/h (0 Bft) W-NW 292 ° 0 min 0,000 mm 0,0 UV-I 25 W/m² 3,1 °C 10,8 °C 0,0 km/h (0 Bft)
23.04.2019 07:05 10,9 °C 58 % 996,3 hPa 0,0 mm 0,0 km/h (0 Bft) W-NW 292 ° 0 min 0,000 mm 0,0 UV-I 25 W/m² 3,0 °C 10,9 °C 0,0 km/h (0 Bft)
23.04.2019 07:06 10,9 °C 63 % 996,3 hPa 0,0 mm 0,0 km/h (0 Bft) W-NW 292 ° 0 min 0,000 mm 0,0 UV-I 26 W/m² 4,1 °C 10,9 °C 0,0 km/h (0 Bft)
23.04.2019 07:07 10,8 °C 63 % 996,3 hPa 0,0 mm 0,0 km/h (0 Bft) W-NW 292 ° 0 min 0,000 mm 0,0 UV-I 26 W/m² 4,0 °C 10,8 °C 0,0 km/h (0 Bft)
23.04.2019 07:08 10,8 °C 63 % 996,3 hPa 0,0 mm 0,0 km/h (0 Bft) W-NW 292 ° 0 min 0,000 mm 0,0 UV-I 28 W/m² 4,0 °C 10,8 °C 0,0 km/h (0 Bft)
23.04.2019 07:09 10,8 °C 62 % 996,3 hPa 0,0 mm 1,1 km/h (1 Bft) O 88 ° 0 min 0,000 mm 0,0 UV-I 28 W/m² 3,8 °C 10,8 °C 4,8 km/h (1 Bft)
23.04.2019 07:10 10,8 °C 61 % 996,3 hPa 0,0 mm 0,7 km/h (0 Bft) O 98 ° 0 min 0,000 mm 0,0 UV-I 28 W/m² 3,6 °C 10,8 °C 4,8 km/h (1 Bft)
23.04.2019 07:11 10,8 °C 60 % 996,3 hPa 0,0 mm 3,2 km/h (1 Bft) O-SO 123 ° 0 min 0,000 mm 0,0 UV-I 30 W/m² 3,4 °C 10,8 °C 8,0 km/h (2 Bft)
23.04.2019 07:12 11,0 °C 59 % 996,3 hPa 0,0 mm 0,0 km/h (0 Bft) O-SO 117 ° 0 min 0,000 mm 0,0 UV-I 30 W/m² 3,3 °C 11,0 °C 0,0 km/h (0 Bft)
23.04.2019 07:13 11,2 °C 58 % 996,3 hPa 0,0 mm 0,2 km/h (0 Bft) O-SO 113 ° 0 min 0,000 mm 0,0 UV-I 32 W/m² 3,2 °C 11,2 °C 1,6 km/h (1 Bft)
23.04.2019 07:14 11,5 °C 59 % 996,3 hPa 0,0 mm 0,2 km/h (0 Bft) O-SO 113 ° 0 min 0,000 mm 0,0 UV-I 32 W/m² 3,8 °C 11,5 °C 1,6 km/h (1 Bft)
23.04.2019 07:15 11,8 °C 57 % 996,4 hPa 0,0 mm 5,1 km/h (1 Bft) W-NW 284 ° 0 min 0,000 mm 0,0 UV-I 32 W/m² 3,6 °C 11,8 °C 6,4 km/h (2 Bft)
23.04.2019 07:16 12,0 °C 57 % 996,4 hPa 0,0 mm 4,1 km/h (1 Bft) W 267 ° 0 min 0,000 mm 0,0 UV-I 33 W/m² 3,8 °C 12,0 °C 6,4 km/h (2 Bft)
23.04.2019 07:17 12,1 °C 56 % 996,4 hPa 0,0 mm 7,3 km/h (2 Bft) W-NW 288 ° 0 min 0,000 mm 0,0 UV-I 33 W/m² 3,6 °C 12,1 °C 11,3 km/h (2 Bft)
23.04.2019 07:18 12,2 °C 57 % 996,4 hPa 0,0 mm 3,8 km/h (1 Bft) W-NW 292 ° 0 min 0,000 mm 0,0 UV-I 35 W/m² 3,9 °C 12,2 °C 6,4 km/h (2 Bft)
23.04.2019 07:19 12,1 °C 56 % 996,4 hPa 0,0 mm 3,4 km/h (1 Bft) W-NW 292 ° 0 min 0,000 mm 0,0 UV-I 35 W/m² 3,6 °C 12,1 °C 4,8 km/h (1 Bft)
23.04.2019 07:20 12,1 °C 57 % 996,4 hPa 0,0 mm 1,1 km/h (1 Bft) O-NO 57 ° 0 min 0,000 mm 0,0 UV-I 37 W/m² 3,8 °C 12,1 °C 3,2 km/h (1 Bft)
23.04.2019 07:21 11,9 °C 58 % 996,4 hPa 0,0 mm 0,1 km/h (0 Bft) NO 56 ° 0 min 0,000 mm 0,0 UV-I 37 W/m² 3,9 °C 11,9 °C 1,6 km/h (1 Bft)
23.04.2019 07:22 11,9 °C 58 % 996,4 hPa 0,0 mm 0,0 km/h (0 Bft) NO 56 ° 0 min 0,000 mm 0,0 UV-I 37 W/m² 3,9 °C 11,9 °C 0,0 km/h (0 Bft)
23.04.2019 07:23 11,9 °C 57 % 996,3 hPa 0,0 mm 0,4 km/h (0 Bft) NO 53 ° 0 min 0,000 mm 0,0 UV-I 39 W/m² 3,7 °C 11,9 °C 1,6 km/h (1 Bft)
23.04.2019 07:24 11,9 °C 59 % 996,3 hPa 0,0 mm 0,3 km/h (0 Bft) NO 53 ° 0 min 0,000 mm 0,0 UV-I 40 W/m² 4,1 °C 11,9 °C 1,6 km/h (1 Bft)
23.04.2019 07:25 11,9 °C 58 % 996,3 hPa 0,0 mm 0,1 km/h (0 Bft) NO 53 ° 0 min 0,000 mm 0,0 UV-I 40 W/m² 3,9 °C 11,9 °C 1,6 km/h (1 Bft)
23.04.2019 07:26 11,9 °C 58 % 996,3 hPa 0,0 mm 2,0 km/h (1 Bft) W-NW 296 ° 0 min 0,000 mm 0,0 UV-I 42 W/m² 3,9 °C 11,9 °C 4,8 km/h (1 Bft)
23.04.2019 07:27 11,8 °C 59 % 996,3 hPa 0,0 mm 2,5 km/h (1 Bft) W-NW 296 ° 0 min 0,000 mm 0,0 UV-I 42 W/m² 4,1 °C 11,8 °C 4,8 km/h (1 Bft)
23.04.2019 07:28 11,8 °C 59 % 996,3 hPa 0,0 mm 0,0 km/h (0 Bft) W-NW 296 ° 0 min 0,000 mm 0,0 UV-I 44 W/m² 4,1 °C 11,8 °C 0,0 km/h (0 Bft)
23.04.2019 07:29 11,7 °C 60 % 996,3 hPa 0,0 mm 2,9 km/h (1 Bft) W-NW 296 ° 0 min 0,000 mm 0,0 UV-I 46 W/m² 4,2 °C 11,7 °C 4,8 km/h (1 Bft)
23.04.2019 07:30 11,7 °C 61 % 996,3 hPa 0,0 mm 1,5 km/h (1 Bft) W-NW 296 ° 0 min 0,000 mm 0,0 UV-I 46 W/m² 4,4 °C 11,7 °C 4,8 km/h (1 Bft)
23.04.2019 07:31 11,5 °C 63 % 996,3 hPa 0,0 mm 0,0 km/h (0 Bft) W-NW 296 ° 0 min 0,000 mm 0,0 UV-I 47 W/m² 4,7 °C 11,5 °C 0,0 km/h (0 Bft)
23.04.2019 07:32 11,4 °C 64 % 996,3 hPa 0,0 mm 0,0 km/h (0 Bft) W-NW 296 ° 0 min 0,000 mm 0,0 UV-I 47 W/m² 4,8 °C 11,4 °C 0,0 km/h (0 Bft)
23.04.2019 07:33 11,4 °C 62 % 996,4 hPa 0,0 mm 1,1 km/h (1 Bft) W-NW 296 ° 0 min 0,000 mm 0,0 UV-I 47 W/m² 4,4 °C 11,4 °C 4,8 km/h (1 Bft)
23.04.2019 07:34 11,4 °C 62 % 996,4 hPa 0,0 mm 1,7 km/h (1 Bft) W-NW 296 ° 0 min 0,000 mm 0,0 UV-I 47 W/m² 4,4 °C 11,4 °C 3,2 km/h (1 Bft)
23.04.2019 07:35 11,4 °C 63 % 996,4 hPa 0,0 mm 0,1 km/h (0 Bft) W-NW 296 ° 0 min 0,000 mm 0,0 UV-I 49 W/m² 4,6 °C 11,4 °C 1,6 km/h (1 Bft)
23.04.2019 07:36 11,4 °C 63 % 996,4 hPa 0,0 mm 0,2 km/h (0 Bft) W-NW 296 ° 0 min 0,000 mm 0,0 UV-I 49 W/m² 4,6 °C 11,4 °C 1,6 km/h (1 Bft)
23.04.2019 07:37 11,5 °C 62 % 996,5 hPa 0,0 mm 0,0 km/h (0 Bft) W-NW 296 ° 0 min 0,000 mm 0,0 UV-I 49 W/m² 4,5 °C 11,5 °C 0,0 km/h (0 Bft)
23.04.2019 07:38 11,5 °C 66 % 996,4 hPa 0,0 mm 0,0 km/h (0 Bft) W-NW 296 ° 0 min 0,000 mm 0,0 UV-I 49 W/m² 5,4 °C 11,5 °C 0,0 km/h (0 Bft)
23.04.2019 07:39 11,5 °C 63 % 996,5 hPa 0,0 mm 0,0 km/h (0 Bft) W-NW 296 ° 0 min 0,000 mm 0,0 UV-I 49 W/m² 4,7 °C 11,5 °C 0,0 km/h (0 Bft)
23.04.2019 07:40 11,6 °C 64 % 996,5 hPa 0,0 mm 1,4 km/h (1 Bft) O-NO 57 ° 0 min 0,000 mm 0,0 UV-I 49 W/m² 5,0 °C 11,6 °C 4,8 km/h (1 Bft)
23.04.2019 07:41 11,6 °C 63 % 996,5 hPa 0,0 mm 1,4 km/h (1 Bft) O 94 ° 0 min 0,000 mm 0,0 UV-I 49 W/m² 4,8 °C 11,6 °C 4,8 km/h (1 Bft)
23.04.2019 07:42 11,6 °C 61 % 996,5 hPa 0,0 mm 0,1 km/h (0 Bft) O-NO 75 ° 0 min 0,000 mm 0,0 UV-I 49 W/m² 4,3 °C 11,6 °C 1,6 km/h (1 Bft)
23.04.2019 07:43 11,6 °C 63 % 996,5 hPa 0,0 mm 1,4 km/h (1 Bft) N-NO 22 ° 0 min 0,000 mm 0,0 UV-I 49 W/m² 4,8 °C 11,6 °C 6,4 km/h (2 Bft)
23.04.2019 07:44 11,7 °C 60 % 996,4 hPa 0,0 mm 3,2 km/h (1 Bft) O 88 ° 0 min 0,000 mm 0,0 UV-I 49 W/m² 4,2 °C 11,7 °C 6,4 km/h (2 Bft)
23.04.2019 07:45 11,8 °C 61 % 996,3 hPa 0,0 mm 0,2 km/h (0 Bft) NO 35 ° 0 min 0,000 mm 0,0 UV-I 49 W/m² 4,5 °C 11,8 °C 1,6 km/h (1 Bft)
23.04.2019 07:46 11,9 °C 59 % 996,4 hPa 0,0 mm 0,2 km/h (0 Bft) NO 35 ° 0 min 0,000 mm 0,0 UV-I 49 W/m² 4,1 °C 11,9 °C 1,6 km/h (1 Bft)
23.04.2019 07:47 12,1 °C 58 % 996,3 hPa 0,0 mm 3,2 km/h (1 Bft) N-NW 332 ° 0 min 0,000 mm 0,0 UV-I 47 W/m² 4,1 °C 12,1 °C 4,8 km/h (1 Bft)
23.04.2019 07:48 12,3 °C 56 % 996,4 hPa 0,0 mm 0,0 km/h (0 Bft) N-NW 333 ° 0 min 0,000 mm 0,0 UV-I 47 W/m² 3,8 °C 12,3 °C 0,0 km/h (0 Bft)
23.04.2019 07:49 12,4 °C 60 % 996,4 hPa 0,0 mm 1,3 km/h (1 Bft) O-NO 76 ° 0 min 0,000 mm 0,0 UV-I 47 W/m² 4,9 °C 12,4 °C 6,4 km/h (2 Bft)
23.04.2019 07:50 12,6 °C 57 % 996,4 hPa 0,0 mm 0,7 km/h (0 Bft) O-NO 76 ° 0 min 0,000 mm 0,0 UV-I 47 W/m² 4,3 °C 12,6 °C 4,8 km/h (1 Bft)
23.04.2019 07:51 12,7 °C 55 % 996,3 hPa 0,0 mm 0,3 km/h (0 Bft) NO 51 ° 0 min 0,000 mm 0,0 UV-I 47 W/m² 3,9 °C 12,7 °C 1,6 km/h (1 Bft)
23.04.2019 07:52 12,8 °C 56 % 996,4 hPa 0,0 mm 4,8 km/h (1 Bft) O-NO 68 ° 0 min 0,000 mm 0,0 UV-I 47 W/m² 4,2 °C 12,8 °C 12,9 km/h (3 Bft)
23.04.2019 07:53 13,0 °C 53 % 996,3 hPa 0,0 mm 0,2 km/h (0 Bft) O-NO 69 ° 0 min 0,000 mm 0,0 UV-I 47 W/m² 3,6 °C 13,0 °C 1,6 km/h (1 Bft)
23.04.2019 07:54 13,1 °C 55 % 996,4 hPa 0,0 mm 0,0 km/h (0 Bft) O-NO 69 ° 0 min 0,000 mm 0,0 UV-I 47 W/m² 4,3 °C 13,1 °C 0,0 km/h (0 Bft)
23.04.2019 07:55 13,2 °C 54 % 996,4 hPa 0,0 mm 0,3 km/h (0 Bft) O-NO 69 ° 0 min 0,000 mm 0,0 UV-I 47 W/m² 4,1 °C 13,2 °C 1,6 km/h (1 Bft)
23.04.2019 07:56 13,2 °C 55 % 996,5 hPa 0,0 mm 0,0 km/h (0 Bft) O-NO 69 ° 0 min 0,000 mm 0,0 UV-I 47 W/m² 4,4 °C 13,2 °C 0,0 km/h (0 Bft)
23.04.2019 07:57 13,2 °C 53 % 996,4 hPa 0,0 mm 0,1 km/h (0 Bft) O-NO 69 ° 0 min 0,000 mm 0,0 UV-I 49 W/m² 3,8 °C 13,2 °C 1,6 km/h (1 Bft)
23.04.2019 07:58 13,3 °C 51 % 996,4 hPa 0,0 mm 0,0 km/h (0 Bft) O-NO 69 ° 0 min 0,000 mm 0,0 UV-I 49 W/m² 3,4 °C 13,3 °C 0,0 km/h (0 Bft)
23.04.2019 07:59 13,4 °C 50 % 996,4 hPa 0,0 mm 0,0 km/h (0 Bft) O-NO 69 ° 0 min 0,000 mm 0,0 UV-I 49 W/m² 3,2 °C 13,4 °C 0,0 km/h (0 Bft)
23.04.2019 08:00 13,6 °C 51 % 996,5 hPa 0,0 mm 1,6 km/h (1 Bft) N 5 ° 0 min 0,000 mm 0,0 UV-I 51 W/m² 3,7 °C 13,6 °C 4,8 km/h (1 Bft)
23.04.2019 08:01 13,6 °C 54 % 996,4 hPa 0,0 mm 0,8 km/h (0 Bft) NW 324 ° 0 min 0,025 mm 0,0 UV-I 51 W/m² 4,5 °C 13,6 °C 6,4 km/h (2 Bft)
23.04.2019 08:02 13,6 °C 55 % 996,5 hPa 0,0 mm 2,3 km/h (1 Bft) NW 317 ° 0 min 0,000 mm 0,0 UV-I 51 W/m² 4,7 °C 13,6 °C 4,8 km/h (1 Bft)
23.04.2019 08:03 13,6 °C 53 % 996,5 hPa 0,0 mm 0,0 km/h (0 Bft) NW 318 ° 0 min 0,000 mm 0,0 UV-I 53 W/m² 4,2 °C 13,6 °C 0,0 km/h (0 Bft)
23.04.2019 08:04 13,5 °C 53 % 996,5 hPa 0,0 mm 0,0 km/h (0 Bft) NW 318 ° 0 min 0,000 mm 0,0 UV-I 53 W/m² 4,1 °C 13,5 °C 0,0 km/h (0 Bft)
23.04.2019 08:05 13,6 °C 53 % 996,6 hPa 0,0 mm 1,1 km/h (1 Bft) NW 318 ° 0 min 0,000 mm 0,0 UV-I 53 W/m² 4,2 °C 13,6 °C 3,2 km/h (1 Bft)
23.04.2019 08:06 13,5 °C 55 % 996,5 hPa 0,0 mm 0,0 km/h (0 Bft) NW 318 ° 0 min 0,000 mm 0,0 UV-I 51 W/m² 4,6 °C 13,5 °C 0,0 km/h (0 Bft)
23.04.2019 08:07 13,4 °C 60 % 996,6 hPa 0,0 mm 0,0 km/h (0 Bft) NW 318 ° 0 min 0,000 mm 0,0 UV-I 51 W/m² 5,8 °C 13,4 °C 0,0 km/h (0 Bft)
23.04.2019 08:08 13,3 °C 58 % 996,6 hPa 0,0 mm 0,0 km/h (0 Bft) NW 318 ° 0 min 0,000 mm 0,0 UV-I 51 W/m² 5,2 °C 13,3 °C 0,0 km/h (0 Bft)
23.04.2019 08:09 13,3 °C 57 % 996,6 hPa 0,0 mm 0,7 km/h (0 Bft) SO 125 ° 0 min 0,000 mm 0,0 UV-I 51 W/m² 5,0 °C 13,3 °C 3,2 km/h (1 Bft)
23.04.2019 08:10 13,3 °C 56 % 996,5 hPa 0,0 mm 0,0 km/h (0 Bft) SO 125 ° 0 min 0,000 mm 0,0 UV-I 53 W/m² 4,7 °C 13,3 °C 0,0 km/h (0 Bft)
23.04.2019 08:11 13,3 °C 53 % 996,6 hPa 0,0 mm 0,5 km/h (0 Bft) SO 125 ° 0 min 0,000 mm 0,0 UV-I 53 W/m² 3,9 °C 13,3 °C 1,6 km/h (1 Bft)
23.04.2019 08:12 13,4 °C 55 % 996,5 hPa 0,0 mm 0,0 km/h (0 Bft) SO 125 ° 0 min 0,000 mm 0,0 UV-I 54 W/m² 4,5 °C 13,4 °C 0,0 km/h (0 Bft)
23.04.2019 08:13 13,4 °C 54 % 996,6 hPa 0,0 mm 0,3 km/h (0 Bft) SO 124 ° 0 min 0,000 mm 0,0 UV-I 54 W/m² 4,3 °C 13,4 °C 1,6 km/h (1 Bft)
23.04.2019 08:14 13,4 °C 53 % 996,5 hPa 0,0 mm 0,3 km/h (0 Bft) N-NW 345 ° 0 min 0,000 mm 0,0 UV-I 56 W/m² 4,0 °C 13,4 °C 3,2 km/h (1 Bft)
23.04.2019 08:15 13,6 °C 53 % 996,5 hPa 0,0 mm 0,9 km/h (0 Bft) N-NW 344 ° 0 min 0,000 mm 0,0 UV-I 58 W/m² 4,2 °C 13,6 °C 3,2 km/h (1 Bft)
23.04.2019 08:16 13,7 °C 53 % 996,5 hPa 0,0 mm 0,5 km/h (0 Bft) N-NW 344 ° 0 min 0,000 mm 0,0 UV-I 60 W/m² 4,3 °C 13,7 °C 1,6 km/h (1 Bft)
23.04.2019 08:17 13,7 °C 53 % 996,5 hPa 0,0 mm 0,2 km/h (0 Bft) O-SO 109 ° 0 min 0,000 mm 0,0 UV-I 62 W/m² 4,3 °C 13,7 °C 1,6 km/h (1 Bft)
23.04.2019 08:18 13,7 °C 53 % 996,5 hPa 0,0 mm 0,0 km/h (0 Bft) O-SO 109 ° 0 min 0,000 mm 0,0 UV-I 62 W/m² 4,3 °C 13,7 °C 0,0 km/h (0 Bft)
23.04.2019 08:19 13,8 °C 50 % 996,5 hPa 0,0 mm 0,0 km/h (0 Bft) O-SO 109 ° 0 min 0,000 mm 0,0 UV-I 62 W/m² 3,6 °C 13,8 °C 0,0 km/h (0 Bft)
23.04.2019 08:20 13,7 °C 58 % 996,5 hPa 0,0 mm 0,0 km/h (0 Bft) O-SO 109 ° 0 min 0,000 mm 0,0 UV-I 62 W/m² 5,6 °C 13,7 °C 0,0 km/h (0 Bft)
23.04.2019 08:21 13,7 °C 54 % 996,6 hPa 0,0 mm 0,0 km/h (0 Bft) O-SO 109 ° 0 min 0,000 mm 0,0 UV-I 63 W/m² 4,6 °C 13,7 °C 0,0 km/h (0 Bft)
23.04.2019 08:22 13,7 °C 55 % 996,5 hPa 0,0 mm 0,1 km/h (0 Bft) O-SO 108 ° 0 min 0,000 mm 0,0 UV-I 65 W/m² 4,8 °C 13,7 °C 1,6 km/h (1 Bft)
23.04.2019 08:23 13,7 °C 55 % 996,6 hPa 0,0 mm 0,0 km/h (0 Bft) O-SO 108 ° 0 min 0,000 mm 0,0 UV-I 65 W/m² 4,8 °C 13,7 °C 0,0 km/h (0 Bft)
23.04.2019 08:24 13,6 °C 56 % 996,5 hPa 0,0 mm 0,0 km/h (0 Bft) O-SO 108 ° 0 min 0,000 mm 0,0 UV-I 67 W/m² 5,0 °C 13,6 °C 0,0 km/h (0 Bft)
23.04.2019 08:25 13,5 °C 59 % 996,6 hPa 0,0 mm 1,3 km/h (1 Bft) SO 137 ° 0 min 0,000 mm 0,0 UV-I 67 W/m² 5,6 °C 13,5 °C 6,4 km/h (2 Bft)
23.04.2019 08:26 13,5 °C 59 % 996,6 hPa 0,0 mm 2,0 km/h (1 Bft) O-NO 59 ° 0 min 0,000 mm 0,0 UV-I 69 W/m² 5,6 °C 13,5 °C 4,8 km/h (1 Bft)
23.04.2019 08:27 13,8 °C 48 % 996,5 hPa 0,0 mm 2,6 km/h (1 Bft) O-NO 59 ° 0 min 0,000 mm 0,0 UV-I 72 W/m² 3,0 °C 13,8 °C 3,2 km/h (1 Bft)
23.04.2019 08:28 14,1 °C 47 % 996,5 hPa 0,0 mm 0,0 km/h (0 Bft) O-NO 59 ° 0 min 0,000 mm 0,0 UV-I 74 W/m² 3,0 °C 14,1 °C 0,0 km/h (0 Bft)
23.04.2019 08:29 14,3 °C 48 % 996,5 hPa 0,0 mm 0,0 km/h (0 Bft) O-NO 59 ° 0 min 0,000 mm 0,0 UV-I 76 W/m² 3,4 °C 14,3 °C 0,0 km/h (0 Bft)
23.04.2019 08:30 14,4 °C 49 % 996,5 hPa 0,0 mm 0,4 km/h (0 Bft) O-NO 61 ° 0 min 0,000 mm 0,0 UV-I 79 W/m² 3,8 °C 14,4 °C 1,6 km/h (1 Bft)
23.04.2019 08:31 14,3 °C 52 % 996,5 hPa 0,0 mm 0,0 km/h (0 Bft) O-NO 61 ° 0 min 0,000 mm 0,0 UV-I 83 W/m² 4,6 °C 14,3 °C 0,0 km/h (0 Bft)
23.04.2019 08:32 14,3 °C 48 % 996,5 hPa 0,0 mm 0,0 km/h (0 Bft) O-NO 61 ° 0 min 0,000 mm 0,0 UV-I 86 W/m² 3,4 °C 14,3 °C 0,0 km/h (0 Bft)
23.04.2019 08:33 14,4 °C 49 % 996,5 hPa 0,0 mm 0,0 km/h (0 Bft) O-NO 61 ° 0 min 0,000 mm 0,5 UV-I 90 W/m² 3,8 °C 14,4 °C 0,0 km/h (0 Bft)
23.04.2019 08:34 14,4 °C 46 % 996,6 hPa 0,0 mm 1,0 km/h (0 Bft) O-NO 61 ° 0 min 0,000 mm 0,5 UV-I 98 W/m² 2,9 °C 14,4 °C 3,2 km/h (1 Bft)
23.04.2019 08:35 14,6 °C 47 % 996,6 hPa 0,0 mm 0,0 km/h (0 Bft) O-NO 61 ° 0 min 0,000 mm 0,5 UV-I 104 W/m² 3,4 °C 14,6 °C 0,0 km/h (0 Bft)
23.04.2019 08:36 14,6 °C 52 % 996,6 hPa 0,0 mm 0,0 km/h (0 Bft) O-NO 61 ° 0 min 0,000 mm 0,5 UV-I 109 W/m² 4,9 °C 14,6 °C 0,0 km/h (0 Bft)
23.04.2019 08:37 14,3 °C 57 % 996,6 hPa 0,0 mm 0,6 km/h (0 Bft) O-NO 61 ° 0 min 0,000 mm 0,6 UV-I 116 W/m² 5,9 °C 14,3 °C 1,6 km/h (1 Bft)
23.04.2019 08:38 14,1 °C 56 % 996,6 hPa 0,0 mm 0,0 km/h (0 Bft) O-NO 61 ° 0 min 0,000 mm 0,6 UV-I 121 W/m² 5,5 °C 14,1 °C 0,0 km/h (0 Bft)
23.04.2019 08:39 13,8 °C 59 % 996,5 hPa 0,0 mm 0,0 km/h (0 Bft) O-NO 61 ° 0 min 0,000 mm 0,6 UV-I 132 W/m² 5,9 °C 13,8 °C 0,0 km/h (0 Bft)
23.04.2019 08:40 13,6 °C 60 % 996,5 hPa 0,0 mm 0,0 km/h (0 Bft) O-NO 61 ° 0 min 0,000 mm 0,6 UV-I 139 W/m² 6,0 °C 13,6 °C 0,0 km/h (0 Bft)
23.04.2019 08:41 13,3 °C 60 % 996,5 hPa 0,0 mm 0,0 km/h (0 Bft) O-NO 61 ° 0 min 0,000 mm 0,7 UV-I 142 W/m² 5,7 °C 13,3 °C 0,0 km/h (0 Bft)
23.04.2019 08:42 13,1 °C 64 % 996,5 hPa 0,0 mm 0,0 km/h (0 Bft) O-NO 61 ° 0 min 0,000 mm 0,7 UV-I 146 W/m² 6,4 °C 13,1 °C 0,0 km/h (0 Bft)
23.04.2019 08:43 12,9 °C 65 % 996,5 hPa 0,0 mm 0,0 km/h (0 Bft) O-NO 61 ° 0 min 0,000 mm 0,7 UV-I 149 W/m² 6,5 °C 12,9 °C 0,0 km/h (0 Bft)
23.04.2019 08:44 12,7 °C 66 % 996,5 hPa 0,0 mm 0,0 km/h (0 Bft) O-NO 61 ° 0 min 0,000 mm 0,7 UV-I 153 W/m² 6,5 °C 12,7 °C 0,0 km/h (0 Bft)
23.04.2019 08:45 12,5 °C 67 % 996,5 hPa 0,0 mm 0,0 km/h (0 Bft) O-NO 61 ° 0 min 0,000 mm 0,7 UV-I 158 W/m² 6,5 °C 12,5 °C 0,0 km/h (0 Bft)
23.04.2019 08:46 12,3 °C 68 % 996,5 hPa 0,0 mm 0,8 km/h (0 Bft) O-NO 61 ° 0 min 0,000 mm 0,8 UV-I 162 W/m² 6,6 °C 12,3 °C 3,2 km/h (1 Bft)
23.04.2019 08:47 12,3 °C 67 % 996,5 hPa 0,0 mm 0,1 km/h (0 Bft) O-NO 61 ° 0 min 0,000 mm 0,8 UV-I 165 W/m² 6,4 °C 12,3 °C 1,6 km/h (1 Bft)
23.04.2019 08:48 12,2 °C 67 % 996,5 hPa 0,0 mm 0,0 km/h (0 Bft) O-NO 61 ° 0 min 0,000 mm 0,8 UV-I 169 W/m² 6,3 °C 12,2 °C 0,0 km/h (0 Bft)
23.04.2019 08:49 12,2 °C 67 % 996,5 hPa 0,0 mm 0,0 km/h (0 Bft) O-NO 61 ° 0 min 0,000 mm 0,8 UV-I 171 W/m² 6,3 °C 12,2 °C 0,0 km/h (0 Bft)
23.04.2019 08:50 12,3 °C 67 % 996,5 hPa 0,0 mm 0,4 km/h (0 Bft) O-NO 61 ° 0 min 0,000 mm 0,8 UV-I 174 W/m² 6,4 °C 12,3 °C 1,6 km/h (1 Bft)
23.04.2019 08:51 12,3 °C 69 % 996,5 hPa 0,0 mm 1,7 km/h (1 Bft) O-NO 61 ° 0 min 0,000 mm 0,9 UV-I 178 W/m² 6,8 °C 12,3 °C 3,2 km/h (1 Bft)
23.04.2019 08:52 12,4 °C 69 % 996,5 hPa 0,0 mm 1,3 km/h (1 Bft) O-NO 61 ° 0 min 0,000 mm 0,9 UV-I 178 W/m² 6,9 °C 12,4 °C 3,2 km/h (1 Bft)
23.04.2019 08:53 12,5 °C 70 % 996,5 hPa 0,0 mm 0,0 km/h (0 Bft) O-NO 61 ° 0 min 0,000 mm 0,9 UV-I 178 W/m² 7,2 °C 12,5 °C 0,0 km/h (0 Bft)
23.04.2019 08:54 12,6 °C 69 % 996,5 hPa 0,0 mm 0,0 km/h (0 Bft) O-NO 61 ° 0 min 0,000 mm 0,9 UV-I 179 W/m² 7,1 °C 12,6 °C 0,0 km/h (0 Bft)
23.04.2019 08:55 12,7 °C 69 % 996,4 hPa 0,0 mm 0,0 km/h (0 Bft) O-NO 61 ° 0 min 0,000 mm 0,9 UV-I 179 W/m² 7,2 °C 12,7 °C 0,0 km/h (0 Bft)
23.04.2019 08:56 12,7 °C 70 % 996,5 hPa 0,0 mm 0,0 km/h (0 Bft) O-NO 61 ° 0 min 0,000 mm 0,9 UV-I 179 W/m² 7,4 °C 12,7 °C 0,0 km/h (0 Bft)
23.04.2019 08:57 12,8 °C 70 % 996,5 hPa 0,0 mm 0,0 km/h (0 Bft) O-NO 61 ° 0 min 0,000 mm 0,9 UV-I 178 W/m² 7,5 °C 12,8 °C 0,0 km/h (0 Bft)
23.04.2019 08:58 12,8 °C 70 % 996,4 hPa 0,0 mm 0,0 km/h (0 Bft) O-NO 61 ° 0 min 0,000 mm 0,9 UV-I 176 W/m² 7,5 °C 12,8 °C 0,0 km/h (0 Bft)
23.04.2019 08:59 12,9 °C 70 % 996,5 hPa 0,0 mm 0,1 km/h (0 Bft) O-NO 61 ° 0 min 0,000 mm 0,9 UV-I 178 W/m² 7,6 °C 12,9 °C 1,6 km/h (1 Bft)
23.04.2019 09:00 13,1 °C 69 % 996,4 hPa 0,0 mm 1,5 km/h (1 Bft) O-NO 61 ° 0 min 0,000 mm 0,9 UV-I 178 W/m² 7,5 °C 13,1 °C 3,2 km/h (1 Bft)
23.04.2019 09:01 13,2 °C 71 % 996,4 hPa 0,0 mm 0,0 km/h (0 Bft) O-NO 61 ° 0 min 0,051 mm 0,9 UV-I 179 W/m² 8,1 °C 13,2 °C 0,0 km/h (0 Bft)
23.04.2019 09:02 13,4 °C 70 % 996,4 hPa 0,0 mm 0,8 km/h (0 Bft) O-NO 61 ° 0 min 0,000 mm 0,9 UV-I 181 W/m² 8,0 °C 13,4 °C 3,2 km/h (1 Bft)
23.04.2019 09:03 13,4 °C 68 % 996,5 hPa 0,0 mm 5,0 km/h (1 Bft) W-NW 299 ° 0 min 0,000 mm 0,9 UV-I 178 W/m² 7,6 °C 13,4 °C 8,0 km/h (2 Bft)
23.04.2019 09:04 13,4 °C 66 % 996,5 hPa 0,0 mm 7,0 km/h (2 Bft) W-NW 295 ° 0 min 0,000 mm 0,9 UV-I 174 W/m² 7,2 °C 13,4 °C 12,9 km/h (3 Bft)
23.04.2019 09:05 13,3 °C 65 % 996,6 hPa 0,0 mm 6,3 km/h (2 Bft) W 259 ° 0 min 0,000 mm 0,9 UV-I 176 W/m² 6,9 °C 13,3 °C 9,7 km/h (2 Bft)
23.04.2019 09:06 13,2 °C 64 % 996,5 hPa 0,0 mm 6,2 km/h (2 Bft) W 281 ° 0 min 0,000 mm 0,9 UV-I 174 W/m² 6,5 °C 13,2 °C 9,7 km/h (2 Bft)
23.04.2019 09:07 13,0 °C 63 % 996,5 hPa 0,0 mm 1,7 km/h (1 Bft) W 278 ° 0 min 0,000 mm 0,9 UV-I 169 W/m² 6,1 °C 13,0 °C 3,2 km/h (1 Bft)
23.04.2019 09:08 12,9 °C 62 % 996,6 hPa 0,0 mm 0,0 km/h (0 Bft) W 278 ° 0 min 0,000 mm 0,9 UV-I 163 W/m² 5,8 °C 12,9 °C 0,0 km/h (0 Bft)
23.04.2019 09:09 12,8 °C 61 % 996,5 hPa 0,0 mm 0,0 km/h (0 Bft) W 278 ° 0 min 0,000 mm 0,9 UV-I 155 W/m² 5,5 °C 12,8 °C 0,0 km/h (0 Bft)
23.04.2019 09:10 12,8 °C 60 % 996,6 hPa 0,0 mm 0,0 km/h (0 Bft) W 278 ° 0 min 0,000 mm 0,9 UV-I 155 W/m² 5,2 °C 12,8 °C 0,0 km/h (0 Bft)
23.04.2019 09:11 12,8 °C 62 % 996,6 hPa 0,0 mm 0,0 km/h (0 Bft) W 278 ° 0 min 0,000 mm 0,9 UV-I 153 W/m² 5,7 °C 12,8 °C 0,0 km/h (0 Bft)
23.04.2019 09:12 12,9 °C 60 % 996,6 hPa 0,0 mm 0,0 km/h (0 Bft) W 278 ° 0 min 0,000 mm 0,9 UV-I 151 W/m² 5,3 °C 12,9 °C 0,0 km/h (0 Bft)
23.04.2019 09:13 12,9 °C 59 % 996,6 hPa 0,0 mm 0,0 km/h (0 Bft) W 278 ° 0 min 0,000 mm 0,9 UV-I 149 W/m² 5,1 °C 12,9 °C 0,0 km/h (0 Bft)
23.04.2019 09:14 13,0 °C 59 % 996,6 hPa 0,0 mm 1,4 km/h (1 Bft) W 281 ° 0 min 0,000 mm 0,9 UV-I 149 W/m² 5,2 °C 13,0 °C 4,8 km/h (1 Bft)
23.04.2019 09:15 13,1 °C 61 % 996,6 hPa 0,0 mm 1,3 km/h (1 Bft) W 281 ° 0 min 0,000 mm 0,9 UV-I 149 W/m² 5,8 °C 13,1 °C 3,2 km/h (1 Bft)
23.04.2019 09:16 13,1 °C 60 % 996,6 hPa 0,0 mm 0,0 km/h (0 Bft) W 280 ° 0 min 0,000 mm 0,9 UV-I 151 W/m² 5,5 °C 13,1 °C 0,0 km/h (0 Bft)
23.04.2019 09:17 13,1 °C 60 % 996,7 hPa 0,0 mm 2,6 km/h (1 Bft) W 281 ° 0 min 0,000 mm 0,9 UV-I 153 W/m² 5,5 °C 13,1 °C 4,8 km/h (1 Bft)
23.04.2019 09:18 13,1 °C 62 % 996,7 hPa 0,0 mm 0,5 km/h (0 Bft) W 281 ° 0 min 0,000 mm 0,9 UV-I 153 W/m² 6,0 °C 13,1 °C 1,6 km/h (1 Bft)
23.04.2019 09:19 13,1 °C 60 % 996,6 hPa 0,0 mm 3,9 km/h (1 Bft) N-NW 331 ° 0 min 0,000 mm 1,0 UV-I 160 W/m² 5,5 °C 13,1 °C 6,4 km/h (2 Bft)
23.04.2019 09:20 13,1 °C 61 % 996,6 hPa 0,0 mm 0,5 km/h (0 Bft) N-NW 331 ° 0 min 0,000 mm 1,0 UV-I 172 W/m² 5,8 °C 13,1 °C 3,2 km/h (1 Bft)
23.04.2019 09:21 13,1 °C 59 % 996,7 hPa 0,0 mm 0,1 km/h (0 Bft) N-NW 331 ° 0 min 0,000 mm 1,1 UV-I 172 W/m² 5,3 °C 13,1 °C 1,6 km/h (1 Bft)
23.04.2019 09:22 13,1 °C 59 % 996,6 hPa 0,0 mm 0,0 km/h (0 Bft) N-NW 331 ° 0 min 0,000 mm 1,1 UV-I 179 W/m² 5,3 °C 13,1 °C 0,0 km/h (0 Bft)
23.04.2019 09:23 13,2 °C 58 % 996,6 hPa 0,0 mm 0,8 km/h (0 Bft) N-NW 331 ° 0 min 0,000 mm 1,1 UV-I 179 W/m² 5,1 °C 13,2 °C 1,6 km/h (1 Bft)
23.04.2019 09:24 13,2 °C 57 % 996,7 hPa 0,0 mm 0,3 km/h (0 Bft) N-NW 331 ° 0 min 0,000 mm 1,2 UV-I 188 W/m² 4,9 °C 13,2 °C 1,6 km/h (1 Bft)
23.04.2019 09:25 13,2 °C 57 % 996,6 hPa 0,0 mm 0,0 km/h (0 Bft) N-NW 331 ° 0 min 0,000 mm 1,2 UV-I 193 W/m² 4,9 °C 13,2 °C 0,0 km/h (0 Bft)
23.04.2019 09:26 13,2 °C 56 % 996,6 hPa 0,0 mm 0,0 km/h (0 Bft) N-NW 331 ° 0 min 0,000 mm 1,2 UV-I 204 W/m² 4,6 °C 13,2 °C 0,0 km/h (0 Bft)
23.04.2019 09:27 13,3 °C 56 % 996,6 hPa 0,0 mm 0,0 km/h (0 Bft) N-NW 331 ° 0 min 0,000 mm 1,3 UV-I 207 W/m² 4,7 °C 13,3 °C 0,0 km/h (0 Bft)
23.04.2019 09:28 13,3 °C 58 % 996,6 hPa 0,0 mm 0,0 km/h (0 Bft) N-NW 331 ° 0 min 0,000 mm 1,3 UV-I 209 W/m² 5,2 °C 13,3 °C 0,0 km/h (0 Bft)
23.04.2019 09:29 13,3 °C 56 % 996,7 hPa 0,0 mm 0,6 km/h (0 Bft) N-NW 331 ° 0 min 0,000 mm 1,3 UV-I 209 W/m² 4,7 °C 13,3 °C 3,2 km/h (1 Bft)
23.04.2019 09:30 13,4 °C 57 % 996,7 hPa 0,0 mm 0,0 km/h (0 Bft) N-NW 331 ° 0 min 0,000 mm 1,3 UV-I 207 W/m² 5,1 °C 13,4 °C 0,0 km/h (0 Bft)
23.04.2019 09:31 13,4 °C 55 % 996,5 hPa 0,0 mm 0,0 km/h (0 Bft) N-NW 331 ° 0 min 0,000 mm 1,3 UV-I 206 W/m² 4,5 °C 13,4 °C 0,0 km/h (0 Bft)
23.04.2019 09:32 13,5 °C 57 % 996,6 hPa 0,0 mm 0,0 km/h (0 Bft) N-NW 331 ° 0 min 0,000 mm 1,3 UV-I 195 W/m² 5,2 °C 13,5 °C 0,0 km/h (0 Bft)
23.04.2019 09:33 13,6 °C 57 % 996,5 hPa 0,0 mm 0,0 km/h (0 Bft) N-NW 331 ° 0 min 0,000 mm 1,3 UV-I 192 W/m² 5,2 °C 13,6 °C 0,0 km/h (0 Bft)
23.04.2019 09:34 13,6 °C 56 % 996,5 hPa 0,0 mm 0,0 km/h (0 Bft) N-NW 331 ° 0 min 0,000 mm 1,3 UV-I 193 W/m² 5,0 °C 13,6 °C 0,0 km/h (0 Bft)
23.04.2019 09:35 13,6 °C 56 % 996,6 hPa 0,0 mm 0,0 km/h (0 Bft) N-NW 331 ° 0 min 0,000 mm 1,3 UV-I 193 W/m² 5,0 °C 13,6 °C 0,0 km/h (0 Bft)
23.04.2019 09:36 13,6 °C 54 % 996,6 hPa 0,0 mm 0,0 km/h (0 Bft) N-NW 331 ° 0 min 0,000 mm 1,3 UV-I 197 W/m² 4,5 °C 13,6 °C 0,0 km/h (0 Bft)
23.04.2019 09:37 13,7 °C 55 % 996,5 hPa 0,0 mm 0,0 km/h (0 Bft) N-NW 331 ° 0 min 0,000 mm 1,3 UV-I 200 W/m² 4,8 °C 13,7 °C 0,0 km/h (0 Bft)
23.04.2019 09:38 13,7 °C 53 % 996,5 hPa 0,0 mm 0,0 km/h (0 Bft) N-NW 331 ° 0 min 0,000 mm 1,3 UV-I 207 W/m² 4,3 °C 13,7 °C 0,0 km/h (0 Bft)
23.04.2019 09:39 13,7 °C 53 % 996,5 hPa 0,0 mm 0,0 km/h (0 Bft) N-NW 331 ° 0 min 0,000 mm 1,3 UV-I 213 W/m² 4,3 °C 13,7 °C 0,0 km/h (0 Bft)
23.04.2019 09:40 13,7 °C 51 % 996,5 hPa 0,0 mm 0,0 km/h (0 Bft) N-NW 331 ° 0 min 0,000 mm 1,4 UV-I 216 W/m² 3,8 °C 13,7 °C 0,0 km/h (0 Bft)
23.04.2019 09:41 13,7 °C 53 % 996,5 hPa 0,0 mm 0,1 km/h (0 Bft) N-NW 331 ° 0 min 0,000 mm 1,4 UV-I 220 W/m² 4,3 °C 13,7 °C 1,6 km/h (1 Bft)
23.04.2019 09:42 13,8 °C 55 % 996,5 hPa 0,0 mm 0,0 km/h (0 Bft) N-NW 332 ° 0 min 0,000 mm 1,4 UV-I 221 W/m² 4,9 °C 13,8 °C 0,0 km/h (0 Bft)
23.04.2019 09:43 13,8 °C 53 % 996,5 hPa 0,0 mm 0,0 km/h (0 Bft) N-NW 332 ° 0 min 0,000 mm 1,4 UV-I 223 W/m² 4,4 °C 13,8 °C 0,0 km/h (0 Bft)
23.04.2019 09:44 13,8 °C 53 % 996,5 hPa 0,0 mm 0,0 km/h (0 Bft) N-NW 332 ° 0 min 0,000 mm 1,4 UV-I 229 W/m² 4,4 °C 13,8 °C 0,0 km/h (0 Bft)
23.04.2019 09:45 13,9 °C 53 % 996,4 hPa 0,0 mm 0,0 km/h (0 Bft) N-NW 332 ° 0 min 0,000 mm 1,4 UV-I 234 W/m² 4,5 °C 13,9 °C 0,0 km/h (0 Bft)
23.04.2019 09:46 14,0 °C 53 % 996,4 hPa 0,0 mm 0,1 km/h (0 Bft) N-NW 331 ° 0 min 0,000 mm 1,4 UV-I 237 W/m² 4,6 °C 14,0 °C 1,6 km/h (1 Bft)
23.04.2019 09:47 14,1 °C 52 % 996,4 hPa 0,0 mm 0,0 km/h (0 Bft) N-NW 331 ° 0 min 0,000 mm 1,4 UV-I 239 W/m² 4,4 °C 14,1 °C 0,0 km/h (0 Bft)
23.04.2019 09:48 14,1 °C 51 % 996,4 hPa 0,0 mm 0,0 km/h (0 Bft) N-NW 331 ° 0 min 0,000 mm 1,5 UV-I 244 W/m² 4,1 °C 14,1 °C 0,0 km/h (0 Bft)
23.04.2019 09:49 14,1 °C 52 % 996,4 hPa 0,0 mm 0,7 km/h (0 Bft) NW 320 ° 0 min 0,000 mm 1,5 UV-I 257 W/m² 4,4 °C 14,1 °C 3,2 km/h (1 Bft)
23.04.2019 09:50 14,1 °C 55 % 996,5 hPa 0,0 mm 2,1 km/h (1 Bft) NW 320 ° 0 min 0,000 mm 1,5 UV-I 262 W/m² 5,2 °C 14,1 °C 3,2 km/h (1 Bft)
23.04.2019 09:51 14,2 °C 54 % 996,5 hPa 0,0 mm 0,5 km/h (0 Bft) NW 320 ° 0 min 0,000 mm 1,6 UV-I 269 W/m² 5,0 °C 14,2 °C 3,2 km/h (1 Bft)
23.04.2019 09:52 14,2 °C 58 % 996,5 hPa 0,0 mm 0,8 km/h (0 Bft) NW 320 ° 0 min 0,000 mm 1,6 UV-I 276 W/m² 6,1 °C 14,2 °C 3,2 km/h (1 Bft)
23.04.2019 09:53 14,2 °C 55 % 996,5 hPa 0,0 mm 1,1 km/h (1 Bft) NW 320 ° 0 min 0,000 mm 1,6 UV-I 285 W/m² 5,3 °C 14,2 °C 3,2 km/h (1 Bft)
23.04.2019 09:54 14,2 °C 54 % 996,5 hPa 0,0 mm 1,4 km/h (1 Bft) NW 319 ° 0 min 0,000 mm 1,7 UV-I 290 W/m² 5,0 °C 14,2 °C 3,2 km/h (1 Bft)
23.04.2019 09:55 14,3 °C 57 % 996,4 hPa 0,0 mm 3,2 km/h (1 Bft) NW 319 ° 0 min 0,000 mm 1,7 UV-I 299 W/m² 5,9 °C 14,3 °C 4,8 km/h (1 Bft)
23.04.2019 09:56 14,4 °C 56 % 996,4 hPa 0,0 mm 2,2 km/h (1 Bft) NW 319 ° 0 min 0,000 mm 1,7 UV-I 304 W/m² 5,7 °C 14,4 °C 4,8 km/h (1 Bft)
23.04.2019 09:57 14,4 °C 55 % 996,4 hPa 0,0 mm 0,5 km/h (0 Bft) NW 319 ° 0 min 0,000 mm 1,8 UV-I 308 W/m² 5,5 °C 14,4 °C 3,2 km/h (1 Bft)
23.04.2019 09:58 14,4 °C 57 % 996,4 hPa 0,0 mm 1,1 km/h (1 Bft) NW 319 ° 0 min 0,000 mm 1,8 UV-I 309 W/m² 6,0 °C 14,4 °C 1,6 km/h (1 Bft)
23.04.2019 09:59 14,5 °C 55 % 996,4 hPa 0,0 mm 1,0 km/h (0 Bft) NW 319 ° 0 min 0,000 mm 1,8 UV-I 309 W/m² 5,6 °C 14,5 °C 3,2 km/h (1 Bft)
23.04.2019 10:00 14,6 °C 54 % 996,4 hPa 0,0 mm 0,1 km/h (0 Bft) NW 319 ° 0 min 0,000 mm 1,9 UV-I 323 W/m² 5,4 °C 14,6 °C 1,6 km/h (1 Bft)
23.04.2019 10:01 14,6 °C 58 % 996,4 hPa 0,0 mm 1,7 km/h (1 Bft) NW 319 ° 0 min 0,127 mm 1,9 UV-I 330 W/m² 6,4 °C 14,6 °C 3,2 km/h (1 Bft)
23.04.2019 10:02 14,7 °C 55 % 996,4 hPa 0,0 mm 1,5 km/h (1 Bft) NW 319 ° 0 min 0,000 mm 1,9 UV-I 322 W/m² 5,8 °C 14,7 °C 3,2 km/h (1 Bft)
23.04.2019 10:03 14,8 °C 56 % 996,3 hPa 0,0 mm 2,6 km/h (1 Bft) W-NW 286 ° 0 min 0,000 mm 1,9 UV-I 315 W/m² 6,1 °C 14,8 °C 4,8 km/h (1 Bft)
23.04.2019 10:04 14,8 °C 55 % 996,3 hPa 0,0 mm 3,4 km/h (1 Bft) W-NW 286 ° 0 min 0,000 mm 1,8 UV-I 309 W/m² 5,8 °C 14,8 °C 4,8 km/h (1 Bft)
23.04.2019 10:05 14,9 °C 55 % 996,3 hPa 0,0 mm 2,6 km/h (1 Bft) W-NW 292 ° 0 min 0,000 mm 1,8 UV-I 292 W/m² 5,9 °C 14,9 °C 4,8 km/h (1 Bft)
23.04.2019 10:06 14,9 °C 56 % 996,4 hPa 0,0 mm 2,8 km/h (1 Bft) W 280 ° 0 min 0,000 mm 1,8 UV-I 283 W/m² 6,2 °C 14,9 °C 4,8 km/h (1 Bft)
23.04.2019 10:07 15,1 °C 59 % 996,4 hPa 0,0 mm 2,6 km/h (1 Bft) W 278 ° 0 min 0,000 mm 1,7 UV-I 260 W/m² 7,1 °C 15,1 °C 4,8 km/h (1 Bft)
23.04.2019 10:08 15,2 °C 56 % 996,4 hPa 0,0 mm 3,2 km/h (1 Bft) W 277 ° 0 min 0,000 mm 1,7 UV-I 251 W/m² 6,5 °C 15,2 °C 6,4 km/h (2 Bft)
23.04.2019 10:09 15,3 °C 55 % 996,3 hPa 0,0 mm 0,7 km/h (0 Bft) W 277 ° 0 min 0,000 mm 1,7 UV-I 246 W/m² 6,3 °C 15,3 °C 3,2 km/h (1 Bft)
23.04.2019 10:10 15,4 °C 55 % 996,3 hPa 0,0 mm 0,0 km/h (0 Bft) W 277 ° 0 min 0,000 mm 1,6 UV-I 244 W/m² 6,4 °C 15,4 °C 0,0 km/h (0 Bft)
23.04.2019 10:11 15,5 °C 57 % 996,3 hPa 0,0 mm 0,0 km/h (0 Bft) W 277 ° 0 min 0,000 mm 1,6 UV-I 234 W/m² 7,0 °C 15,5 °C 0,0 km/h (0 Bft)
23.04.2019 10:12 15,6 °C 52 % 996,3 hPa 0,0 mm 3,5 km/h (1 Bft) W-SW 237 ° 0 min 0,000 mm 1,5 UV-I 221 W/m² 5,8 °C 15,6 °C 6,4 km/h (2 Bft)
23.04.2019 10:13 15,7 °C 55 % 996,3 hPa 0,0 mm 1,1 km/h (1 Bft) S-SW 199 ° 0 min 0,000 mm 1,5 UV-I 199 W/m² 6,7 °C 15,7 °C 6,4 km/h (2 Bft)
23.04.2019 10:14 15,7 °C 57 % 996,3 hPa 0,0 mm 3,1 km/h (1 Bft) O-NO 72 ° 0 min 0,000 mm 1,4 UV-I 190 W/m² 7,2 °C 15,7 °C 6,4 km/h (2 Bft)
23.04.2019 10:15 15,7 °C 61 % 996,3 hPa 0,0 mm 1,5 km/h (1 Bft) O-NO 72 ° 0 min 0,000 mm 1,3 UV-I 183 W/m² 8,2 °C 15,7 °C 3,2 km/h (1 Bft)
23.04.2019 10:16 15,7 °C 56 % 996,3 hPa 0,0 mm 0,8 km/h (0 Bft) O-NO 72 ° 0 min 0,000 mm 1,3 UV-I 178 W/m² 6,9 °C 15,7 °C 3,2 km/h (1 Bft)
23.04.2019 10:17 15,7 °C 54 % 996,3 hPa 0,0 mm 2,3 km/h (1 Bft) N 350 ° 0 min 0,000 mm 1,3 UV-I 174 W/m² 6,4 °C 15,7 °C 6,4 km/h (2 Bft)
23.04.2019 10:18 15,8 °C 52 % 996,3 hPa 0,0 mm 0,8 km/h (0 Bft) N 360 ° 0 min 0,000 mm 1,2 UV-I 169 W/m² 6,0 °C 15,8 °C 6,4 km/h (2 Bft)
23.04.2019 10:19 15,9 °C 51 % 996,3 hPa 0,0 mm 2,1 km/h (1 Bft) N-NW 346 ° 0 min 0,000 mm 1,2 UV-I 167 W/m² 5,8 °C 15,9 °C 4,8 km/h (1 Bft)
23.04.2019 10:20 16,0 °C 52 % 996,3 hPa 0,0 mm 0,0 km/h (0 Bft) N-NW 346 ° 0 min 0,000 mm 1,2 UV-I 167 W/m² 6,2 °C 16,0 °C 0,0 km/h (0 Bft)
23.04.2019 10:21 16,2 °C 48 % 996,4 hPa 0,0 mm 1,4 km/h (1 Bft) SO 124 ° 0 min 0,000 mm 1,2 UV-I 171 W/m² 5,2 °C 16,2 °C 4,8 km/h (1 Bft)
23.04.2019 10:22 16,3 °C 48 % 996,3 hPa 0,0 mm 1,0 km/h (0 Bft) NO 49 ° 0 min 0,000 mm 1,3 UV-I 174 W/m² 5,3 °C 16,3 °C 4,8 km/h (1 Bft)
23.04.2019 10:23 16,3 °C 49 % 996,3 hPa 0,0 mm 0,1 km/h (0 Bft) NO 45 ° 0 min 0,000 mm 1,3 UV-I 181 W/m² 5,6 °C 16,3 °C 1,6 km/h (1 Bft)
23.04.2019 10:24 16,3 °C 55 % 996,3 hPa 0,0 mm 0,0 km/h (0 Bft) NO 45 ° 0 min 0,000 mm 1,3 UV-I 188 W/m² 7,2 °C 16,3 °C 0,0 km/h (0 Bft)
23.04.2019 10:25 16,3 °C 46 % 996,3 hPa 0,0 mm 0,0 km/h (0 Bft) NO 45 ° 0 min 0,000 mm 1,4 UV-I 207 W/m² 4,7 °C 16,3 °C 0,0 km/h (0 Bft)
23.04.2019 10:26 16,3 °C 51 % 996,3 hPa 0,0 mm 0,9 km/h (0 Bft) NO 45 ° 0 min 0,000 mm 1,5 UV-I 218 W/m² 6,1 °C 16,3 °C 3,2 km/h (1 Bft)
23.04.2019 10:27 16,3 °C 54 % 996,3 hPa 0,0 mm 0,4 km/h (0 Bft) NO 45 ° 0 min 0,000 mm 1,6 UV-I 230 W/m² 7,0 °C 16,3 °C 1,6 km/h (1 Bft)
23.04.2019 10:28 16,4 °C 48 % 996,3 hPa 0,0 mm 0,0 km/h (0 Bft) NO 45 ° 0 min 0,000 mm 1,6 UV-I 248 W/m² 5,4 °C 16,4 °C 0,0 km/h (0 Bft)
23.04.2019 10:29 16,4 °C 48 % 996,3 hPa 0,0 mm 0,0 km/h (0 Bft) NO 45 ° 0 min 0,000 mm 1,8 UV-I 271 W/m² 5,4 °C 16,4 °C 0,0 km/h (0 Bft)
23.04.2019 10:30 16,5 °C 53 % 996,3 hPa 0,0 mm 0,0 km/h (0 Bft) NO 45 ° 0 min 0,000 mm 1,9 UV-I 297 W/m² 6,9 °C 16,5 °C 0,0 km/h (0 Bft)
23.04.2019 10:31 16,6 °C 50 % 996,3 hPa 0,0 mm 1,0 km/h (0 Bft) N-NW 337 ° 0 min 0,000 mm 2,1 UV-I 353 W/m² 6,1 °C 16,6 °C 4,8 km/h (1 Bft)
23.04.2019 10:32 16,6 °C 48 % 996,3 hPa 0,0 mm 1,8 km/h (1 Bft) N 360 ° 0 min 0,000 mm 2,3 UV-I 378 W/m² 5,5 °C 16,6 °C 4,8 km/h (1 Bft)
23.04.2019 10:33 16,7 °C 47 % 996,3 hPa 0,0 mm 0,7 km/h (0 Bft) N-NO 15 ° 0 min 0,000 mm 2,5 UV-I 406 W/m² 5,3 °C 16,7 °C 3,2 km/h (1 Bft)
23.04.2019 10:34 16,8 °C 49 % 996,2 hPa 0,0 mm 0,0 km/h (0 Bft) N-NO 15 ° 0 min 0,000 mm 2,6 UV-I 429 W/m² 6,0 °C 16,8 °C 0,0 km/h (0 Bft)
23.04.2019 10:35 16,9 °C 46 % 996,2 hPa 0,0 mm 0,5 km/h (0 Bft) NO 40 ° 0 min 0,000 mm 2,8 UV-I 455 W/m² 5,2 °C 16,9 °C 3,2 km/h (1 Bft)
23.04.2019 10:36 17,1 °C 50 % 996,2 hPa 0,0 mm 6,0 km/h (2 Bft) SO 142 ° 0 min 0,000 mm 2,9 UV-I 504 W/m² 6,6 °C 17,1 °C 9,7 km/h (2 Bft)
23.04.2019 10:37 17,2 °C 51 % 996,2 hPa 0,0 mm 5,7 km/h (1 Bft) NO 50 ° 0 min 0,000 mm 3,2 UV-I 531 W/m² 7,0 °C 17,2 °C 8,0 km/h (2 Bft)
23.04.2019 10:38 17,3 °C 42 % 996,2 hPa 0,0 mm 7,1 km/h (2 Bft) O 94 ° 0 min 0,000 mm 3,4 UV-I 575 W/m² 4,3 °C 17,3 °C 11,3 km/h (2 Bft)
23.04.2019 10:39 17,4 °C 46 % 996,1 hPa 0,0 mm 3,7 km/h (1 Bft) O-NO 59 ° 1 min 0,000 mm 3,6 UV-I 608 W/m² 5,7 °C 17,4 °C 6,4 km/h (2 Bft)
23.04.2019 10:40 17,6 °C 43 % 996,1 hPa 0,0 mm 8,7 km/h (2 Bft) O-SO 108 ° 1 min 0,000 mm 3,8 UV-I 659 W/m² 4,9 °C 17,6 °C 12,9 km/h (3 Bft)
23.04.2019 10:41 17,7 °C 43 % 996,1 hPa 0,0 mm 7,4 km/h (2 Bft) O 90 ° 1 min 0,000 mm 3,8 UV-I 636 W/m² 5,0 °C 17,7 °C 14,5 km/h (3 Bft)
23.04.2019 10:42 17,8 °C 42 % 996,0 hPa 0,0 mm 5,3 km/h (1 Bft) O-NO 69 ° 1 min 0,000 mm 3,9 UV-I 671 W/m² 4,7 °C 17,8 °C 9,7 km/h (2 Bft)
23.04.2019 10:43 17,9 °C 41 % 996,1 hPa 0,0 mm 2,2 km/h (1 Bft) NO 50 ° 1 min 0,000 mm 4,1 UV-I 715 W/m² 4,5 °C 17,9 °C 4,8 km/h (1 Bft)
23.04.2019 10:44 18,1 °C 43 % 996,1 hPa 0,0 mm 2,0 km/h (1 Bft) N 355 ° 1 min 0,000 mm 3,8 UV-I 712 W/m² 5,3 °C 18,1 °C 4,8 km/h (1 Bft)
23.04.2019 10:45 18,3 °C 43 % 996,1 hPa 0,0 mm 1,7 km/h (1 Bft) W 265 ° 1 min 0,000 mm 4,0 UV-I 612 W/m² 5,5 °C 18,3 °C 4,8 km/h (1 Bft)
23.04.2019 10:46 18,4 °C 43 % 996,1 hPa 0,0 mm 2,9 km/h (1 Bft) N-NW 344 ° 0 min 0,000 mm 3,4 UV-I 592 W/m² 5,6 °C 18,4 °C 4,8 km/h (1 Bft)
23.04.2019 10:47 18,5 °C 41 % 996,1 hPa 0,0 mm 0,6 km/h (0 Bft) NO 56 ° 0 min 0,000 mm 4,2 UV-I 592 W/m² 5,0 °C 18,5 °C 3,2 km/h (1 Bft)
23.04.2019 10:48 18,6 °C 41 % 996,0 hPa 0,0 mm 3,6 km/h (1 Bft) O-NO 57 ° 1 min 0,000 mm 4,3 UV-I 733 W/m² 5,1 °C 18,6 °C 6,4 km/h (2 Bft)
23.04.2019 10:49 18,7 °C 42 % 996,0 hPa 0,0 mm 1,4 km/h (1 Bft) N-NO 12 ° 1 min 0,000 mm 3,5 UV-I 733 W/m² 5,5 °C 18,7 °C 4,8 km/h (1 Bft)
23.04.2019 10:50 18,8 °C 42 % 996,0 hPa 0,0 mm 4,8 km/h (1 Bft) NW 306 ° 0 min 0,000 mm 3,2 UV-I 434 W/m² 5,6 °C 18,8 °C 6,4 km/h (2 Bft)
23.04.2019 10:51 18,8 °C 41 % 996,0 hPa 0,0 mm 9,0 km/h (2 Bft) S-SW 194 ° 0 min 0,000 mm 3,5 UV-I 534 W/m² 5,3 °C 18,8 °C 12,9 km/h (3 Bft)
23.04.2019 10:52 18,9 °C 44 % 996,0 hPa 0,0 mm 6,9 km/h (2 Bft) O-NO 74 ° 0 min 0,000 mm 3,7 UV-I 512 W/m² 6,4 °C 18,9 °C 12,9 km/h (3 Bft)
23.04.2019 10:53 18,9 °C 37 % 996,1 hPa 0,0 mm 6,5 km/h (2 Bft) O-SO 121 ° 0 min 0,000 mm 4,4 UV-I 512 W/m² 3,9 °C 18,9 °C 9,7 km/h (2 Bft)
23.04.2019 10:54 18,9 °C 40 % 996,0 hPa 0,0 mm 3,7 km/h (1 Bft) NO 44 ° 1 min 0,000 mm 4,4 UV-I 752 W/m² 5,0 °C 18,9 °C 8,0 km/h (2 Bft)
23.04.2019 10:55 18,9 °C 38 % 996,0 hPa 0,0 mm 8,6 km/h (2 Bft) O 94 ° 1 min 0,000 mm 4,4 UV-I 737 W/m² 4,3 °C 18,9 °C 14,5 km/h (3 Bft)
23.04.2019 10:56 19,0 °C 39 % 996,0 hPa 0,0 mm 10,5 km/h (2 Bft) NO 40 ° 1 min 0,000 mm 4,5 UV-I 740 W/m² 4,7 °C 19,0 °C 14,5 km/h (3 Bft)
23.04.2019 10:57 19,1 °C 37 % 996,0 hPa 0,0 mm 6,4 km/h (2 Bft) O 93 ° 1 min 0,000 mm 4,6 UV-I 751 W/m² 4,1 °C 19,1 °C 11,3 km/h (2 Bft)
23.04.2019 10:58 19,2 °C 38 % 996,0 hPa 0,0 mm 6,4 km/h (2 Bft) O 83 ° 1 min 0,000 mm 4,5 UV-I 747 W/m² 4,5 °C 19,2 °C 9,7 km/h (2 Bft)
23.04.2019 10:59 19,2 °C 38 % 996,0 hPa 0,0 mm 4,4 km/h (1 Bft) O-NO 69 ° 1 min 0,000 mm 4,4 UV-I 726 W/m² 4,5 °C 19,2 °C 6,4 km/h (2 Bft)
23.04.2019 11:00 19,3 °C 41 % 996,0 hPa 0,0 mm 2,4 km/h (1 Bft) SW 225 ° 1 min 0,000 mm 4,3 UV-I 671 W/m² 5,7 °C 19,3 °C 6,4 km/h (2 Bft)
23.04.2019 11:01 19,4 °C 41 % 996,0 hPa 0,0 mm 3,0 km/h (1 Bft) O-NO 64 ° 1 min 0,254 mm 4,3 UV-I 691 W/m² 5,8 °C 19,4 °C 6,4 km/h (2 Bft)
23.04.2019 11:02 19,4 °C 38 % 996,0 hPa 0,0 mm 6,7 km/h (2 Bft) O-NO 76 ° 1 min 0,000 mm 4,3 UV-I 684 W/m² 4,7 °C 19,4 °C 11,3 km/h (2 Bft)
23.04.2019 11:03 19,4 °C 38 % 996,0 hPa 0,0 mm 8,0 km/h (2 Bft) O-NO 74 ° 1 min 0,000 mm 4,2 UV-I 684 W/m² 4,7 °C 19,4 °C 16,1 km/h (3 Bft)
23.04.2019 11:04 19,5 °C 39 % 996,0 hPa 0,0 mm 3,6 km/h (1 Bft) O-SO 121 ° 1 min 0,000 mm 4,1 UV-I 645 W/m² 5,2 °C 19,5 °C 6,4 km/h (2 Bft)
23.04.2019 11:05 19,6 °C 39 % 996,1 hPa 0,0 mm 7,6 km/h (2 Bft) N-NO 27 ° 1 min 0,000 mm 3,9 UV-I 601 W/m² 5,3 °C 19,6 °C 12,9 km/h (3 Bft)
23.04.2019 11:06 19,5 °C 38 % 996,0 hPa 0,0 mm 10,4 km/h (2 Bft) O 96 ° 0 min 0,000 mm 3,8 UV-I 561 W/m² 4,8 °C 19,5 °C 16,1 km/h (3 Bft)
23.04.2019 11:07 19,4 °C 38 % 996,0 hPa 0,0 mm 3,2 km/h (1 Bft) O-SO 120 ° 0 min 0,000 mm 3,6 UV-I 540 W/m² 4,7 °C 19,4 °C 12,9 km/h (3 Bft)
23.04.2019 11:08 19,3 °C 39 % 996,1 hPa 0,0 mm 3,0 km/h (1 Bft) N-NO 13 ° 0 min 0,000 mm 3,7 UV-I 547 W/m² 5,0 °C 19,3 °C 8,0 km/h (2 Bft)
23.04.2019 11:09 19,3 °C 38 % 996,1 hPa 0,0 mm 1,2 km/h (1 Bft) NO 48 ° 0 min 0,000 mm 3,7 UV-I 555 W/m² 4,6 °C 19,3 °C 4,8 km/h (1 Bft)
23.04.2019 11:10 19,3 °C 38 % 996,1 hPa 0,0 mm 3,8 km/h (1 Bft) O-SO 116 ° 0 min 0,000 mm 3,7 UV-I 540 W/m² 4,6 °C 19,3 °C 6,4 km/h (2 Bft)
23.04.2019 11:11 19,3 °C 38 % 996,1 hPa 0,0 mm 2,1 km/h (1 Bft) O-NO 58 ° 0 min 0,000 mm 3,6 UV-I 536 W/m² 4,6 °C 19,3 °C 4,8 km/h (1 Bft)
23.04.2019 11:12 19,2 °C 38 % 996,1 hPa 0,0 mm 2,5 km/h (1 Bft) N 360 ° 0 min 0,000 mm 3,4 UV-I 455 W/m² 4,5 °C 19,2 °C 4,8 km/h (1 Bft)
23.04.2019 11:13 19,2 °C 40 % 996,1 hPa 0,0 mm 6,7 km/h (2 Bft) NO 51 ° 0 min 0,000 mm 3,3 UV-I 434 W/m² 5,3 °C 19,2 °C 11,3 km/h (2 Bft)
23.04.2019 11:14 19,2 °C 39 % 996,1 hPa 0,0 mm 11,5 km/h (2 Bft) O-SO 103 ° 0 min 0,000 mm 3,4 UV-I 469 W/m² 4,9 °C 19,2 °C 16,1 km/h (3 Bft)
23.04.2019 11:15 19,1 °C 36 % 996,1 hPa 0,0 mm 8,9 km/h (2 Bft) NO 41 ° 0 min 0,000 mm 3,4 UV-I 476 W/m² 3,7 °C 19,1 °C 14,5 km/h (3 Bft)
23.04.2019 11:16 18,9 °C 37 % 996,1 hPa 0,0 mm 10,9 km/h (2 Bft) O-NO 76 ° 0 min 0,000 mm 3,3 UV-I 459 W/m² 3,9 °C 18,9 °C 14,5 km/h (3 Bft)
23.04.2019 11:17 18,8 °C 38 % 996,0 hPa 0,0 mm 8,4 km/h (2 Bft) O 92 ° 0 min 0,000 mm 3,2 UV-I 420 W/m² 4,2 °C 18,8 °C 12,9 km/h (3 Bft)
23.04.2019 11:18 18,8 °C 40 % 996,1 hPa 0,0 mm 5,5 km/h (1 Bft) S-SW 192 ° 0 min 0,000 mm 3,4 UV-I 461 W/m² 4,9 °C 18,8 °C 8,0 km/h (2 Bft)
23.04.2019 11:19 18,7 °C 38 % 996,1 hPa 0,0 mm 3,1 km/h (1 Bft) O-NO 57 ° 0 min 0,000 mm 3,4 UV-I 482 W/m² 4,1 °C 18,7 °C 6,4 km/h (2 Bft)
23.04.2019 11:20 18,7 °C 38 % 996,0 hPa 0,0 mm 2,3 km/h (1 Bft) NO 51 ° 0 min 0,000 mm 3,3 UV-I 464 W/m² 4,1 °C 18,7 °C 4,8 km/h (1 Bft)
23.04.2019 11:21 18,7 °C 39 % 996,0 hPa 0,0 mm 1,6 km/h (1 Bft) O-SO 121 ° 0 min 0,000 mm 3,3 UV-I 459 W/m² 4,5 °C 18,7 °C 4,8 km/h (1 Bft)
23.04.2019 11:22 18,7 °C 41 % 996,1 hPa 0,0 mm 0,5 km/h (0 Bft) W-NW 301 ° 0 min 0,000 mm 3,3 UV-I 445 W/m² 5,2 °C 18,7 °C 3,2 km/h (1 Bft)
23.04.2019 11:23 18,8 °C 40 % 996,0 hPa 0,0 mm 6,0 km/h (2 Bft) O-NO 71 ° 0 min 0,000 mm 3,2 UV-I 425 W/m² 4,9 °C 18,8 °C 11,3 km/h (2 Bft)
23.04.2019 11:24 18,8 °C 37 % 996,0 hPa 0,0 mm 6,7 km/h (2 Bft) O-NO 57 ° 0 min 0,000 mm 3,1 UV-I 425 W/m² 3,8 °C 18,8 °C 9,7 km/h (2 Bft)
23.04.2019 11:25 18,7 °C 38 % 996,1 hPa 0,0 mm 5,8 km/h (2 Bft) O-NO 70 ° 0 min 0,000 mm 3,1 UV-I 425 W/m² 4,1 °C 18,7 °C 11,3 km/h (2 Bft)
23.04.2019 11:26 18,7 °C 39 % 996,0 hPa 0,0 mm 6,8 km/h (2 Bft) O-NO 78 ° 0 min 0,000 mm 3,2 UV-I 418 W/m² 4,5 °C 18,7 °C 9,7 km/h (2 Bft)
23.04.2019 11:27 18,6 °C 36 % 996,0 hPa 0,0 mm 11,0 km/h (2 Bft) O 79 ° 0 min 0,000 mm 3,1 UV-I 413 W/m² 3,2 °C 18,6 °C 16,1 km/h (3 Bft)
23.04.2019 11:28 18,5 °C 40 % 996,0 hPa 0,0 mm 9,2 km/h (2 Bft) NO 37 ° 0 min 0,000 mm 3,1 UV-I 411 W/m² 4,6 °C 18,5 °C 12,9 km/h (3 Bft)
23.04.2019 11:29 18,4 °C 38 % 996,0 hPa 0,0 mm 2,2 km/h (1 Bft) N-NO 29 ° 0 min 0,000 mm 3,2 UV-I 413 W/m² 3,8 °C 18,4 °C 4,8 km/h (1 Bft)
23.04.2019 11:30 18,5 °C 38 % 996,0 hPa 0,0 mm 0,9 km/h (0 Bft) O 85 ° 0 min 0,000 mm 3,1 UV-I 411 W/m² 3,9 °C 18,5 °C 3,2 km/h (1 Bft)
23.04.2019 11:31 18,5 °C 38 % 996,0 hPa 0,0 mm 1,5 km/h (1 Bft) NO 54 ° 0 min 0,000 mm 3,1 UV-I 403 W/m² 3,9 °C 18,5 °C 3,2 km/h (1 Bft)
23.04.2019 11:32 18,5 °C 40 % 996,0 hPa 0,0 mm 7,3 km/h (2 Bft) SO 126 ° 0 min 0,000 mm 3,0 UV-I 394 W/m² 4,6 °C 18,5 °C 12,9 km/h (3 Bft)
23.04.2019 11:33 18,5 °C 38 % 996,0 hPa 0,0 mm 5,7 km/h (1 Bft) N 355 ° 0 min 0,000 mm 3,0 UV-I 385 W/m² 3,9 °C 18,5 °C 12,9 km/h (3 Bft)
23.04.2019 11:34 18,4 °C 40 % 996,0 hPa 0,0 mm 4,8 km/h (1 Bft) SO 143 ° 0 min 0,000 mm 2,9 UV-I 360 W/m² 4,6 °C 18,4 °C 8,0 km/h (2 Bft)
23.04.2019 11:35 18,4 °C 39 % 996,0 hPa 0,0 mm 2,9 km/h (1 Bft) N-NO 30 ° 0 min 0,000 mm 2,9 UV-I 366 W/m² 4,2 °C 18,4 °C 6,4 km/h (2 Bft)
23.04.2019 11:36 18,4 °C 38 % 996,0 hPa 0,0 mm 8,1 km/h (2 Bft) O 88 ° 0 min 0,000 mm 3,0 UV-I 364 W/m² 3,8 °C 18,4 °C 14,5 km/h (3 Bft)
23.04.2019 11:37 18,4 °C 39 % 996,1 hPa 0,0 mm 6,9 km/h (2 Bft) O 93 ° 0 min 0,000 mm 3,0 UV-I 383 W/m² 4,2 °C 18,4 °C 11,3 km/h (2 Bft)
23.04.2019 11:38 18,4 °C 38 % 996,1 hPa 0,0 mm 2,1 km/h (1 Bft) N 355 ° 0 min 0,000 mm 3,1 UV-I 388 W/m² 3,8 °C 18,4 °C 3,2 km/h (1 Bft)
23.04.2019 11:39 18,4 °C 39 % 996,0 hPa 0,0 mm 0,0 km/h (0 Bft) N 355 ° 0 min 0,000 mm 3,1 UV-I 401 W/m² 4,2 °C 18,4 °C 0,0 km/h (0 Bft)
23.04.2019 11:40 18,4 °C 41 % 996,0 hPa 0,0 mm 0,1 km/h (0 Bft) N 360 ° 0 min 0,000 mm 3,2 UV-I 415 W/m² 4,9 °C 18,4 °C 1,6 km/h (1 Bft)
23.04.2019 11:41 18,4 °C 42 % 996,0 hPa 0,0 mm 1,6 km/h (1 Bft) O 82 ° 0 min 0,000 mm 3,2 UV-I 431 W/m² 5,3 °C 18,4 °C 4,8 km/h (1 Bft)
23.04.2019 11:42 18,6 °C 41 % 996,0 hPa 0,0 mm 0,8 km/h (0 Bft) O 82 ° 0 min 0,000 mm 3,3 UV-I 441 W/m² 5,1 °C 18,6 °C 1,6 km/h (1 Bft)
23.04.2019 11:43 18,6 °C 45 % 996,0 hPa 0,0 mm 4,1 km/h (1 Bft) O-NO 71 ° 0 min 0,000 mm 3,4 UV-I 454 W/m² 6,4 °C 18,6 °C 6,4 km/h (2 Bft)
23.04.2019 11:44 18,7 °C 42 % 996,0 hPa 0,0 mm 4,6 km/h (1 Bft) O-NO 65 ° 0 min 0,000 mm 3,4 UV-I 452 W/m² 5,5 °C 18,7 °C 8,0 km/h (2 Bft)
23.04.2019 11:45 18,8 °C 42 % 996,0 hPa 0,0 mm 5,9 km/h (2 Bft) O-SO 110 ° 0 min 0,000 mm 3,5 UV-I 464 W/m² 5,6 °C 18,8 °C 9,7 km/h (2 Bft)
23.04.2019 11:46 18,8 °C 40 % 996,0 hPa 0,0 mm 6,0 km/h (2 Bft) SO 132 ° 0 min 0,000 mm 3,6 UV-I 510 W/m² 4,9 °C 18,8 °C 11,3 km/h (2 Bft)
23.04.2019 11:47 18,8 °C 40 % 996,0 hPa 0,0 mm 6,2 km/h (2 Bft) O 84 ° 0 min 0,000 mm 3,7 UV-I 526 W/m² 4,9 °C 18,8 °C 12,9 km/h (3 Bft)
23.04.2019 11:48 18,8 °C 42 % 996,0 hPa 0,0 mm 8,9 km/h (2 Bft) O-NO 77 ° 0 min 0,000 mm 3,7 UV-I 526 W/m² 5,6 °C 18,8 °C 14,5 km/h (3 Bft)
23.04.2019 11:49 18,8 °C 42 % 996,0 hPa 0,0 mm 8,2 km/h (2 Bft) O-SO 109 ° 0 min 0,000 mm 3,7 UV-I 501 W/m² 5,6 °C 18,8 °C 14,5 km/h (3 Bft)
23.04.2019 11:50 18,9 °C 40 % 996,0 hPa 0,0 mm 7,7 km/h (2 Bft) O-NO 74 ° 0 min 0,000 mm 3,9 UV-I 501 W/m² 5,0 °C 18,9 °C 12,9 km/h (3 Bft)
23.04.2019 11:51 18,8 °C 41 % 996,0 hPa 0,0 mm 2,7 km/h (1 Bft) O 83 ° 0 min 0,000 mm 4,0 UV-I 554 W/m² 5,3 °C 18,8 °C 4,8 km/h (1 Bft)
23.04.2019 11:52 18,9 °C 39 % 996,0 hPa 0,0 mm 10,2 km/h (2 Bft) O 87 ° 0 min 0,000 mm 4,0 UV-I 555 W/m² 4,6 °C 18,9 °C 16,1 km/h (3 Bft)
23.04.2019 11:53 18,9 °C 42 % 996,1 hPa 0,0 mm 3,8 km/h (1 Bft) O-NO 65 ° 0 min 0,000 mm 4,0 UV-I 575 W/m² 5,7 °C 18,9 °C 8,0 km/h (2 Bft)
23.04.2019 11:54 19,0 °C 42 % 996,0 hPa 0,0 mm 4,0 km/h (1 Bft) O-SO 109 ° 0 min 0,000 mm 4,0 UV-I 559 W/m² 5,8 °C 19,0 °C 11,3 km/h (2 Bft)
23.04.2019 11:55 19,1 °C 42 % 996,0 hPa 0,0 mm 6,4 km/h (2 Bft) O 101 ° 0 min 0,000 mm 4,0 UV-I 568 W/m² 5,9 °C 19,1 °C 12,9 km/h (3 Bft)
23.04.2019 11:56 19,1 °C 39 % 996,0 hPa 0,0 mm 0,0 km/h (0 Bft) O 101 ° 0 min 0,000 mm 4,1 UV-I 568 W/m² 4,8 °C 19,1 °C 0,0 km/h (0 Bft)
23.04.2019 11:57 19,2 °C 39 % 996,0 hPa 0,0 mm 0,0 km/h (0 Bft) O 101 ° 0 min 0,000 mm 4,1 UV-I 577 W/m² 4,9 °C 19,2 °C 0,0 km/h (0 Bft)
23.04.2019 11:58 19,2 °C 43 % 996,0 hPa 0,0 mm 5,4 km/h (1 Bft) O-NO 65 ° 0 min 0,000 mm 4,2 UV-I 578 W/m² 6,3 °C 19,2 °C 9,7 km/h (2 Bft)
23.04.2019 11:59 19,3 °C 43 % 996,0 hPa 0,0 mm 9,5 km/h (2 Bft) S-SW 210 ° 0 min 0,000 mm 4,2 UV-I 580 W/m² 6,4 °C 19,3 °C 19,3 km/h (3 Bft)
23.04.2019 12:00 19,3 °C 41 % 996,0 hPa 0,0 mm 8,7 km/h (2 Bft) NO 55 ° 0 min 0,000 mm 4,2 UV-I 598 W/m² 5,7 °C 19,3 °C 12,9 km/h (3 Bft)
23.04.2019 12:01 19,3 °C 39 % 996,0 hPa 0,0 mm 4,1 km/h (1 Bft) O-NO 69 ° 1 min 0,330 mm 4,3 UV-I 613 W/m² 5,0 °C 19,3 °C 9,7 km/h (2 Bft)
23.04.2019 12:02 19,2 °C 40 % 996,1 hPa 0,0 mm 4,7 km/h (1 Bft) O 95 ° 1 min 0,000 mm 4,3 UV-I 605 W/m² 5,3 °C 19,2 °C 12,9 km/h (3 Bft)
23.04.2019 12:03 19,2 °C 38 % 996,0 hPa 0,0 mm 7,7 km/h (2 Bft) O-NO 61 ° 0 min 0,000 mm 4,3 UV-I 592 W/m² 4,5 °C 19,2 °C 14,5 km/h (3 Bft)
23.04.2019 12:04 19,1 °C 37 % 996,0 hPa 0,0 mm 4,3 km/h (1 Bft) O-NO 59 ° 1 min 0,000 mm 4,3 UV-I 610 W/m² 4,1 °C 19,1 °C 8,0 km/h (2 Bft)
23.04.2019 12:05 19,1 °C 38 % 996,0 hPa 0,0 mm 3,1 km/h (1 Bft) O-NO 65 ° 0 min 0,000 mm 4,3 UV-I 594 W/m² 4,4 °C 19,1 °C 9,7 km/h (2 Bft)
23.04.2019 12:06 19,2 °C 39 % 996,0 hPa 0,0 mm 7,2 km/h (2 Bft) O-NO 69 ° 0 min 0,000 mm 4,2 UV-I 591 W/m² 4,9 °C 19,2 °C 11,3 km/h (2 Bft)
23.04.2019 12:07 19,2 °C 40 % 996,0 hPa 0,0 mm 6,6 km/h (2 Bft) O 96 ° 0 min 0,000 mm 4,1 UV-I 570 W/m² 5,3 °C 19,2 °C 11,3 km/h (2 Bft)
23.04.2019 12:08 19,3 °C 42 % 996,0 hPa 0,0 mm 5,9 km/h (2 Bft) N-NO 20 ° 0 min 0,000 mm 4,0 UV-I 561 W/m² 6,1 °C 19,3 °C 9,7 km/h (2 Bft)
23.04.2019 12:09 19,3 °C 39 % 996,0 hPa 0,0 mm 3,1 km/h (1 Bft) N 9 ° 0 min 0,000 mm 4,0 UV-I 545 W/m² 5,0 °C 19,3 °C 4,8 km/h (1 Bft)
23.04.2019 12:10 19,3 °C 39 % 995,9 hPa 0,0 mm 10,2 km/h (2 Bft) O-NO 76 ° 0 min 0,000 mm 3,9 UV-I 519 W/m² 5,0 °C 19,3 °C 17,7 km/h (3 Bft)
23.04.2019 12:11 19,3 °C 40 % 996,0 hPa 0,0 mm 7,2 km/h (2 Bft) NO 54 ° 0 min 0,000 mm 3,7 UV-I 483 W/m² 5,4 °C 19,3 °C 9,7 km/h (2 Bft)
23.04.2019 12:12 19,2 °C 40 % 996,0 hPa 0,0 mm 6,6 km/h (2 Bft) O-NO 68 ° 0 min 0,000 mm 3,4 UV-I 454 W/m² 5,3 °C 19,2 °C 11,3 km/h (2 Bft)
23.04.2019 12:13 19,2 °C 39 % 996,0 hPa 0,0 mm 10,1 km/h (2 Bft) O-NO 76 ° 0 min 0,000 mm 3,2 UV-I 401 W/m² 4,9 °C 19,2 °C 14,5 km/h (3 Bft)
23.04.2019 12:14 19,2 °C 40 % 996,0 hPa 0,0 mm 10,7 km/h (2 Bft) NO 46 ° 0 min 0,000 mm 3,1 UV-I 366 W/m² 5,3 °C 19,2 °C 14,5 km/h (3 Bft)
23.04.2019 12:15 19,1 °C 38 % 996,0 hPa 0,0 mm 8,2 km/h (2 Bft) O 94 ° 0 min 0,000 mm 2,9 UV-I 348 W/m² 4,4 °C 19,1 °C 12,9 km/h (3 Bft)
23.04.2019 12:16 19,1 °C 38 % 996,0 hPa 0,0 mm 8,0 km/h (2 Bft) O 90 ° 0 min 0,000 mm 2,9 UV-I 323 W/m² 4,4 °C 19,1 °C 12,9 km/h (3 Bft)
23.04.2019 12:17 18,9 °C 39 % 996,1 hPa 0,0 mm 6,7 km/h (2 Bft) O-NO 78 ° 0 min 0,000 mm 2,8 UV-I 329 W/m² 4,6 °C 18,9 °C 14,5 km/h (3 Bft)
23.04.2019 12:18 18,8 °C 39 % 996,1 hPa 0,0 mm 4,0 km/h (1 Bft) O-NO 69 ° 0 min 0,000 mm 2,9 UV-I 341 W/m² 4,6 °C 18,8 °C 6,4 km/h (2 Bft)
23.04.2019 12:19 18,8 °C 40 % 996,1 hPa 0,0 mm 1,8 km/h (1 Bft) O 81 ° 0 min 0,000 mm 2,9 UV-I 348 W/m² 4,9 °C 18,8 °C 3,2 km/h (1 Bft)
23.04.2019 12:20 18,8 °C 41 % 996,1 hPa 0,0 mm 4,6 km/h (1 Bft) N 360 ° 0 min 0,000 mm 2,9 UV-I 350 W/m² 5,3 °C 18,8 °C 8,0 km/h (2 Bft)
23.04.2019 12:21 18,7 °C 40 % 996,0 hPa 0,0 mm 3,2 km/h (1 Bft) NO 53 ° 0 min 0,000 mm 3,0 UV-I 360 W/m² 4,8 °C 18,7 °C 4,8 km/h (1 Bft)
23.04.2019 12:22 18,8 °C 42 % 996,0 hPa 0,0 mm 4,6 km/h (1 Bft) NO 54 ° 0 min 0,000 mm 3,1 UV-I 425 W/m² 5,6 °C 18,8 °C 6,4 km/h (2 Bft)
23.04.2019 12:23 18,8 °C 43 % 996,0 hPa 0,0 mm 5,7 km/h (1 Bft) O 88 ° 0 min 0,000 mm 3,5 UV-I 452 W/m² 6,0 °C 18,8 °C 11,3 km/h (2 Bft)
23.04.2019 12:24 18,8 °C 40 % 996,1 hPa 0,0 mm 6,8 km/h (2 Bft) O-NO 66 ° 0 min 0,000 mm 3,6 UV-I 475 W/m² 4,9 °C 18,8 °C 9,7 km/h (2 Bft)
23.04.2019 12:25 18,8 °C 40 % 996,0 hPa 0,0 mm 8,5 km/h (2 Bft) O-NO 65 ° 0 min 0,000 mm 3,7 UV-I 501 W/m² 4,9 °C 18,8 °C 14,5 km/h (3 Bft)
23.04.2019 12:26 18,8 °C 43 % 996,1 hPa 0,0 mm 6,6 km/h (2 Bft) O-NO 68 ° 0 min 0,000 mm 3,7 UV-I 503 W/m² 6,0 °C 18,8 °C 9,7 km/h (2 Bft)
23.04.2019 12:27 18,8 °C 41 % 996,1 hPa 0,0 mm 8,1 km/h (2 Bft) O 80 ° 0 min 0,000 mm 3,7 UV-I 489 W/m² 5,3 °C 18,8 °C 12,9 km/h (3 Bft)
23.04.2019 12:28 18,8 °C 42 % 996,1 hPa 0,0 mm 6,8 km/h (2 Bft) O 89 ° 0 min 0,000 mm 3,7 UV-I 497 W/m² 5,6 °C 18,8 °C 11,3 km/h (2 Bft)
23.04.2019 12:29 18,8 °C 44 % 996,1 hPa 0,0 mm 6,1 km/h (2 Bft) NO 35 ° 0 min 0,000 mm 3,7 UV-I 485 W/m² 6,3 °C 18,8 °C 8,0 km/h (2 Bft)
23.04.2019 12:30 18,8 °C 39 % 996,1 hPa 0,0 mm 5,7 km/h (1 Bft) O-SO 109 ° 0 min 0,000 mm 3,6 UV-I 480 W/m² 4,6 °C 18,8 °C 9,7 km/h (2 Bft)
23.04.2019 12:31 18,8 °C 39 % 996,1 hPa 0,0 mm 5,2 km/h (1 Bft) O 96 ° 0 min 0,000 mm 3,6 UV-I 480 W/m² 4,6 °C 18,8 °C 11,3 km/h (2 Bft)
23.04.2019 12:32 18,8 °C 41 % 996,0 hPa 0,0 mm 7,8 km/h (2 Bft) O-NO 74 ° 0 min 0,000 mm 3,6 UV-I 468 W/m² 5,3 °C 18,8 °C 11,3 km/h (2 Bft)
23.04.2019 12:33 18,9 °C 39 % 996,0 hPa 0,0 mm 8,2 km/h (2 Bft) O 100 ° 0 min 0,000 mm 3,5 UV-I 466 W/m² 4,6 °C 18,9 °C 12,9 km/h (3 Bft)
23.04.2019 12:34 18,8 °C 40 % 996,1 hPa 0,0 mm 4,8 km/h (1 Bft) O-NO 68 ° 0 min 0,000 mm 3,5 UV-I 457 W/m² 4,9 °C 18,8 °C 8,0 km/h (2 Bft)
23.04.2019 12:35 18,8 °C 39 % 996,1 hPa 0,0 mm 5,0 km/h (1 Bft) NO 51 ° 0 min 0,000 mm 3,5 UV-I 455 W/m² 4,6 °C 18,8 °C 9,7 km/h (2 Bft)
23.04.2019 12:36 18,8 °C 40 % 996,1 hPa 0,0 mm 5,1 km/h (1 Bft) O 96 ° 0 min 0,000 mm 3,4 UV-I 454 W/m² 4,9 °C 18,8 °C 9,7 km/h (2 Bft)
23.04.2019 12:37 18,9 °C 39 % 996,1 hPa 0,0 mm 4,5 km/h (1 Bft) O 88 ° 0 min 0,000 mm 3,4 UV-I 450 W/m² 4,6 °C 18,9 °C 9,7 km/h (2 Bft)
23.04.2019 12:38 18,9 °C 39 % 996,1 hPa 0,0 mm 6,8 km/h (2 Bft) O-SO 105 ° 0 min 0,000 mm 3,4 UV-I 432 W/m² 4,6 °C 18,9 °C 12,9 km/h (3 Bft)
23.04.2019 12:39 18,8 °C 38 % 996,1 hPa 0,0 mm 4,8 km/h (1 Bft) O-SO 115 ° 0 min 0,000 mm 3,4 UV-I 429 W/m² 4,2 °C 18,8 °C 9,7 km/h (2 Bft)
23.04.2019 12:40 18,8 °C 39 % 996,2 hPa 0,0 mm 0,6 km/h (0 Bft) O-SO 110 ° 0 min 0,000 mm 3,4 UV-I 434 W/m² 4,6 °C 18,8 °C 3,2 km/h (1 Bft)
23.04.2019 12:41 18,9 °C 40 % 996,1 hPa 0,0 mm 3,4 km/h (1 Bft) NO 41 ° 0 min 0,000 mm 3,4 UV-I 436 W/m² 5,0 °C 18,9 °C 6,4 km/h (2 Bft)
23.04.2019 12:42 19,0 °C 40 % 996,1 hPa 0,0 mm 6,2 km/h (2 Bft) O-NO 68 ° 0 min 0,000 mm 3,5 UV-I 452 W/m² 5,1 °C 19,0 °C 11,3 km/h (2 Bft)
23.04.2019 12:43 19,1 °C 40 % 996,2 hPa 0,0 mm 0,6 km/h (0 Bft) O 82 ° 0 min 0,000 mm 3,5 UV-I 445 W/m² 5,2 °C 19,1 °C 3,2 km/h (1 Bft)
23.04.2019 12:44 19,1 °C 41 % 996,2 hPa 0,0 mm 7,3 km/h (2 Bft) O-SO 105 ° 0 min 0,000 mm 3,7 UV-I 480 W/m² 5,5 °C 19,1 °C 11,3 km/h (2 Bft)
23.04.2019 12:45 19,1 °C 40 % 996,1 hPa 0,0 mm 8,2 km/h (2 Bft) O-SO 105 ° 0 min 0,000 mm 3,7 UV-I 519 W/m² 5,2 °C 19,1 °C 14,5 km/h (3 Bft)
23.04.2019 12:46 19,0 °C 40 % 996,1 hPa 0,0 mm 4,1 km/h (1 Bft) S-SO 157 ° 0 min 0,000 mm 3,8 UV-I 524 W/m² 5,1 °C 19,0 °C 9,7 km/h (2 Bft)
23.04.2019 12:47 19,1 °C 42 % 996,1 hPa 0,0 mm 0,1 km/h (0 Bft) S-SO 157 ° 0 min 0,000 mm 3,8 UV-I 526 W/m² 5,9 °C 19,1 °C 1,6 km/h (1 Bft)
23.04.2019 12:48 19,1 °C 42 % 996,1 hPa 0,0 mm 4,2 km/h (1 Bft) O-NO 61 ° 0 min 0,000 mm 3,8 UV-I 531 W/m² 5,9 °C 19,1 °C 6,4 km/h (2 Bft)
23.04.2019 12:49 19,2 °C 40 % 996,1 hPa 0,0 mm 4,9 km/h (1 Bft) O 101 ° 0 min 0,000 mm 3,9 UV-I 540 W/m² 5,3 °C 19,2 °C 9,7 km/h (2 Bft)
23.04.2019 12:50 19,3 °C 41 % 996,1 hPa 0,0 mm 1,7 km/h (1 Bft) O 97 ° 0 min 0,000 mm 3,9 UV-I 533 W/m² 5,7 °C 19,3 °C 4,8 km/h (1 Bft)
23.04.2019 12:51 19,3 °C 39 % 996,1 hPa 0,0 mm 1,8 km/h (1 Bft) NO 50 ° 0 min 0,000 mm 3,9 UV-I 526 W/m² 5,0 °C 19,3 °C 6,4 km/h (2 Bft)
23.04.2019 12:52 19,3 °C 39 % 996,1 hPa 0,0 mm 3,8 km/h (1 Bft) O-NO 63 ° 0 min 0,000 mm 3,9 UV-I 541 W/m² 5,0 °C 19,3 °C 8,0 km/h (2 Bft)
23.04.2019 12:53 19,3 °C 40 % 996,0 hPa 0,0 mm 6,8 km/h (2 Bft) NO 52 ° 0 min 0,000 mm 3,9 UV-I 538 W/m² 5,4 °C 19,3 °C 8,0 km/h (2 Bft)
23.04.2019 12:54 19,3 °C 38 % 996,1 hPa 0,0 mm 5,3 km/h (1 Bft) S-SO 148 ° 0 min 0,000 mm 3,9 UV-I 531 W/m² 4,6 °C 19,3 °C 11,3 km/h (2 Bft)
23.04.2019 12:55 19,3 °C 39 % 996,1 hPa 0,0 mm 5,3 km/h (1 Bft) O-NO 69 ° 0 min 0,000 mm 3,9 UV-I 531 W/m² 5,0 °C 19,3 °C 8,0 km/h (2 Bft)
23.04.2019 12:56 19,2 °C 39 % 996,1 hPa 0,0 mm 3,8 km/h (1 Bft) N-NO 32 ° 0 min 0,000 mm 3,9 UV-I 527 W/m² 4,9 °C 19,2 °C 8,0 km/h (2 Bft)
23.04.2019 12:57 19,2 °C 40 % 996,1 hPa 0,0 mm 0,6 km/h (0 Bft) NO 35 ° 0 min 0,000 mm 3,9 UV-I 536 W/m² 5,3 °C 19,2 °C 3,2 km/h (1 Bft)
23.04.2019 12:58 19,3 °C 41 % 996,1 hPa 0,0 mm 1,4 km/h (1 Bft) W-SW 257 ° 0 min 0,000 mm 3,9 UV-I 541 W/m² 5,7 °C 19,3 °C 4,8 km/h (1 Bft)
23.04.2019 12:59 19,4 °C 42 % 996,1 hPa 0,0 mm 1,8 km/h (1 Bft) N 360 ° 0 min 0,000 mm 3,9 UV-I 526 W/m² 6,2 °C 19,4 °C 8,0 km/h (2 Bft)
23.04.2019 13:00 19,4 °C 45 % 996,1 hPa 0,0 mm 4,8 km/h (1 Bft) NO 46 ° 0 min 0,330 mm 3,9 UV-I 533 W/m² 7,2 °C 19,4 °C 8,0 km/h (2 Bft)
23.04.2019 13:01 19,4 °C 38 % 996,1 hPa 0,0 mm 3,1 km/h (1 Bft) O-NO 65 ° 0 min 0,000 mm 3,9 UV-I 533 W/m² 4,7 °C 19,4 °C 6,4 km/h (2 Bft)
23.04.2019 13:02 19,4 °C 38 % 996,1 hPa 0,0 mm 9,0 km/h (2 Bft) S-SO 153 ° 0 min 0,000 mm 3,9 UV-I 534 W/m² 4,7 °C 19,4 °C 14,5 km/h (3 Bft)
23.04.2019 13:03 19,3 °C 39 % 996,1 hPa 0,0 mm 6,3 km/h (2 Bft) O-NO 57 ° 0 min 0,000 mm 3,8 UV-I 503 W/m² 5,0 °C 19,3 °C 12,9 km/h (3 Bft)
23.04.2019 13:04 19,3 °C 39 % 996,1 hPa 0,0 mm 6,7 km/h (2 Bft) O 101 ° 0 min 0,000 mm 3,7 UV-I 490 W/m² 5,0 °C 19,3 °C 12,9 km/h (3 Bft)
23.04.2019 13:05 19,3 °C 40 % 996,1 hPa 0,0 mm 6,3 km/h (2 Bft) NO 34 ° 0 min 0,000 mm 3,6 UV-I 478 W/m² 5,4 °C 19,3 °C 11,3 km/h (2 Bft)
23.04.2019 13:06 19,3 °C 39 % 996,0 hPa 0,0 mm 3,7 km/h (1 Bft) NO 41 ° 0 min 0,000 mm 3,6 UV-I 471 W/m² 5,0 °C 19,3 °C 9,7 km/h (2 Bft)
23.04.2019 13:07 19,4 °C 39 % 996,1 hPa 0,0 mm 2,9 km/h (1 Bft) NO 53 ° 0 min 0,000 mm 3,6 UV-I 464 W/m² 5,1 °C 19,4 °C 4,8 km/h (1 Bft)
23.04.2019 13:08 19,4 °C 41 % 996,0 hPa 0,0 mm 1,3 km/h (1 Bft) NO 45 ° 0 min 0,000 mm 3,5 UV-I 450 W/m² 5,8 °C 19,4 °C 4,8 km/h (1 Bft)
23.04.2019 13:09 19,4 °C 42 % 996,1 hPa 0,0 mm 2,7 km/h (1 Bft) O 98 ° 0 min 0,000 mm 3,4 UV-I 438 W/m² 6,2 °C 19,4 °C 11,3 km/h (2 Bft)
23.04.2019 13:10 19,5 °C 44 % 996,0 hPa 0,0 mm 5,5 km/h (1 Bft) O-NO 57 ° 0 min 0,000 mm 3,4 UV-I 429 W/m² 6,9 °C 19,5 °C 11,3 km/h (2 Bft)
23.04.2019 13:11 19,3 °C 38 % 996,1 hPa 0,0 mm 6,6 km/h (2 Bft) O-NO 59 ° 0 min 0,000 mm 3,4 UV-I 422 W/m² 4,6 °C 19,3 °C 11,3 km/h (2 Bft)
23.04.2019 13:12 19,3 °C 38 % 996,2 hPa 0,0 mm 4,2 km/h (1 Bft) O-NO 58 ° 0 min 0,000 mm 3,4 UV-I 422 W/m² 4,6 °C 19,3 °C 6,4 km/h (2 Bft)
23.04.2019 13:13 19,2 °C 39 % 996,2 hPa 0,0 mm 3,1 km/h (1 Bft) NO 36 ° 0 min 0,000 mm 3,4 UV-I 424 W/m² 4,9 °C 19,2 °C 4,8 km/h (1 Bft)
23.04.2019 13:14 19,2 °C 40 % 996,1 hPa 0,0 mm 4,4 km/h (1 Bft) NO 36 ° 0 min 0,000 mm 3,4 UV-I 438 W/m² 5,3 °C 19,2 °C 6,4 km/h (2 Bft)
23.04.2019 13:15 19,2 °C 41 % 996,1 hPa 0,0 mm 4,2 km/h (1 Bft) NO 44 ° 0 min 0,000 mm 3,4 UV-I 436 W/m² 5,6 °C 19,2 °C 4,8 km/h (1 Bft)
23.04.2019 13:16 19,2 °C 39 % 996,1 hPa 0,0 mm 3,2 km/h (1 Bft) N-NO 29 ° 0 min 0,000 mm 3,4 UV-I 436 W/m² 4,9 °C 19,2 °C 6,4 km/h (2 Bft)
23.04.2019 13:17 19,3 °C 40 % 996,1 hPa 0,0 mm 1,7 km/h (1 Bft) N-NO 28 ° 0 min 0,000 mm 3,5 UV-I 455 W/m² 5,4 °C 19,3 °C 4,8 km/h (1 Bft)
23.04.2019 13:18 19,3 °C 41 % 996,1 hPa 0,0 mm 3,7 km/h (1 Bft) O 80 ° 0 min 0,000 mm 3,5 UV-I 455 W/m² 5,7 °C 19,3 °C 8,0 km/h (2 Bft)
23.04.2019 13:19 19,4 °C 42 % 996,2 hPa 0,0 mm 4,2 km/h (1 Bft) O 92 ° 0 min 0,000 mm 3,5 UV-I 452 W/m² 6,2 °C 19,4 °C 6,4 km/h (2 Bft)
23.04.2019 13:20 19,4 °C 42 % 996,2 hPa 0,0 mm 5,1 km/h (1 Bft) NO 35 ° 0 min 0,000 mm 3,4 UV-I 429 W/m² 6,2 °C 19,4 °C 14,5 km/h (3 Bft)
23.04.2019 13:21 19,4 °C 42 % 996,1 hPa 0,0 mm 8,0 km/h (2 Bft) NO 42 ° 0 min 0,000 mm 3,3 UV-I 429 W/m² 6,2 °C 19,4 °C 14,5 km/h (3 Bft)
23.04.2019 13:22 19,4 °C 42 % 996,1 hPa 0,0 mm 7,7 km/h (2 Bft) O-NO 74 ° 0 min 0,000 mm 3,3 UV-I 415 W/m² 6,2 °C 19,4 °C 9,7 km/h (2 Bft)
23.04.2019 13:23 19,3 °C 40 % 996,2 hPa 0,0 mm 3,4 km/h (1 Bft) O 97 ° 0 min 0,000 mm 3,3 UV-I 424 W/m² 5,4 °C 19,3 °C 6,4 km/h (2 Bft)
23.04.2019 13:24 19,2 °C 40 % 996,2 hPa 0,0 mm 0,1 km/h (0 Bft) O 97 ° 0 min 0,000 mm 3,4 UV-I 436 W/m² 5,3 °C 19,2 °C 1,6 km/h (1 Bft)
23.04.2019 13:25 19,2 °C 40 % 996,2 hPa 0,0 mm 1,7 km/h (1 Bft) N 360 ° 0 min 0,000 mm 3,4 UV-I 441 W/m² 5,3 °C 19,2 °C 4,8 km/h (1 Bft)
23.04.2019 13:26 19,2 °C 42 % 996,2 hPa 0,0 mm 1,6 km/h (1 Bft) NO 36 ° 0 min 0,000 mm 3,4 UV-I 438 W/m² 6,0 °C 19,2 °C 3,2 km/h (1 Bft)
23.04.2019 13:27 19,1 °C 43 % 996,1 hPa 0,0 mm 0,3 km/h (0 Bft) NO 36 ° 0 min 0,000 mm 3,4 UV-I 438 W/m² 6,2 °C 19,1 °C 1,6 km/h (1 Bft)
23.04.2019 13:28 19,2 °C 43 % 996,2 hPa 0,0 mm 1,1 km/h (1 Bft) O-NO 61 ° 0 min 0,000 mm 3,4 UV-I 438 W/m² 6,3 °C 19,2 °C 4,8 km/h (1 Bft)
23.04.2019 13:29 19,2 °C 45 % 996,2 hPa 0,0 mm 4,2 km/h (1 Bft) O-NO 63 ° 0 min 0,000 mm 3,4 UV-I 434 W/m² 7,0 °C 19,2 °C 6,4 km/h (2 Bft)
23.04.2019 13:30 19,3 °C 41 % 996,2 hPa 0,0 mm 7,8 km/h (2 Bft) O-NO 65 ° 0 min 0,000 mm 3,3 UV-I 429 W/m² 5,7 °C 19,3 °C 12,9 km/h (3 Bft)
23.04.2019 13:31 19,2 °C 39 % 996,2 hPa 0,0 mm 6,2 km/h (2 Bft) S-SW 198 ° 0 min 0,000 mm 3,3 UV-I 429 W/m² 4,9 °C 19,2 °C 14,5 km/h (3 Bft)
23.04.2019 13:32 19,1 °C 39 % 996,3 hPa 0,0 mm 4,5 km/h (1 Bft) O 85 ° 0 min 0,000 mm 3,3 UV-I 431 W/m² 4,8 °C 19,1 °C 8,0 km/h (2 Bft)
23.04.2019 13:33 19,1 °C 42 % 996,2 hPa 0,0 mm 3,6 km/h (1 Bft) O 82 ° 0 min 0,000 mm 3,3 UV-I 432 W/m² 5,9 °C 19,1 °C 4,8 km/h (1 Bft)
23.04.2019 13:34 19,1 °C 40 % 996,3 hPa 0,0 mm 4,7 km/h (1 Bft) N-NW 342 ° 0 min 0,000 mm 3,3 UV-I 425 W/m² 5,2 °C 19,1 °C 16,1 km/h (3 Bft)
23.04.2019 13:35 19,1 °C 41 % 996,2 hPa 0,0 mm 3,8 km/h (1 Bft) O 101 ° 0 min 0,000 mm 3,3 UV-I 422 W/m² 5,5 °C 19,1 °C 9,7 km/h (2 Bft)
23.04.2019 13:36 19,0 °C 38 % 996,3 hPa 0,0 mm 2,8 km/h (1 Bft) N-NO 29 ° 0 min 0,000 mm 3,2 UV-I 417 W/m² 4,4 °C 19,0 °C 4,8 km/h (1 Bft)
23.04.2019 13:37 19,0 °C 42 % 996,3 hPa 0,0 mm 1,6 km/h (1 Bft) N-NO 30 ° 0 min 0,000 mm 3,2 UV-I 417 W/m² 5,8 °C 19,0 °C 3,2 km/h (1 Bft)
23.04.2019 13:38 19,1 °C 41 % 996,3 hPa 0,0 mm 4,8 km/h (1 Bft) NO 50 ° 0 min 0,000 mm 3,2 UV-I 408 W/m² 5,5 °C 19,1 °C 6,4 km/h (2 Bft)
23.04.2019 13:39 19,2 °C 43 % 996,2 hPa 0,0 mm 5,8 km/h (2 Bft) NO 44 ° 0 min 0,000 mm 3,2 UV-I 406 W/m² 6,3 °C 19,2 °C 9,7 km/h (2 Bft)
23.04.2019 13:40 19,2 °C 41 % 996,2 hPa 0,0 mm 4,9 km/h (1 Bft) SW 234 ° 0 min 0,000 mm 3,2 UV-I 403 W/m² 5,6 °C 19,2 °C 11,3 km/h (2 Bft)
23.04.2019 13:41 19,1 °C 41 % 996,3 hPa 0,0 mm 5,0 km/h (1 Bft) S-SO 150 ° 0 min 0,000 mm 3,2 UV-I 406 W/m² 5,5 °C 19,1 °C 8,0 km/h (2 Bft)
23.04.2019 13:42 19,0 °C 41 % 996,3 hPa 0,0 mm 2,7 km/h (1 Bft) W-NW 285 ° 0 min 0,000 mm 3,1 UV-I 403 W/m² 5,4 °C 19,0 °C 4,8 km/h (1 Bft)
23.04.2019 13:43 19,0 °C 43 % 996,3 hPa 0,0 mm 1,4 km/h (1 Bft) NO 36 ° 0 min 0,000 mm 3,1 UV-I 401 W/m² 6,1 °C 19,0 °C 4,8 km/h (1 Bft)
23.04.2019 13:44 19,0 °C 38 % 996,3 hPa 0,0 mm 3,1 km/h (1 Bft) N 5 ° 0 min 0,000 mm 3,1 UV-I 401 W/m² 4,4 °C 19,0 °C 6,4 km/h (2 Bft)
23.04.2019 13:45 19,0 °C 38 % 996,2 hPa 0,0 mm 5,8 km/h (2 Bft) O 96 ° 0 min 0,000 mm 3,1 UV-I 403 W/m² 4,4 °C 19,0 °C 14,5 km/h (3 Bft)
23.04.2019 13:46 18,9 °C 39 % 996,3 hPa 0,0 mm 5,8 km/h (2 Bft) O-NO 64 ° 0 min 0,000 mm 3,1 UV-I 399 W/m² 4,6 °C 18,9 °C 9,7 km/h (2 Bft)
23.04.2019 13:47 18,9 °C 39 % 996,3 hPa 0,0 mm 2,5 km/h (1 Bft) O-NO 62 ° 0 min 0,000 mm 3,1 UV-I 392 W/m² 4,6 °C 18,9 °C 6,4 km/h (2 Bft)
23.04.2019 13:48 18,9 °C 39 % 996,3 hPa 0,0 mm 5,1 km/h (1 Bft) O 97 ° 0 min 0,000 mm 3,0 UV-I 385 W/m² 4,6 °C 18,9 °C 9,7 km/h (2 Bft)
23.04.2019 13:49 18,9 °C 39 % 996,3 hPa 0,0 mm 2,1 km/h (1 Bft) O-NO 64 ° 0 min 0,000 mm 3,0 UV-I 383 W/m² 4,6 °C 18,9 °C 3,2 km/h (1 Bft)
23.04.2019 13:50 18,9 °C 39 % 996,3 hPa 0,0 mm 3,1 km/h (1 Bft) NO 35 ° 0 min 0,000 mm 3,0 UV-I 380 W/m² 4,6 °C 18,9 °C 6,4 km/h (2 Bft)
23.04.2019 13:51 18,8 °C 40 % 996,3 hPa 0,0 mm 1,8 km/h (1 Bft) O 92 ° 0 min 0,000 mm 3,0 UV-I 376 W/m² 4,9 °C 18,8 °C 6,4 km/h (2 Bft)
23.04.2019 13:52 18,9 °C 40 % 996,3 hPa 0,0 mm 4,4 km/h (1 Bft) O-NO 66 ° 0 min 0,000 mm 3,0 UV-I 376 W/m² 5,0 °C 18,9 °C 6,4 km/h (2 Bft)
23.04.2019 13:53 18,9 °C 40 % 996,3 hPa 0,0 mm 1,9 km/h (1 Bft) O-NO 70 ° 0 min 0,000 mm 3,0 UV-I 378 W/m² 5,0 °C 18,9 °C 3,2 km/h (1 Bft)
23.04.2019 13:54 18,9 °C 39 % 996,3 hPa 0,0 mm 5,2 km/h (1 Bft) O 92 ° 0 min 0,000 mm 3,0 UV-I 380 W/m² 4,6 °C 18,9 °C 9,7 km/h (2 Bft)
23.04.2019 13:55 18,9 °C 41 % 996,3 hPa 0,0 mm 6,1 km/h (2 Bft) O-NO 65 ° 0 min 0,000 mm 3,0 UV-I 387 W/m² 5,4 °C 18,9 °C 11,3 km/h (2 Bft)
23.04.2019 13:56 18,9 °C 41 % 996,3 hPa 0,0 mm 4,0 km/h (1 Bft) NO 40 ° 0 min 0,000 mm 3,0 UV-I 387 W/m² 5,4 °C 18,9 °C 6,4 km/h (2 Bft)
23.04.2019 13:57 19,0 °C 40 % 996,4 hPa 0,0 mm 0,8 km/h (0 Bft) NO 46 ° 0 min 0,000 mm 3,0 UV-I 392 W/m² 5,1 °C 19,0 °C 3,2 km/h (1 Bft)
23.04.2019 13:58 18,9 °C 39 % 996,4 hPa 0,0 mm 5,1 km/h (1 Bft) O-NO 63 ° 0 min 0,000 mm 3,0 UV-I 394 W/m² 4,6 °C 18,9 °C 12,9 km/h (3 Bft)
23.04.2019 13:59 18,9 °C 41 % 996,3 hPa 0,0 mm 6,9 km/h (2 Bft) O-NO 72 ° 0 min 0,000 mm 3,0 UV-I 396 W/m² 5,4 °C 18,9 °C 11,3 km/h (2 Bft)
23.04.2019 14:00 18,9 °C 41 % 996,4 hPa 0,0 mm 1,8 km/h (1 Bft) O-NO 72 ° 0 min 0,000 mm 3,0 UV-I 399 W/m² 5,4 °C 18,9 °C 3,2 km/h (1 Bft)
23.04.2019 14:01 18,9 °C 45 % 996,5 hPa 0,0 mm 2,5 km/h (1 Bft) O-SO 103 ° 0 min 0,280 mm 3,0 UV-I 406 W/m² 6,7 °C 18,9 °C 6,4 km/h (2 Bft)
23.04.2019 14:02 18,9 °C 40 % 996,4 hPa 0,0 mm 3,0 km/h (1 Bft) NO 40 ° 0 min 0,000 mm 3,1 UV-I 403 W/m² 5,0 °C 18,9 °C 4,8 km/h (1 Bft)
23.04.2019 14:03 19,0 °C 42 % 996,4 hPa 0,0 mm 2,7 km/h (1 Bft) N 360 ° 0 min 0,000 mm 3,1 UV-I 404 W/m² 5,8 °C 19,0 °C 4,8 km/h (1 Bft)
23.04.2019 14:04 19,1 °C 43 % 996,4 hPa 0,0 mm 1,4 km/h (1 Bft) N 5 ° 0 min 0,000 mm 3,0 UV-I 403 W/m² 6,2 °C 19,1 °C 3,2 km/h (1 Bft)
23.04.2019 14:05 19,1 °C 46 % 996,5 hPa 0,0 mm 2,7 km/h (1 Bft) O 92 ° 0 min 0,000 mm 3,0 UV-I 399 W/m² 7,2 °C 19,1 °C 4,8 km/h (1 Bft)
23.04.2019 14:06 19,1 °C 40 % 996,5 hPa 0,0 mm 1,7 km/h (1 Bft) O-NO 69 ° 0 min 0,000 mm 3,0 UV-I 397 W/m² 5,2 °C 19,1 °C 4,8 km/h (1 Bft)
23.04.2019 14:07 19,1 °C 41 % 996,5 hPa 0,0 mm 1,2 km/h (1 Bft) O-NO 57 ° 0 min 0,000 mm 3,0 UV-I 394 W/m² 5,5 °C 19,1 °C 3,2 km/h (1 Bft)
23.04.2019 14:08 19,1 °C 40 % 996,5 hPa 0,0 mm 4,7 km/h (1 Bft) N-NO 22 ° 0 min 0,000 mm 3,0 UV-I 392 W/m² 5,2 °C 19,1 °C 8,0 km/h (2 Bft)
23.04.2019 14:09 19,1 °C 40 % 996,5 hPa 0,0 mm 2,6 km/h (1 Bft) S-SO 161 ° 0 min 0,000 mm 3,0 UV-I 390 W/m² 5,2 °C 19,1 °C 6,4 km/h (2 Bft)
23.04.2019 14:10 19,0 °C 42 % 996,5 hPa 0,0 mm 2,4 km/h (1 Bft) S-SO 150 ° 0 min 0,000 mm 3,0 UV-I 390 W/m² 5,8 °C 19,0 °C 4,8 km/h (1 Bft)
23.04.2019 14:11 18,9 °C 39 % 996,5 hPa 0,0 mm 3,6 km/h (1 Bft) NO 43 ° 0 min 0,000 mm 3,0 UV-I 388 W/m² 4,6 °C 18,9 °C 6,4 km/h (2 Bft)
23.04.2019 14:12 18,9 °C 39 % 996,5 hPa 0,0 mm 3,1 km/h (1 Bft) O-SO 103 ° 0 min 0,000 mm 3,0 UV-I 387 W/m² 4,6 °C 18,9 °C 6,4 km/h (2 Bft)
23.04.2019 14:13 18,8 °C 38 % 996,5 hPa 0,0 mm 3,2 km/h (1 Bft) O-NO 77 ° 0 min 0,000 mm 3,0 UV-I 385 W/m² 4,2 °C 18,8 °C 4,8 km/h (1 Bft)
23.04.2019 14:14 18,8 °C 42 % 996,5 hPa 0,0 mm 0,1 km/h (0 Bft) O-NO 77 ° 0 min 0,000 mm 3,0 UV-I 387 W/m² 5,6 °C 18,8 °C 1,6 km/h (1 Bft)
23.04.2019 14:15 18,8 °C 39 % 996,5 hPa 0,0 mm 1,2 km/h (1 Bft) NO 52 ° 0 min 0,000 mm 3,0 UV-I 390 W/m² 4,6 °C 18,8 °C 3,2 km/h (1 Bft)
23.04.2019 14:16 18,8 °C 39 % 996,6 hPa 0,0 mm 1,2 km/h (1 Bft) O-NO 63 ° 0 min 0,000 mm 3,0 UV-I 390 W/m² 4,6 °C 18,8 °C 4,8 km/h (1 Bft)
23.04.2019 14:17 18,9 °C 40 % 996,6 hPa 0,0 mm 1,2 km/h (1 Bft) NO 44 ° 0 min 0,000 mm 3,0 UV-I 390 W/m² 5,0 °C 18,9 °C 4,8 km/h (1 Bft)
23.04.2019 14:18 19,0 °C 43 % 996,5 hPa 0,0 mm 3,7 km/h (1 Bft) N-NO 22 ° 0 min 0,000 mm 3,0 UV-I 390 W/m² 6,1 °C 19,0 °C 6,4 km/h (2 Bft)
23.04.2019 14:19 19,2 °C 42 % 996,6 hPa 0,0 mm 4,0 km/h (1 Bft) NO 34 ° 0 min 0,000 mm 3,0 UV-I 399 W/m² 6,0 °C 19,2 °C 6,4 km/h (2 Bft)
23.04.2019 14:20 19,3 °C 43 % 996,6 hPa 0,0 mm 0,5 km/h (0 Bft) NO 34 ° 0 min 0,000 mm 3,0 UV-I 403 W/m² 6,4 °C 19,3 °C 1,6 km/h (1 Bft)
23.04.2019 14:21 19,3 °C 44 % 996,6 hPa 0,0 mm 2,0 km/h (1 Bft) N-NW 340 ° 0 min 0,000 mm 3,0 UV-I 408 W/m² 6,7 °C 19,3 °C 4,8 km/h (1 Bft)
23.04.2019 14:22 19,3 °C 42 % 996,6 hPa 0,0 mm 5,0 km/h (1 Bft) N-NW 342 ° 0 min 0,000 mm 3,1 UV-I 417 W/m² 6,1 °C 19,3 °C 8,0 km/h (2 Bft)
23.04.2019 14:23 19,3 °C 44 % 996,6 hPa 0,0 mm 3,8 km/h (1 Bft) W-NW 284 ° 0 min 0,000 mm 3,1 UV-I 427 W/m² 6,7 °C 19,3 °C 6,4 km/h (2 Bft)
23.04.2019 14:24 19,2 °C 41 % 996,6 hPa 0,0 mm 0,4 km/h (0 Bft) W-NW 285 ° 0 min 0,000 mm 3,2 UV-I 434 W/m² 5,6 °C 19,2 °C 1,6 km/h (1 Bft)
23.04.2019 14:25 19,2 °C 42 % 996,6 hPa 0,0 mm 4,8 km/h (1 Bft) O-NO 74 ° 0 min 0,000 mm 3,2 UV-I 454 W/m² 6,0 °C 19,2 °C 11,3 km/h (2 Bft)
23.04.2019 14:26 19,1 °C 40 % 996,6 hPa 0,0 mm 4,4 km/h (1 Bft) SW 224 ° 0 min 0,000 mm 3,3 UV-I 461 W/m² 5,2 °C 19,1 °C 11,3 km/h (2 Bft)
23.04.2019 14:27 19,1 °C 43 % 996,7 hPa 0,0 mm 5,7 km/h (1 Bft) N-NO 31 ° 0 min 0,000 mm 3,3 UV-I 464 W/m² 6,2 °C 19,1 °C 16,1 km/h (3 Bft)
23.04.2019 14:28 19,2 °C 42 % 996,7 hPa 0,0 mm 4,1 km/h (1 Bft) O-NO 69 ° 0 min 0,000 mm 3,3 UV-I 464 W/m² 6,0 °C 19,2 °C 9,7 km/h (2 Bft)
23.04.2019 14:29 19,2 °C 42 % 996,7 hPa 0,0 mm 5,9 km/h (2 Bft) O-NO 61 ° 0 min 0,000 mm 3,4 UV-I 475 W/m² 6,0 °C 19,2 °C 11,3 km/h (2 Bft)
23.04.2019 14:30 19,2 °C 40 % 996,7 hPa 0,0 mm 5,5 km/h (1 Bft) O-NO 70 ° 0 min 0,000 mm 3,5 UV-I 478 W/m² 5,3 °C 19,2 °C 12,9 km/h (3 Bft)
23.04.2019 14:31 19,2 °C 41 % 996,7 hPa 0,0 mm 3,8 km/h (1 Bft) O-NO 61 ° 0 min 0,000 mm 3,4 UV-I 487 W/m² 5,6 °C 19,2 °C 8,0 km/h (2 Bft)
23.04.2019 14:32 19,2 °C 41 % 996,7 hPa 0,0 mm 3,0 km/h (1 Bft) NO 36 ° 0 min 0,000 mm 3,5 UV-I 490 W/m² 5,6 °C 19,2 °C 4,8 km/h (1 Bft)
23.04.2019 14:33 19,2 °C 40 % 996,7 hPa 0,0 mm 3,5 km/h (1 Bft) N 11 ° 0 min 0,000 mm 3,5 UV-I 494 W/m² 5,3 °C 19,2 °C 6,4 km/h (2 Bft)
23.04.2019 14:34 19,3 °C 41 % 996,7 hPa 0,0 mm 2,0 km/h (1 Bft) N 11 ° 0 min 0,000 mm 3,5 UV-I 489 W/m² 5,7 °C 19,3 °C 4,8 km/h (1 Bft)
23.04.2019 14:35 19,3 °C 45 % 996,7 hPa 0,0 mm 3,9 km/h (1 Bft) N-NO 23 ° 0 min 0,000 mm 3,5 UV-I 496 W/m² 7,1 °C 19,3 °C 6,4 km/h (2 Bft)
23.04.2019 14:36 19,4 °C 44 % 996,7 hPa 0,0 mm 3,8 km/h (1 Bft) O-NO 74 ° 0 min 0,000 mm 3,5 UV-I 485 W/m² 6,8 °C 19,4 °C 4,8 km/h (1 Bft)
23.04.2019 14:37 19,4 °C 39 % 996,8 hPa 0,0 mm 5,7 km/h (1 Bft) W 277 ° 0 min 0,000 mm 3,4 UV-I 424 W/m² 5,1 °C 19,4 °C 9,7 km/h (2 Bft)
23.04.2019 14:38 19,3 °C 41 % 996,7 hPa 0,0 mm 2,2 km/h (1 Bft) W 264 ° 0 min 0,000 mm 3,4 UV-I 459 W/m² 5,7 °C 19,3 °C 4,8 km/h (1 Bft)
23.04.2019 14:39 19,3 °C 40 % 996,7 hPa 0,0 mm 1,0 km/h (0 Bft) NO 56 ° 0 min 0,000 mm 3,4 UV-I 438 W/m² 5,4 °C 19,3 °C 3,2 km/h (1 Bft)
23.04.2019 14:40 19,2 °C 40 % 996,7 hPa 0,0 mm 5,2 km/h (1 Bft) O-NO 63 ° 0 min 0,000 mm 3,2 UV-I 418 W/m² 5,3 °C 19,2 °C 11,3 km/h (2 Bft)
23.04.2019 14:41 19,2 °C 40 % 996,7 hPa 0,0 mm 2,0 km/h (1 Bft) O 88 ° 0 min 0,000 mm 3,1 UV-I 415 W/m² 5,3 °C 19,2 °C 6,4 km/h (2 Bft)
23.04.2019 14:42 19,2 °C 40 % 996,7 hPa 0,0 mm 4,5 km/h (1 Bft) O 101 ° 0 min 0,000 mm 3,0 UV-I 408 W/m² 5,3 °C 19,2 °C 11,3 km/h (2 Bft)
23.04.2019 14:43 19,2 °C 40 % 996,7 hPa 0,0 mm 6,2 km/h (2 Bft) SO 128 ° 0 min 0,000 mm 3,1 UV-I 410 W/m² 5,3 °C 19,2 °C 11,3 km/h (2 Bft)
23.04.2019 14:44 19,2 °C 39 % 996,7 hPa 0,0 mm 5,5 km/h (1 Bft) O 88 ° 0 min 0,000 mm 3,1 UV-I 410 W/m² 4,9 °C 19,2 °C 8,0 km/h (2 Bft)
23.04.2019 14:45 19,1 °C 40 % 996,6 hPa 0,0 mm 7,6 km/h (2 Bft) O-SO 118 ° 0 min 0,000 mm 3,0 UV-I 403 W/m² 5,2 °C 19,1 °C 12,9 km/h (3 Bft)
23.04.2019 14:46 19,1 °C 40 % 996,7 hPa 0,0 mm 7,6 km/h (2 Bft) O-NO 61 ° 0 min 0,000 mm 3,0 UV-I 385 W/m² 5,2 °C 19,1 °C 11,3 km/h (2 Bft)
23.04.2019 14:47 19,1 °C 40 % 996,7 hPa 0,0 mm 6,9 km/h (2 Bft) O-NO 74 ° 0 min 0,000 mm 2,9 UV-I 374 W/m² 5,2 °C 19,1 °C 12,9 km/h (3 Bft)
23.04.2019 14:48 19,0 °C 40 % 996,7 hPa 0,0 mm 3,2 km/h (1 Bft) N-NO 33 ° 0 min 0,000 mm 2,8 UV-I 345 W/m² 5,1 °C 19,0 °C 4,8 km/h (1 Bft)
23.04.2019 14:49 18,9 °C 40 % 996,7 hPa 0,0 mm 0,6 km/h (0 Bft) O-SO 117 ° 0 min 0,000 mm 2,7 UV-I 334 W/m² 5,0 °C 18,9 °C 3,2 km/h (1 Bft)
23.04.2019 14:50 19,0 °C 43 % 996,7 hPa 0,0 mm 4,5 km/h (1 Bft) SO 144 ° 0 min 0,000 mm 2,6 UV-I 329 W/m² 6,1 °C 19,0 °C 12,9 km/h (3 Bft)
23.04.2019 14:51 19,1 °C 43 % 996,7 hPa 0,0 mm 1,0 km/h (0 Bft) O-NO 65 ° 0 min 0,000 mm 2,6 UV-I 323 W/m² 6,2 °C 19,1 °C 3,2 km/h (1 Bft)
23.04.2019 14:52 19,1 °C 43 % 996,7 hPa 0,0 mm 6,5 km/h (2 Bft) NO 44 ° 0 min 0,000 mm 2,6 UV-I 322 W/m² 6,2 °C 19,1 °C 9,7 km/h (2 Bft)
23.04.2019 14:53 19,1 °C 42 % 996,7 hPa 0,0 mm 3,8 km/h (1 Bft) O 89 ° 0 min 0,000 mm 2,6 UV-I 320 W/m² 5,9 °C 19,1 °C 4,8 km/h (1 Bft)
23.04.2019 14:54 19,0 °C 41 % 996,7 hPa 0,0 mm 4,3 km/h (1 Bft) O 98 ° 0 min 0,000 mm 2,6 UV-I 323 W/m² 5,4 °C 19,0 °C 6,4 km/h (2 Bft)
23.04.2019 14:55 18,9 °C 39 % 996,8 hPa 0,0 mm 4,1 km/h (1 Bft) S-SO 155 ° 0 min 0,000 mm 2,5 UV-I 311 W/m² 4,6 °C 18,9 °C 11,3 km/h (2 Bft)
23.04.2019 14:56 18,9 °C 40 % 996,7 hPa 0,0 mm 1,7 km/h (1 Bft) NO 54 ° 0 min 0,000 mm 2,5 UV-I 308 W/m² 5,0 °C 18,9 °C 4,8 km/h (1 Bft)
23.04.2019 14:57 18,9 °C 41 % 996,7 hPa 0,0 mm 3,0 km/h (1 Bft) O-NO 74 ° 0 min 0,000 mm 2,4 UV-I 311 W/m² 5,4 °C 18,9 °C 6,4 km/h (2 Bft)
23.04.2019 14:58 18,8 °C 43 % 996,7 hPa 0,0 mm 5,8 km/h (2 Bft) O-NO 57 ° 0 min 0,000 mm 2,4 UV-I 302 W/m² 6,0 °C 18,8 °C 9,7 km/h (2 Bft)
23.04.2019 14:59 18,8 °C 47 % 996,7 hPa 0,0 mm 2,6 km/h (1 Bft) O-SO 105 ° 0 min 0,000 mm 2,4 UV-I 297 W/m² 7,2 °C 18,8 °C 6,4 km/h (2 Bft)
23.04.2019 15:00 18,8 °C 43 % 996,7 hPa 0,0 mm 0,5 km/h (0 Bft) O-SO 114 ° 0 min 0,254 mm 2,4 UV-I 295 W/m² 6,0 °C 18,8 °C 1,6 km/h (1 Bft)
23.04.2019 15:01 18,8 °C 43 % 996,7 hPa 0,0 mm 1,3 km/h (1 Bft) N-NW 329 ° 0 min 0,000 mm 2,3 UV-I 295 W/m² 6,0 °C 18,8 °C 3,2 km/h (1 Bft)
23.04.2019 15:02 18,9 °C 42 % 996,6 hPa 0,0 mm 0,7 km/h (0 Bft) O 98 ° 0 min 0,000 mm 2,3 UV-I 295 W/m² 5,7 °C 18,9 °C 3,2 km/h (1 Bft)
23.04.2019 15:03 18,9 °C 43 % 996,6 hPa 0,0 mm 3,0 km/h (1 Bft) NO 34 ° 0 min 0,000 mm 2,3 UV-I 297 W/m² 6,0 °C 18,9 °C 3,2 km/h (1 Bft)
23.04.2019 15:04 18,9 °C 41 % 996,7 hPa 0,0 mm 1,9 km/h (1 Bft) O-NO 59 ° 0 min 0,000 mm 2,3 UV-I 295 W/m² 5,4 °C 18,9 °C 4,8 km/h (1 Bft)
23.04.2019 15:05 19,0 °C 45 % 996,6 hPa 0,0 mm 4,7 km/h (1 Bft) O-SO 111 ° 0 min 0,000 mm 2,3 UV-I 295 W/m² 6,8 °C 19,0 °C 6,4 km/h (2 Bft)
23.04.2019 15:06 19,0 °C 47 % 996,7 hPa 0,0 mm 2,6 km/h (1 Bft) NO 39 ° 0 min 0,000 mm 2,3 UV-I 294 W/m² 7,4 °C 19,0 °C 6,4 km/h (2 Bft)
23.04.2019 15:07 19,0 °C 41 % 996,7 hPa 0,0 mm 2,6 km/h (1 Bft) S-SW 200 ° 0 min 0,000 mm 2,3 UV-I 294 W/m² 5,4 °C 19,0 °C 4,8 km/h (1 Bft)
23.04.2019 15:08 18,9 °C 40 % 996,6 hPa 0,0 mm 2,0 km/h (1 Bft) NO 38 ° 0 min 0,000 mm 2,3 UV-I 290 W/m² 5,0 °C 18,9 °C 4,8 km/h (1 Bft)
23.04.2019 15:09 18,9 °C 42 % 996,6 hPa 0,0 mm 4,1 km/h (1 Bft) O-NO 71 ° 0 min 0,000 mm 2,3 UV-I 294 W/m² 5,7 °C 18,9 °C 8,0 km/h (2 Bft)
23.04.2019 15:10 18,9 °C 42 % 996,7 hPa 0,0 mm 1,0 km/h (0 Bft) N-NO 26 ° 0 min 0,000 mm 2,2 UV-I 288 W/m² 5,7 °C 18,9 °C 4,8 km/h (1 Bft)
23.04.2019 15:11 18,9 °C 44 % 996,6 hPa 0,0 mm 2,9 km/h (1 Bft) O 86 ° 0 min 0,000 mm 2,2 UV-I 290 W/m² 6,4 °C 18,9 °C 4,8 km/h (1 Bft)
23.04.2019 15:12 18,8 °C 40 % 996,6 hPa 0,0 mm 0,3 km/h (0 Bft) O 86 ° 0 min 0,000 mm 2,2 UV-I 285 W/m² 4,9 °C 18,8 °C 3,2 km/h (1 Bft)
23.04.2019 15:13 18,8 °C 43 % 996,6 hPa 0,0 mm 3,0 km/h (1 Bft) W-NW 294 ° 0 min 0,000 mm 2,2 UV-I 283 W/m² 6,0 °C 18,8 °C 4,8 km/h (1 Bft)
23.04.2019 15:14 18,8 °C 39 % 996,6 hPa 0,0 mm 3,3 km/h (1 Bft) O-SO 102 ° 0 min 0,000 mm 2,2 UV-I 279 W/m² 4,6 °C 18,8 °C 6,4 km/h (2 Bft)
23.04.2019 15:15 18,8 °C 42 % 996,6 hPa 0,0 mm 4,3 km/h (1 Bft) O 88 ° 0 min 0,000 mm 2,2 UV-I 281 W/m² 5,6 °C 18,8 °C 6,4 km/h (2 Bft)
23.04.2019 15:16 18,8 °C 45 % 996,6 hPa 0,0 mm 0,9 km/h (0 Bft) O 87 ° 0 min 0,000 mm 2,2 UV-I 278 W/m² 6,6 °C 18,8 °C 4,8 km/h (1 Bft)
23.04.2019 15:17 18,8 °C 44 % 996,6 hPa 0,0 mm 1,4 km/h (1 Bft) NO 49 ° 0 min 0,000 mm 2,2 UV-I 281 W/m² 6,3 °C 18,8 °C 3,2 km/h (1 Bft)
23.04.2019 15:18 18,9 °C 45 % 996,6 hPa 0,0 mm 1,1 km/h (1 Bft) NO 49 ° 0 min 0,000 mm 2,2 UV-I 281 W/m² 6,7 °C 18,9 °C 4,8 km/h (1 Bft)
23.04.2019 15:19 19,0 °C 42 % 996,6 hPa 0,0 mm 0,9 km/h (0 Bft) NO 48 ° 0 min 0,000 mm 2,2 UV-I 288 W/m² 5,8 °C 19,0 °C 3,2 km/h (1 Bft)
23.04.2019 15:20 19,1 °C 46 % 996,6 hPa 0,0 mm 1,3 km/h (1 Bft) O-NO 63 ° 0 min 0,000 mm 2,2 UV-I 288 W/m² 7,2 °C 19,1 °C 3,2 km/h (1 Bft)
23.04.2019 15:21 19,1 °C 42 % 996,6 hPa 0,0 mm 0,1 km/h (0 Bft) O-NO 63 ° 0 min 0,000 mm 2,2 UV-I 292 W/m² 5,9 °C 19,1 °C 1,6 km/h (1 Bft)
23.04.2019 15:22 19,1 °C 41 % 996,6 hPa 0,0 mm 0,1 km/h (0 Bft) O-NO 63 ° 0 min 0,000 mm 2,2 UV-I 297 W/m² 5,5 °C 19,1 °C 1,6 km/h (1 Bft)
23.04.2019 15:23 19,1 °C 43 % 996,6 hPa 0,0 mm 0,0 km/h (0 Bft) O-NO 63 ° 0 min 0,000 mm 2,3 UV-I 316 W/m² 6,2 °C 19,1 °C 0,0 km/h (0 Bft)
23.04.2019 15:24 19,1 °C 44 % 996,6 hPa 0,0 mm 0,0 km/h (0 Bft) O-NO 63 ° 0 min 0,000 mm 2,3 UV-I 332 W/m² 6,6 °C 19,1 °C 0,0 km/h (0 Bft)
23.04.2019 15:25 19,1 °C 47 % 996,6 hPa 0,0 mm 0,0 km/h (0 Bft) O-NO 63 ° 0 min 0,000 mm 2,3 UV-I 318 W/m² 7,5 °C 19,1 °C 0,0 km/h (0 Bft)
23.04.2019 15:26 19,2 °C 46 % 996,6 hPa 0,0 mm 0,0 km/h (0 Bft) NO 51 ° 0 min 0,000 mm 2,3 UV-I 313 W/m² 7,3 °C 19,2 °C 0,0 km/h (0 Bft)
23.04.2019 15:27 19,1 °C 40 % 996,6 hPa 0,0 mm 2,5 km/h (1 Bft) O-SO 123 ° 0 min 0,000 mm 2,3 UV-I 237 W/m² 5,2 °C 19,1 °C 6,4 km/h (2 Bft)
23.04.2019 15:28 19,1 °C 38 % 996,6 hPa 0,0 mm 0,5 km/h (0 Bft) O-SO 123 ° 0 min 0,000 mm 2,3 UV-I 320 W/m² 4,4 °C 19,1 °C 1,6 km/h (1 Bft)
23.04.2019 15:29 19,1 °C 38 % 996,6 hPa 0,0 mm 0,3 km/h (0 Bft) O-SO 123 ° 0 min 0,000 mm 2,4 UV-I 334 W/m² 4,4 °C 19,1 °C 1,6 km/h (1 Bft)
23.04.2019 15:30 19,1 °C 41 % 996,6 hPa 0,0 mm 0,0 km/h (0 Bft) O-SO 123 ° 0 min 0,000 mm 2,4 UV-I 334 W/m² 5,5 °C 19,1 °C 0,0 km/h (0 Bft)
23.04.2019 15:31 19,1 °C 41 % 996,6 hPa 0,0 mm 0,2 km/h (0 Bft) O 86 ° 0 min 0,000 mm 2,4 UV-I 336 W/m² 5,5 °C 19,1 °C 1,6 km/h (1 Bft)
23.04.2019 15:32 19,1 °C 37 % 996,6 hPa 0,0 mm 1,6 km/h (1 Bft) O-NO 62 ° 0 min 0,000 mm 2,4 UV-I 339 W/m² 4,1 °C 19,1 °C 3,2 km/h (1 Bft)
23.04.2019 15:33 19,1 °C 38 % 996,6 hPa 0,0 mm 1,1 km/h (1 Bft) W 270 ° 0 min 0,000 mm 2,4 UV-I 338 W/m² 4,4 °C 19,1 °C 3,2 km/h (1 Bft)
23.04.2019 15:34 19,2 °C 39 % 996,6 hPa 0,0 mm 2,0 km/h (1 Bft) W 270 ° 0 min 0,000 mm 2,4 UV-I 327 W/m² 4,9 °C 19,2 °C 4,8 km/h (1 Bft)
23.04.2019 15:35 19,2 °C 39 % 996,6 hPa 0,0 mm 3,0 km/h (1 Bft) W 270 ° 0 min 0,000 mm 2,3 UV-I 223 W/m² 4,9 °C 19,2 °C 4,8 km/h (1 Bft)
23.04.2019 15:36 19,2 °C 41 % 996,6 hPa 0,0 mm 0,9 km/h (0 Bft) W 270 ° 0 min 0,000 mm 2,4 UV-I 223 W/m² 5,6 °C 19,2 °C 1,6 km/h (1 Bft)
23.04.2019 15:37 19,3 °C 43 % 996,6 hPa 0,0 mm 0,3 km/h (0 Bft) W 270 ° 0 min 0,000 mm 2,4 UV-I 223 W/m² 6,4 °C 19,3 °C 1,6 km/h (1 Bft)
23.04.2019 15:38 19,3 °C 42 % 996,5 hPa 0,0 mm 4,1 km/h (1 Bft) W 260 ° 0 min 0,000 mm 2,3 UV-I 322 W/m² 6,1 °C 19,3 °C 6,4 km/h (2 Bft)
23.04.2019 15:39 19,3 °C 37 % 996,5 hPa 0,0 mm 2,5 km/h (1 Bft) W 266 ° 0 min 0,000 mm 2,3 UV-I 322 W/m² 4,2 °C 19,3 °C 4,8 km/h (1 Bft)
23.04.2019 15:40 19,2 °C 39 % 996,6 hPa 0,0 mm 0,8 km/h (0 Bft) W 266 ° 0 min 0,000 mm 2,3 UV-I 315 W/m² 4,9 °C 19,2 °C 1,6 km/h (1 Bft)
23.04.2019 15:41 19,2 °C 39 % 996,5 hPa 0,0 mm 3,2 km/h (1 Bft) W 265 ° 0 min 0,000 mm 2,3 UV-I 220 W/m² 4,9 °C 19,2 °C 6,4 km/h (2 Bft)
23.04.2019 15:42 19,2 °C 38 % 996,5 hPa 0,0 mm 4,6 km/h (1 Bft) SW 215 ° 0 min 0,000 mm 2,4 UV-I 220 W/m² 4,5 °C 19,2 °C 9,7 km/h (2 Bft)
23.04.2019 15:43 19,2 °C 37 % 996,5 hPa 0,0 mm 3,8 km/h (1 Bft) SW 230 ° 0 min 0,000 mm 2,4 UV-I 329 W/m² 4,2 °C 19,2 °C 6,4 km/h (2 Bft)
23.04.2019 15:44 19,2 °C 38 % 996,5 hPa 0,0 mm 4,4 km/h (1 Bft) W-SW 246 ° 0 min 0,000 mm 2,4 UV-I 244 W/m² 4,5 °C 19,2 °C 6,4 km/h (2 Bft)
23.04.2019 15:45 19,2 °C 38 % 996,5 hPa 0,0 mm 1,5 km/h (1 Bft) W-SW 246 ° 0 min 0,000 mm 2,4 UV-I 322 W/m² 4,5 °C 19,2 °C 3,2 km/h (1 Bft)
23.04.2019 15:46 19,2 °C 37 % 996,5 hPa 0,0 mm 0,9 km/h (0 Bft) W-SW 246 ° 0 min 0,000 mm 2,4 UV-I 323 W/m² 4,2 °C 19,2 °C 3,2 km/h (1 Bft)
23.04.2019 15:47 19,2 °C 40 % 996,5 hPa 0,0 mm 1,3 km/h (1 Bft) W-SW 246 ° 0 min 0,000 mm 2,4 UV-I 345 W/m² 5,3 °C 19,2 °C 3,2 km/h (1 Bft)
23.04.2019 15:48 19,2 °C 40 % 996,5 hPa 0,0 mm 0,6 km/h (0 Bft) W-SW 246 ° 0 min 0,000 mm 2,5 UV-I 345 W/m² 5,3 °C 19,2 °C 1,6 km/h (1 Bft)
23.04.2019 15:49 19,3 °C 39 % 996,5 hPa 0,0 mm 1,2 km/h (1 Bft) W 260 ° 0 min 0,000 mm 2,4 UV-I 250 W/m² 5,0 °C 19,3 °C 4,8 km/h (1 Bft)
23.04.2019 15:50 19,3 °C 39 % 996,5 hPa 0,0 mm 6,7 km/h (2 Bft) W-SW 243 ° 0 min 0,000 mm 2,4 UV-I 315 W/m² 5,0 °C 19,3 °C 11,3 km/h (2 Bft)
23.04.2019 15:51 19,3 °C 40 % 996,5 hPa 0,0 mm 4,4 km/h (1 Bft) SW 220 ° 0 min 0,000 mm 2,4 UV-I 318 W/m² 5,4 °C 19,3 °C 6,4 km/h (2 Bft)
23.04.2019 15:52 19,2 °C 39 % 996,5 hPa 0,0 mm 4,1 km/h (1 Bft) S-SW 192 ° 0 min 0,000 mm 2,3 UV-I 304 W/m² 4,9 °C 19,2 °C 8,0 km/h (2 Bft)
23.04.2019 15:53 19,2 °C 40 % 996,5 hPa 0,0 mm 0,6 km/h (0 Bft) S-SW 193 ° 0 min 0,000 mm 2,3 UV-I 304 W/m² 5,3 °C 19,2 °C 3,2 km/h (1 Bft)
23.04.2019 15:54 19,2 °C 40 % 996,5 hPa 0,0 mm 2,9 km/h (1 Bft) S 187 ° 0 min 0,000 mm 2,4 UV-I 304 W/m² 5,3 °C 19,2 °C 6,4 km/h (2 Bft)
23.04.2019 15:55 19,1 °C 39 % 996,5 hPa 0,0 mm 0,1 km/h (0 Bft) S-SW 213 ° 0 min 0,000 mm 2,3 UV-I 301 W/m² 4,8 °C 19,1 °C 1,6 km/h (1 Bft)
23.04.2019 15:56 19,1 °C 43 % 996,5 hPa 0,0 mm 1,6 km/h (1 Bft) W-SW 239 ° 0 min 0,000 mm 2,4 UV-I 225 W/m² 6,2 °C 19,1 °C 3,2 km/h (1 Bft)
23.04.2019 15:57 19,1 °C 43 % 996,5 hPa 0,0 mm 1,9 km/h (1 Bft) S-SW 193 ° 0 min 0,000 mm 2,3 UV-I 304 W/m² 6,2 °C 19,1 °C 6,4 km/h (2 Bft)
23.04.2019 15:58 19,1 °C 40 % 996,5 hPa 0,0 mm 0,6 km/h (0 Bft) O-NO 59 ° 0 min 0,000 mm 2,3 UV-I 325 W/m² 5,2 °C 19,1 °C 3,2 km/h (1 Bft)
23.04.2019 15:59 19,1 °C 39 % 996,5 hPa 0,0 mm 1,7 km/h (1 Bft) O-NO 59 ° 0 min 0,000 mm 2,4 UV-I 311 W/m² 4,8 °C 19,1 °C 4,8 km/h (1 Bft)
23.04.2019 16:00 19,1 °C 39 % 996,5 hPa 0,0 mm 2,7 km/h (1 Bft) N-NW 331 ° 0 min 0,000 mm 2,3 UV-I 299 W/m² 4,8 °C 19,1 °C 4,8 km/h (1 Bft)
23.04.2019 16:01 19,1 °C 41 % 996,5 hPa 0,0 mm 1,3 km/h (1 Bft) N-NW 331 ° 0 min 0,203 mm 2,3 UV-I 294 W/m² 5,5 °C 19,1 °C 3,2 km/h (1 Bft)
23.04.2019 16:02 19,1 °C 42 % 996,5 hPa 0,0 mm 1,9 km/h (1 Bft) W-NW 282 ° 0 min 0,000 mm 2,3 UV-I 306 W/m² 5,9 °C 19,1 °C 4,8 km/h (1 Bft)
23.04.2019 16:03 19,1 °C 41 % 996,5 hPa 0,0 mm 2,7 km/h (1 Bft) S-SW 204 ° 0 min 0,000 mm 2,3 UV-I 311 W/m² 5,5 °C 19,1 °C 3,2 km/h (1 Bft)
23.04.2019 16:04 19,2 °C 39 % 996,5 hPa 0,0 mm 0,5 km/h (0 Bft) S-SW 205 ° 0 min 0,000 mm 2,4 UV-I 350 W/m² 4,9 °C 19,2 °C 1,6 km/h (1 Bft)
23.04.2019 16:05 19,2 °C 40 % 996,5 hPa 0,0 mm 2,5 km/h (1 Bft) W-SW 242 ° 0 min 0,000 mm 2,5 UV-I 350 W/m² 5,3 °C 19,2 °C 4,8 km/h (1 Bft)
23.04.2019 16:06 19,2 °C 42 % 996,5 hPa 0,0 mm 0,5 km/h (0 Bft) W-SW 242 ° 0 min 0,000 mm 2,5 UV-I 343 W/m² 6,0 °C 19,2 °C 1,6 km/h (1 Bft)
23.04.2019 16:07 19,3 °C 43 % 996,5 hPa 0,0 mm 0,0 km/h (0 Bft) W-SW 242 ° 0 min 0,000 mm 2,4 UV-I 332 W/m² 6,4 °C 19,3 °C 0,0 km/h (0 Bft)
23.04.2019 16:08 19,2 °C 38 % 996,5 hPa 0,0 mm 2,3 km/h (1 Bft) W-SW 243 ° 0 min 0,000 mm 2,4 UV-I 334 W/m² 4,5 °C 19,2 °C 3,2 km/h (1 Bft)
23.04.2019 16:09 19,2 °C 40 % 996,5 hPa 0,0 mm 2,5 km/h (1 Bft) W-SW 243 ° 0 min 0,000 mm 2,3 UV-I 309 W/m² 5,3 °C 19,2 °C 4,8 km/h (1 Bft)
23.04.2019 16:10 19,3 °C 41 % 996,5 hPa 0,0 mm 3,0 km/h (1 Bft) W 259 ° 0 min 0,000 mm 2,4 UV-I 366 W/m² 5,7 °C 19,3 °C 6,4 km/h (2 Bft)
23.04.2019 16:11 19,3 °C 40 % 996,5 hPa 0,0 mm 0,6 km/h (0 Bft) W-SW 258 ° 0 min 0,000 mm 2,6 UV-I 396 W/m² 5,4 °C 19,3 °C 1,6 km/h (1 Bft)
23.04.2019 16:12 19,3 °C 40 % 996,5 hPa 0,0 mm 0,0 km/h (0 Bft) W-SW 258 ° 0 min 0,000 mm 2,6 UV-I 396 W/m² 5,4 °C 19,3 °C 0,0 km/h (0 Bft)
23.04.2019 16:13 19,3 °C 43 % 996,5 hPa 0,0 mm 0,8 km/h (0 Bft) W-SW 257 ° 0 min 0,000 mm 2,5 UV-I 385 W/m² 6,4 °C 19,3 °C 3,2 km/h (1 Bft)
23.04.2019 16:14 19,3 °C 40 % 996,5 hPa 0,0 mm 1,0 km/h (0 Bft) S 183 ° 0 min 0,000 mm 2,5 UV-I 362 W/m² 5,4 °C 19,3 °C 3,2 km/h (1 Bft)
23.04.2019 16:15 19,3 °C 37 % 996,5 hPa 0,0 mm 0,9 km/h (0 Bft) N-NW 329 ° 0 min 0,000 mm 2,6 UV-I 392 W/m² 4,2 °C 19,3 °C 3,2 km/h (1 Bft)
23.04.2019 16:16 19,3 °C 38 % 996,5 hPa 0,0 mm 0,4 km/h (0 Bft) N-NW 329 ° 0 min 0,000 mm 2,6 UV-I 390 W/m² 4,6 °C 19,3 °C 1,6 km/h (1 Bft)
23.04.2019 16:17 19,4 °C 44 % 996,5 hPa 0,0 mm 0,0 km/h (0 Bft) N-NW 329 ° 0 min 0,000 mm 2,5 UV-I 390 W/m² 6,8 °C 19,4 °C 0,0 km/h (0 Bft)
23.04.2019 16:18 19,4 °C 40 % 996,5 hPa 0,0 mm 1,5 km/h (1 Bft) O-SO 119 ° 0 min 0,000 mm 2,5 UV-I 376 W/m² 5,5 °C 19,4 °C 3,2 km/h (1 Bft)
23.04.2019 16:19 19,4 °C 43 % 996,5 hPa 0,0 mm 1,1 km/h (1 Bft) O-SO 116 ° 0 min 0,000 mm 2,5 UV-I 396 W/m² 6,5 °C 19,4 °C 3,2 km/h (1 Bft)
23.04.2019 16:20 19,4 °C 38 % 996,5 hPa 0,0 mm 0,8 km/h (0 Bft) O-SO 116 ° 0 min 0,000 mm 2,5 UV-I 374 W/m² 4,7 °C 19,4 °C 1,6 km/h (1 Bft)
23.04.2019 16:21 19,4 °C 40 % 996,5 hPa 0,0 mm 0,9 km/h (0 Bft) O-SO 115 ° 0 min 0,000 mm 2,5 UV-I 383 W/m² 5,5 °C 19,4 °C 4,8 km/h (1 Bft)
23.04.2019 16:22 19,6 °C 45 % 996,5 hPa 0,0 mm 1,3 km/h (1 Bft) O-NO 78 ° 0 min 0,000 mm 2,5 UV-I 367 W/m² 7,3 °C 19,6 °C 4,8 km/h (1 Bft)
23.04.2019 16:23 19,7 °C 45 % 996,5 hPa 0,0 mm 1,3 km/h (1 Bft) O-NO 71 ° 0 min 0,000 mm 2,4 UV-I 367 W/m² 7,4 °C 19,7 °C 3,2 km/h (1 Bft)
23.04.2019 16:24 19,6 °C 38 % 996,5 hPa 0,0 mm 3,0 km/h (1 Bft) O-NO 73 ° 0 min 0,000 mm 2,3 UV-I 350 W/m² 4,9 °C 19,6 °C 4,8 km/h (1 Bft)
23.04.2019 16:25 19,7 °C 38 % 996,5 hPa 0,0 mm 3,6 km/h (1 Bft) O-NO 65 ° 0 min 0,000 mm 2,4 UV-I 360 W/m² 5,0 °C 19,7 °C 4,8 km/h (1 Bft)
23.04.2019 16:26 19,7 °C 38 % 996,5 hPa 0,0 mm 1,9 km/h (1 Bft) O-NO 64 ° 0 min 0,000 mm 2,4 UV-I 367 W/m² 5,0 °C 19,7 °C 3,2 km/h (1 Bft)
23.04.2019 16:27 19,6 °C 37 % 996,5 hPa 0,0 mm 1,9 km/h (1 Bft) NO 39 ° 0 min 0,000 mm 2,4 UV-I 378 W/m² 4,5 °C 19,6 °C 3,2 km/h (1 Bft)
23.04.2019 16:28 19,6 °C 37 % 996,6 hPa 0,0 mm 0,6 km/h (0 Bft) NO 38 ° 0 min 0,000 mm 2,4 UV-I 376 W/m² 4,5 °C 19,6 °C 3,2 km/h (1 Bft)
23.04.2019 16:29 19,6 °C 38 % 996,6 hPa 0,0 mm 1,0 km/h (0 Bft) NO 40 ° 0 min 0,000 mm 2,4 UV-I 366 W/m² 4,9 °C 19,6 °C 4,8 km/h (1 Bft)
23.04.2019 16:30 19,6 °C 38 % 996,6 hPa 0,0 mm 3,3 km/h (1 Bft) O-NO 65 ° 0 min 0,000 mm 2,3 UV-I 366 W/m² 4,9 °C 19,6 °C 4,8 km/h (1 Bft)
23.04.2019 16:31 19,7 °C 38 % 996,5 hPa 0,0 mm 0,3 km/h (0 Bft) O-NO 65 ° 0 min 0,000 mm 2,3 UV-I 332 W/m² 5,0 °C 19,7 °C 3,2 km/h (1 Bft)
23.04.2019 16:32 19,7 °C 37 % 996,5 hPa 0,0 mm 2,0 km/h (1 Bft) O-NO 65 ° 0 min 0,000 mm 2,2 UV-I 318 W/m² 4,6 °C 19,7 °C 3,2 km/h (1 Bft)
23.04.2019 16:33 19,7 °C 38 % 996,6 hPa 0,0 mm 1,5 km/h (1 Bft) O-NO 68 ° 0 min 0,000 mm 2,2 UV-I 313 W/m² 5,0 °C 19,7 °C 4,8 km/h (1 Bft)
23.04.2019 16:34 19,6 °C 38 % 996,5 hPa 0,0 mm 1,5 km/h (1 Bft) O-NO 68 ° 0 min 0,000 mm 2,2 UV-I 304 W/m² 4,9 °C 19,6 °C 3,2 km/h (1 Bft)
23.04.2019 16:35 19,6 °C 39 % 996,5 hPa 0,0 mm 3,2 km/h (1 Bft) O-NO 59 ° 0 min 0,000 mm 2,1 UV-I 318 W/m² 5,3 °C 19,6 °C 6,4 km/h (2 Bft)
23.04.2019 16:36 19,6 °C 41 % 996,6 hPa 0,0 mm 4,0 km/h (1 Bft) O 80 ° 0 min 0,000 mm 2,1 UV-I 308 W/m² 6,0 °C 19,6 °C 6,4 km/h (2 Bft)
23.04.2019 16:37 19,6 °C 39 % 996,6 hPa 0,0 mm 2,0 km/h (1 Bft) O 80 ° 0 min 0,000 mm 2,1 UV-I 292 W/m² 5,3 °C 19,6 °C 4,8 km/h (1 Bft)
23.04.2019 16:38 19,6 °C 39 % 996,6 hPa 0,0 mm 3,8 km/h (1 Bft) O-NO 78 ° 0 min 0,000 mm 2,0 UV-I 276 W/m² 5,3 °C 19,6 °C 6,4 km/h (2 Bft)
23.04.2019 16:39 19,7 °C 41 % 996,6 hPa 0,0 mm 4,0 km/h (1 Bft) O-NO 78 ° 0 min 0,000 mm 2,0 UV-I 281 W/m² 6,1 °C 19,7 °C 6,4 km/h (2 Bft)
23.04.2019 16:40 19,6 °C 39 % 996,6 hPa 0,0 mm 4,8 km/h (1 Bft) O-NO 78 ° 0 min 0,000 mm 2,1 UV-I 269 W/m² 5,3 °C 19,6 °C 8,0 km/h (2 Bft)
23.04.2019 16:41 19,6 °C 38 % 996,6 hPa 0,0 mm 3,3 km/h (1 Bft) O-NO 78 ° 0 min 0,000 mm 2,0 UV-I 269 W/m² 4,9 °C 19,6 °C 4,8 km/h (1 Bft)
23.04.2019 16:42 19,5 °C 37 % 996,6 hPa 0,0 mm 0,0 km/h (0 Bft) O-NO 78 ° 0 min 0,000 mm 2,0 UV-I 287 W/m² 4,4 °C 19,5 °C 0,0 km/h (0 Bft)
23.04.2019 16:43 19,4 °C 38 % 996,6 hPa 0,0 mm 0,0 km/h (0 Bft) O-NO 78 ° 0 min 0,000 mm 2,0 UV-I 301 W/m² 4,7 °C 19,4 °C 0,0 km/h (0 Bft)
23.04.2019 16:44 19,4 °C 36 % 996,6 hPa 0,0 mm 0,1 km/h (0 Bft) O-NO 78 ° 0 min 0,000 mm 2,0 UV-I 287 W/m² 3,9 °C 19,4 °C 1,6 km/h (1 Bft)
23.04.2019 16:45 19,4 °C 37 % 996,5 hPa 0,0 mm 1,0 km/h (0 Bft) O-NO 78 ° 0 min 0,000 mm 2,0 UV-I 276 W/m² 4,3 °C 19,4 °C 3,2 km/h (1 Bft)
23.04.2019 16:46 19,4 °C 38 % 996,5 hPa 0,0 mm 0,5 km/h (0 Bft) O-NO 78 ° 0 min 0,000 mm 1,9 UV-I 250 W/m² 4,7 °C 19,4 °C 1,6 km/h (1 Bft)
23.04.2019 16:47 19,4 °C 41 % 996,5 hPa 0,0 mm 1,3 km/h (1 Bft) O-NO 78 ° 0 min 0,000 mm 2,0 UV-I 269 W/m² 5,8 °C 19,4 °C 3,2 km/h (1 Bft)
23.04.2019 16:48 19,4 °C 39 % 996,5 hPa 0,0 mm 0,3 km/h (0 Bft) O-NO 78 ° 0 min 0,000 mm 1,9 UV-I 269 W/m² 5,1 °C 19,4 °C 1,6 km/h (1 Bft)
23.04.2019 16:49 19,4 °C 39 % 996,5 hPa 0,0 mm 1,1 km/h (1 Bft) O-NO 78 ° 0 min 0,000 mm 2,0 UV-I 279 W/m² 5,1 °C 19,4 °C 1,6 km/h (1 Bft)
23.04.2019 16:50 19,5 °C 43 % 996,5 hPa 0,0 mm 2,7 km/h (1 Bft) N-NW 338 ° 0 min 0,000 mm 2,0 UV-I 276 W/m² 6,6 °C 19,5 °C 4,8 km/h (1 Bft)
23.04.2019 16:51 19,6 °C 43 % 996,5 hPa 0,0 mm 0,5 km/h (0 Bft) N-NW 338 ° 0 min 0,000 mm 2,0 UV-I 269 W/m² 6,7 °C 19,6 °C 1,6 km/h (1 Bft)
23.04.2019 16:52 19,6 °C 39 % 996,4 hPa 0,0 mm 1,0 km/h (0 Bft) N-NW 340 ° 0 min 0,000 mm 1,9 UV-I 257 W/m² 5,3 °C 19,6 °C 3,2 km/h (1 Bft)
23.04.2019 16:53 19,6 °C 40 % 996,5 hPa 0,0 mm 0,7 km/h (0 Bft) N 355 ° 0 min 0,000 mm 1,9 UV-I 246 W/m² 5,6 °C 19,6 °C 3,2 km/h (1 Bft)
23.04.2019 16:54 19,6 °C 40 % 996,4 hPa 0,0 mm 3,4 km/h (1 Bft) O 86 ° 0 min 0,000 mm 1,8 UV-I 237 W/m² 5,6 °C 19,6 °C 6,4 km/h (2 Bft)
23.04.2019 16:55 19,6 °C 37 % 996,4 hPa 0,0 mm 5,8 km/h (2 Bft) O 86 ° 0 min 0,000 mm 1,8 UV-I 229 W/m² 4,5 °C 19,6 °C 8,0 km/h (2 Bft)
23.04.2019 16:56 19,4 °C 36 % 996,4 hPa 0,0 mm 4,4 km/h (1 Bft) O 84 ° 0 min 0,000 mm 1,8 UV-I 239 W/m² 3,9 °C 19,4 °C 6,4 km/h (2 Bft)
23.04.2019 16:57 19,4 °C 39 % 996,4 hPa 0,0 mm 5,2 km/h (1 Bft) O-SO 118 ° 0 min 0,000 mm 1,8 UV-I 236 W/m² 5,1 °C 19,4 °C 6,4 km/h (2 Bft)
23.04.2019 16:58 19,3 °C 36 % 996,4 hPa 0,0 mm 5,3 km/h (1 Bft) O-NO 62 ° 0 min 0,000 mm 1,8 UV-I 237 W/m² 3,9 °C 19,3 °C 6,4 km/h (2 Bft)
23.04.2019 16:59 19,3 °C 36 % 996,5 hPa 0,0 mm 5,2 km/h (1 Bft) O-NO 60 ° 0 min 0,000 mm 1,8 UV-I 243 W/m² 3,9 °C 19,3 °C 6,4 km/h (2 Bft)
23.04.2019 17:00 19,3 °C 37 % 996,5 hPa 0,0 mm 3,5 km/h (1 Bft) O-NO 60 ° 0 min 0,000 mm 1,9 UV-I 260 W/m² 4,2 °C 19,3 °C 4,8 km/h (1 Bft)
23.04.2019 17:01 19,2 °C 35 % 996,5 hPa 0,0 mm 1,3 km/h (1 Bft) O-NO 60 ° 0 min 0,203 mm 1,9 UV-I 276 W/m² 3,4 °C 19,2 °C 3,2 km/h (1 Bft)
23.04.2019 17:02 19,2 °C 36 % 996,5 hPa 0,0 mm 3,5 km/h (1 Bft) NO 56 ° 0 min 0,000 mm 1,8 UV-I 274 W/m² 3,8 °C 19,2 °C 6,4 km/h (2 Bft)
23.04.2019 17:03 19,2 °C 35 % 996,5 hPa 0,0 mm 1,3 km/h (1 Bft) NO 56 ° 0 min 0,000 mm 1,8 UV-I 250 W/m² 3,4 °C 19,2 °C 1,6 km/h (1 Bft)
23.04.2019 17:04 19,3 °C 36 % 996,5 hPa 0,0 mm 1,1 km/h (1 Bft) NO 56 ° 0 min 0,000 mm 1,9 UV-I 272 W/m² 3,9 °C 19,3 °C 3,2 km/h (1 Bft)
23.04.2019 17:05 19,3 °C 36 % 996,6 hPa 0,0 mm 1,1 km/h (1 Bft) NO 56 ° 0 min 0,000 mm 1,8 UV-I 285 W/m² 3,9 °C 19,3 °C 3,2 km/h (1 Bft)
23.04.2019 17:06 19,3 °C 35 % 996,6 hPa 0,0 mm 0,9 km/h (0 Bft) NO 56 ° 0 min 0,000 mm 1,8 UV-I 285 W/m² 3,5 °C 19,3 °C 1,6 km/h (1 Bft)
23.04.2019 17:07 19,3 °C 36 % 996,5 hPa 0,0 mm 0,4 km/h (0 Bft) O-NO 58 ° 0 min 0,000 mm 1,7 UV-I 258 W/m² 3,9 °C 19,3 °C 1,6 km/h (1 Bft)
23.04.2019 17:08 19,3 °C 35 % 996,5 hPa 0,0 mm 0,0 km/h (0 Bft) O-NO 57 ° 0 min 0,000 mm 1,7 UV-I 236 W/m² 3,5 °C 19,3 °C 0,0 km/h (0 Bft)
23.04.2019 17:09 19,3 °C 38 % 996,5 hPa 0,0 mm 0,0 km/h (0 Bft) O-NO 57 ° 0 min 0,000 mm 1,7 UV-I 230 W/m² 4,6 °C 19,3 °C 0,0 km/h (0 Bft)
23.04.2019 17:10 19,3 °C 38 % 996,5 hPa 0,0 mm 3,9 km/h (1 Bft) O-NO 61 ° 0 min 0,000 mm 1,7 UV-I 234 W/m² 4,6 °C 19,3 °C 6,4 km/h (2 Bft)
23.04.2019 17:11 19,4 °C 38 % 996,5 hPa 0,0 mm 3,6 km/h (1 Bft) NO 53 ° 0 min 0,000 mm 1,6 UV-I 239 W/m² 4,7 °C 19,4 °C 4,8 km/h (1 Bft)
23.04.2019 17:12 19,4 °C 35 % 996,5 hPa 0,0 mm 2,1 km/h (1 Bft) NO 53 ° 0 min 0,000 mm 1,6 UV-I 236 W/m² 3,5 °C 19,4 °C 4,8 km/h (1 Bft)
23.04.2019 17:13 19,4 °C 37 % 996,5 hPa 0,0 mm 3,9 km/h (1 Bft) NO 53 ° 0 min 0,000 mm 1,6 UV-I 225 W/m² 4,3 °C 19,4 °C 6,4 km/h (2 Bft)
23.04.2019 17:14 19,4 °C 35 % 996,5 hPa 0,0 mm 0,3 km/h (0 Bft) NO 53 ° 0 min 0,000 mm 1,6 UV-I 220 W/m² 3,5 °C 19,4 °C 1,6 km/h (1 Bft)
23.04.2019 17:15 19,4 °C 38 % 996,5 hPa 0,0 mm 0,0 km/h (0 Bft) NO 53 ° 0 min 0,000 mm 1,6 UV-I 225 W/m² 4,7 °C 19,4 °C 0,0 km/h (0 Bft)
23.04.2019 17:16 19,4 °C 36 % 996,5 hPa 0,0 mm 1,3 km/h (1 Bft) NO 53 ° 0 min 0,000 mm 1,6 UV-I 225 W/m² 3,9 °C 19,4 °C 4,8 km/h (1 Bft)
23.04.2019 17:17 19,4 °C 36 % 996,5 hPa 0,0 mm 3,7 km/h (1 Bft) NO 53 ° 0 min 0,000 mm 1,6 UV-I 221 W/m² 3,9 °C 19,4 °C 4,8 km/h (1 Bft)
23.04.2019 17:18 19,3 °C 35 % 996,5 hPa 0,0 mm 1,6 km/h (1 Bft) NO 53 ° 0 min 0,000 mm 1,6 UV-I 209 W/m² 3,5 °C 19,3 °C 4,8 km/h (1 Bft)
23.04.2019 17:19 19,3 °C 36 % 996,5 hPa 0,0 mm 0,0 km/h (0 Bft) NO 53 ° 0 min 0,000 mm 1,5 UV-I 197 W/m² 3,9 °C 19,3 °C 0,0 km/h (0 Bft)
23.04.2019 17:20 19,3 °C 35 % 996,5 hPa 0,0 mm 1,1 km/h (1 Bft) NO 53 ° 0 min 0,000 mm 1,5 UV-I 190 W/m² 3,5 °C 19,3 °C 3,2 km/h (1 Bft)
23.04.2019 17:21 19,3 °C 36 % 996,5 hPa 0,0 mm 1,8 km/h (1 Bft) NO 53 ° 0 min 0,000 mm 1,5 UV-I 185 W/m² 3,9 °C 19,3 °C 3,2 km/h (1 Bft)
23.04.2019 17:22 19,3 °C 37 % 996,5 hPa 0,0 mm 1,5 km/h (1 Bft) NO 53 ° 0 min 0,000 mm 1,5 UV-I 181 W/m² 4,2 °C 19,3 °C 3,2 km/h (1 Bft)
23.04.2019 17:23 19,4 °C 39 % 996,5 hPa 0,0 mm 3,4 km/h (1 Bft) S-SO 149 ° 0 min 0,000 mm 1,4 UV-I 178 W/m² 5,1 °C 19,4 °C 6,4 km/h (2 Bft)
23.04.2019 17:24 19,3 °C 35 % 996,5 hPa 0,0 mm 3,9 km/h (1 Bft) S 179 ° 0 min 0,000 mm 1,4 UV-I 178 W/m² 3,5 °C 19,3 °C 4,8 km/h (1 Bft)
23.04.2019 17:25 19,3 °C 37 % 996,6 hPa 0,0 mm 0,5 km/h (0 Bft) S 179 ° 0 min 0,000 mm 1,4 UV-I 176 W/m² 4,2 °C 19,3 °C 1,6 km/h (1 Bft)
23.04.2019 17:26 19,3 °C 38 % 996,5 hPa 0,0 mm 0,5 km/h (0 Bft) S-SO 164 ° 0 min 0,000 mm 1,4 UV-I 171 W/m² 4,6 °C 19,3 °C 1,6 km/h (1 Bft)
23.04.2019 17:27 19,3 °C 36 % 996,6 hPa 0,0 mm 3,5 km/h (1 Bft) S 179 ° 0 min 0,000 mm 1,4 UV-I 178 W/m² 3,9 °C 19,3 °C 6,4 km/h (2 Bft)
23.04.2019 17:28 19,3 °C 36 % 996,5 hPa 0,0 mm 2,7 km/h (1 Bft) S 177 ° 0 min 0,000 mm 1,4 UV-I 181 W/m² 3,9 °C 19,3 °C 4,8 km/h (1 Bft)
23.04.2019 17:29 19,3 °C 35 % 996,6 hPa 0,0 mm 0,8 km/h (0 Bft) S 177 ° 0 min 0,000 mm 1,4 UV-I 185 W/m² 3,5 °C 19,3 °C 3,2 km/h (1 Bft)
23.04.2019 17:30 19,2 °C 36 % 996,6 hPa 0,0 mm 1,0 km/h (0 Bft) S-SW 207 ° 0 min 0,000 mm 1,4 UV-I 197 W/m² 3,8 °C 19,2 °C 1,6 km/h (1 Bft)
23.04.2019 17:31 19,2 °C 37 % 996,6 hPa 0,0 mm 1,4 km/h (1 Bft) S-SW 207 ° 0 min 0,000 mm 1,4 UV-I 199 W/m² 4,2 °C 19,2 °C 3,2 km/h (1 Bft)
23.04.2019 17:32 19,2 °C 36 % 996,5 hPa 0,0 mm 0,1 km/h (0 Bft) S-SW 207 ° 0 min 0,000 mm 1,4 UV-I 186 W/m² 3,8 °C 19,2 °C 1,6 km/h (1 Bft)
23.04.2019 17:33 19,2 °C 37 % 996,6 hPa 0,0 mm 1,2 km/h (1 Bft) S-SW 207 ° 0 min 0,000 mm 1,4 UV-I 193 W/m² 4,2 °C 19,2 °C 3,2 km/h (1 Bft)
23.04.2019 17:34 19,2 °C 37 % 996,6 hPa 0,0 mm 0,3 km/h (0 Bft) S-SW 207 ° 0 min 0,000 mm 1,4 UV-I 179 W/m² 4,2 °C 19,2 °C 1,6 km/h (1 Bft)
23.04.2019 17:35 19,2 °C 39 % 996,6 hPa 0,0 mm 0,0 km/h (0 Bft) S-SW 207 ° 0 min 0,000 mm 1,3 UV-I 167 W/m² 4,9 °C 19,2 °C 0,0 km/h (0 Bft)
23.04.2019 17:36 19,2 °C 36 % 996,5 hPa 0,0 mm 0,0 km/h (0 Bft) S-SW 207 ° 0 min 0,000 mm 1,3 UV-I 167 W/m² 3,8 °C 19,2 °C 0,0 km/h (0 Bft)
23.04.2019 17:37 19,2 °C 36 % 996,6 hPa 0,0 mm 0,0 km/h (0 Bft) S-SW 207 ° 0 min 0,000 mm 1,4 UV-I 178 W/m² 3,8 °C 19,2 °C 0,0 km/h (0 Bft)
23.04.2019 17:38 19,2 °C 39 % 996,6 hPa 0,0 mm 0,0 km/h (0 Bft) S-SW 207 ° 0 min 0,000 mm 1,3 UV-I 176 W/m² 4,9 °C 19,2 °C 0,0 km/h (0 Bft)
23.04.2019 17:39 19,3 °C 37 % 996,6 hPa 0,0 mm 0,0 km/h (0 Bft) S-SW 207 ° 0 min 0,000 mm 1,3 UV-I 158 W/m² 4,2 °C 19,3 °C 0,0 km/h (0 Bft)
23.04.2019 17:40 19,3 °C 37 % 996,6 hPa 0,0 mm 0,0 km/h (0 Bft) S-SW 207 ° 0 min 0,000 mm 1,3 UV-I 146 W/m² 4,2 °C 19,3 °C 0,0 km/h (0 Bft)
23.04.2019 17:41 19,3 °C 38 % 996,6 hPa 0,0 mm 0,0 km/h (0 Bft) S-SW 207 ° 0 min 0,000 mm 1,3 UV-I 144 W/m² 4,6 °C 19,3 °C 0,0 km/h (0 Bft)
23.04.2019 17:42 19,3 °C 36 % 996,6 hPa 0,0 mm 0,0 km/h (0 Bft) S-SW 207 ° 0 min 0,000 mm 1,3 UV-I 144 W/m² 3,9 °C 19,3 °C 0,0 km/h (0 Bft)
23.04.2019 17:43 19,3 °C 36 % 996,6 hPa 0,0 mm 0,0 km/h (0 Bft) S-SW 207 ° 0 min 0,000 mm 1,3 UV-I 165 W/m² 3,9 °C 19,3 °C 0,0 km/h (0 Bft)
23.04.2019 17:44 19,2 °C 36 % 996,7 hPa 0,0 mm 1,6 km/h (1 Bft) S-SW 198 ° 0 min 0,000 mm 1,3 UV-I 148 W/m² 3,8 °C 19,2 °C 6,4 km/h (2 Bft)
23.04.2019 17:45 19,2 °C 37 % 996,7 hPa 0,0 mm 2,0 km/h (1 Bft) S-SW 198 ° 0 min 0,000 mm 1,2 UV-I 141 W/m² 4,2 °C 19,2 °C 4,8 km/h (1 Bft)
23.04.2019 17:46 19,3 °C 37 % 996,7 hPa 0,0 mm 0,2 km/h (0 Bft) S-SW 196 ° 0 min 0,000 mm 1,2 UV-I 142 W/m² 4,2 °C 19,3 °C 1,6 km/h (1 Bft)
23.04.2019 17:47 19,3 °C 39 % 996,7 hPa 0,0 mm 3,9 km/h (1 Bft) O-NO 67 ° 0 min 0,000 mm 1,2 UV-I 139 W/m² 5,0 °C 19,3 °C 8,0 km/h (2 Bft)
23.04.2019 17:48 19,3 °C 43 % 996,7 hPa 0,0 mm 5,4 km/h (1 Bft) O 84 ° 0 min 0,000 mm 1,2 UV-I 135 W/m² 6,4 °C 19,3 °C 9,7 km/h (2 Bft)
23.04.2019 17:49 19,3 °C 38 % 996,6 hPa 0,0 mm 1,9 km/h (1 Bft) O-NO 78 ° 0 min 0,000 mm 1,2 UV-I 135 W/m² 4,6 °C 19,3 °C 3,2 km/h (1 Bft)
23.04.2019 17:50 19,3 °C 39 % 996,7 hPa 0,0 mm 5,5 km/h (1 Bft) O-NO 57 ° 0 min 0,000 mm 1,2 UV-I 153 W/m² 5,0 °C 19,3 °C 8,0 km/h (2 Bft)
23.04.2019 17:51 19,3 °C 39 % 996,7 hPa 0,0 mm 5,3 km/h (1 Bft) O-NO 74 ° 0 min 0,000 mm 1,2 UV-I 149 W/m² 5,0 °C 19,3 °C 6,4 km/h (2 Bft)
23.04.2019 17:52 19,3 °C 40 % 996,7 hPa 0,0 mm 5,1 km/h (1 Bft) O-NO 64 ° 0 min 0,000 mm 1,2 UV-I 160 W/m² 5,4 °C 19,3 °C 9,7 km/h (2 Bft)
23.04.2019 17:53 19,3 °C 42 % 996,7 hPa 0,0 mm 6,6 km/h (2 Bft) O 96 ° 0 min 0,000 mm 1,2 UV-I 163 W/m² 6,1 °C 19,3 °C 9,7 km/h (2 Bft)
23.04.2019 17:54 19,3 °C 41 % 996,7 hPa 0,0 mm 5,1 km/h (1 Bft) O-NO 59 ° 0 min 0,000 mm 1,1 UV-I 158 W/m² 5,7 °C 19,3 °C 8,0 km/h (2 Bft)
23.04.2019 17:55 19,2 °C 40 % 996,7 hPa 0,0 mm 2,2 km/h (1 Bft) O-NO 61 ° 0 min 0,000 mm 1,1 UV-I 158 W/m² 5,3 °C 19,2 °C 6,4 km/h (2 Bft)
23.04.2019 17:56 19,2 °C 42 % 996,7 hPa 0,0 mm 3,7 km/h (1 Bft) O-NO 61 ° 0 min 0,000 mm 1,1 UV-I 128 W/m² 6,0 °C 19,2 °C 8,0 km/h (2 Bft)
23.04.2019 17:57 19,2 °C 45 % 996,7 hPa 0,0 mm 4,9 km/h (1 Bft) O-NO 74 ° 0 min 0,000 mm 1,1 UV-I 125 W/m² 7,0 °C 19,2 °C 6,4 km/h (2 Bft)
23.04.2019 17:58 19,2 °C 41 % 996,7 hPa 0,0 mm 5,5 km/h (1 Bft) O-NO 72 ° 0 min 0,000 mm 1,1 UV-I 123 W/m² 5,6 °C 19,2 °C 9,7 km/h (2 Bft)
23.04.2019 17:59 19,2 °C 43 % 996,7 hPa 0,0 mm 4,3 km/h (1 Bft) O 83 ° 0 min 0,000 mm 1,0 UV-I 123 W/m² 6,3 °C 19,2 °C 6,4 km/h (2 Bft)
23.04.2019 18:00 19,1 °C 42 % 996,6 hPa 0,0 mm 9,1 km/h (2 Bft) O-NO 76 ° 0 min 0,127 mm 1,0 UV-I 123 W/m² 5,9 °C 19,1 °C 14,5 km/h (3 Bft)
23.04.2019 18:01 19,1 °C 43 % 996,7 hPa 0,0 mm 4,2 km/h (1 Bft) O 96 ° 0 min 0,000 mm 1,0 UV-I 123 W/m² 6,2 °C 19,1 °C 6,4 km/h (2 Bft)
23.04.2019 18:02 19,1 °C 40 % 996,7 hPa 0,0 mm 7,1 km/h (2 Bft) O 88 ° 0 min 0,000 mm 1,0 UV-I 121 W/m² 5,2 °C 19,1 °C 9,7 km/h (2 Bft)
23.04.2019 18:03 18,9 °C 41 % 996,7 hPa 0,0 mm 3,9 km/h (1 Bft) O 95 ° 0 min 0,000 mm 1,0 UV-I 121 W/m² 5,4 °C 18,9 °C 6,4 km/h (2 Bft)
23.04.2019 18:04 18,9 °C 40 % 996,7 hPa 0,0 mm 3,6 km/h (1 Bft) O-NO 63 ° 0 min 0,000 mm 1,0 UV-I 123 W/m² 5,0 °C 18,9 °C 6,4 km/h (2 Bft)
23.04.2019 18:05 18,9 °C 40 % 996,6 hPa 0,0 mm 3,2 km/h (1 Bft) O 99 ° 0 min 0,000 mm 1,0 UV-I 123 W/m² 5,0 °C 18,9 °C 6,4 km/h (2 Bft)
23.04.2019 18:06 18,9 °C 42 % 996,7 hPa 0,0 mm 6,0 km/h (2 Bft) O-NO 65 ° 0 min 0,000 mm 1,0 UV-I 125 W/m² 5,7 °C 18,9 °C 9,7 km/h (2 Bft)
23.04.2019 18:07 18,8 °C 45 % 996,7 hPa 0,0 mm 2,2 km/h (1 Bft) O 86 ° 0 min 0,000 mm 1,0 UV-I 123 W/m² 6,6 °C 18,8 °C 8,0 km/h (2 Bft)
23.04.2019 18:08 18,7 °C 46 % 996,7 hPa 0,0 mm 1,2 km/h (1 Bft) O 86 ° 0 min 0,000 mm 0,9 UV-I 121 W/m² 6,8 °C 18,7 °C 3,2 km/h (1 Bft)
23.04.2019 18:09 18,5 °C 47 % 996,7 hPa 0,0 mm 2,8 km/h (1 Bft) O 85 ° 0 min 0,000 mm 0,9 UV-I 121 W/m² 7,0 °C 18,5 °C 4,8 km/h (1 Bft)
23.04.2019 18:10 18,4 °C 46 % 996,6 hPa 0,0 mm 2,7 km/h (1 Bft) O 92 ° 0 min 0,000 mm 0,9 UV-I 121 W/m² 6,6 °C 18,4 °C 4,8 km/h (1 Bft)
23.04.2019 18:11 18,4 °C 46 % 996,6 hPa 0,0 mm 0,7 km/h (0 Bft) O 89 ° 0 min 0,000 mm 0,9 UV-I 121 W/m² 6,6 °C 18,4 °C 1,6 km/h (1 Bft)
23.04.2019 18:12 18,3 °C 46 % 996,7 hPa 0,0 mm 2,1 km/h (1 Bft) O 83 ° 0 min 0,000 mm 0,9 UV-I 121 W/m² 6,5 °C 18,3 °C 3,2 km/h (1 Bft)
23.04.2019 18:13 18,2 °C 47 % 996,7 hPa 0,0 mm 1,9 km/h (1 Bft) O 92 ° 0 min 0,000 mm 0,9 UV-I 123 W/m² 6,7 °C 18,2 °C 4,8 km/h (1 Bft)
23.04.2019 18:14 18,2 °C 48 % 996,7 hPa 0,0 mm 1,2 km/h (1 Bft) O-NO 68 ° 0 min 0,000 mm 0,9 UV-I 121 W/m² 7,0 °C 18,2 °C 4,8 km/h (1 Bft)
23.04.2019 18:15 18,1 °C 46 % 996,7 hPa 0,0 mm 0,0 km/h (0 Bft) O-NO 68 ° 0 min 0,000 mm 0,9 UV-I 121 W/m² 6,3 °C 18,1 °C 0,0 km/h (0 Bft)
23.04.2019 18:16 18,1 °C 45 % 996,7 hPa 0,0 mm 0,3 km/h (0 Bft) O-NO 68 ° 0 min 0,000 mm 0,9 UV-I 120 W/m² 6,0 °C 18,1 °C 1,6 km/h (1 Bft)
23.04.2019 18:17 18,2 °C 43 % 996,7 hPa 0,0 mm 0,1 km/h (0 Bft) O-NO 68 ° 0 min 0,000 mm 0,8 UV-I 120 W/m² 5,4 °C 18,2 °C 1,6 km/h (1 Bft)
23.04.2019 18:18 18,1 °C 48 % 996,6 hPa 0,0 mm 0,0 km/h (0 Bft) O-NO 68 ° 0 min 0,000 mm 0,8 UV-I 120 W/m² 6,9 °C 18,1 °C 0,0 km/h (0 Bft)
23.04.2019 18:19 18,1 °C 49 % 996,7 hPa 0,0 mm 0,3 km/h (0 Bft) O-NO 68 ° 0 min 0,000 mm 0,8 UV-I 116 W/m² 7,2 °C 18,1 °C 3,2 km/h (1 Bft)
23.04.2019 18:20 18,0 °C 47 % 996,7 hPa 0,0 mm 0,6 km/h (0 Bft) O-NO 68 ° 0 min 0,000 mm 0,8 UV-I 118 W/m² 6,5 °C 18,0 °C 3,2 km/h (1 Bft)
23.04.2019 18:21 17,9 °C 52 % 996,7 hPa 0,0 mm 1,2 km/h (1 Bft) O-NO 68 ° 0 min 0,000 mm 0,8 UV-I 118 W/m² 7,9 °C 17,9 °C 3,2 km/h (1 Bft)
23.04.2019 18:22 17,8 °C 50 % 996,7 hPa 0,0 mm 0,2 km/h (0 Bft) O-NO 68 ° 0 min 0,000 mm 0,8 UV-I 118 W/m² 7,2 °C 17,8 °C 1,6 km/h (1 Bft)
23.04.2019 18:23 17,8 °C 48 % 996,7 hPa 0,0 mm 0,5 km/h (0 Bft) O 87 ° 0 min 0,000 mm 0,8 UV-I 114 W/m² 6,6 °C 17,8 °C 1,6 km/h (1 Bft)
23.04.2019 18:24 17,8 °C 50 % 996,7 hPa 0,0 mm 3,2 km/h (1 Bft) O-SO 110 ° 0 min 0,000 mm 0,8 UV-I 114 W/m² 7,2 °C 17,8 °C 4,8 km/h (1 Bft)
23.04.2019 18:25 17,8 °C 49 % 996,7 hPa 0,0 mm 2,7 km/h (1 Bft) O-SO 107 ° 0 min 0,000 mm 0,8 UV-I 114 W/m² 6,9 °C 17,8 °C 4,8 km/h (1 Bft)
23.04.2019 18:26 17,9 °C 46 % 996,7 hPa 0,0 mm 0,7 km/h (0 Bft) O 90 ° 0 min 0,000 mm 0,8 UV-I 113 W/m² 6,1 °C 17,9 °C 3,2 km/h (1 Bft)
23.04.2019 18:27 17,9 °C 49 % 996,7 hPa 0,0 mm 1,9 km/h (1 Bft) O-NO 68 ° 0 min 0,000 mm 0,8 UV-I 111 W/m² 7,0 °C 17,9 °C 4,8 km/h (1 Bft)
23.04.2019 18:28 17,8 °C 49 % 996,7 hPa 0,0 mm 0,8 km/h (0 Bft) O-NO 68 ° 0 min 0,000 mm 0,7 UV-I 109 W/m² 6,9 °C 17,8 °C 1,6 km/h (1 Bft)
23.04.2019 18:29 17,7 °C 52 % 996,7 hPa 0,0 mm 0,1 km/h (0 Bft) O-NO 68 ° 0 min 0,000 mm 0,7 UV-I 107 W/m² 7,7 °C 17,7 °C 1,6 km/h (1 Bft)
23.04.2019 18:30 17,7 °C 49 % 996,7 hPa 0,0 mm 0,0 km/h (0 Bft) O-NO 68 ° 0 min 0,000 mm 0,7 UV-I 105 W/m² 6,9 °C 17,7 °C 0,0 km/h (0 Bft)
23.04.2019 18:31 17,6 °C 48 % 996,7 hPa 0,0 mm 0,0 km/h (0 Bft) O-NO 68 ° 0 min 0,000 mm 0,7 UV-I 104 W/m² 6,5 °C 17,6 °C 0,0 km/h (0 Bft)
23.04.2019 18:32 17,7 °C 45 % 996,7 hPa 0,0 mm 0,1 km/h (0 Bft) O-NO 68 ° 0 min 0,000 mm 0,7 UV-I 102 W/m² 5,6 °C 17,7 °C 1,6 km/h (1 Bft)
23.04.2019 18:33 17,7 °C 49 % 996,7 hPa 0,0 mm 0,0 km/h (0 Bft) O-NO 68 ° 0 min 0,000 mm 0,7 UV-I 100 W/m² 6,9 °C 17,7 °C 0,0 km/h (0 Bft)
23.04.2019 18:34 17,6 °C 48 % 996,7 hPa 0,0 mm 0,0 km/h (0 Bft) O-NO 68 ° 0 min 0,000 mm 0,7 UV-I 98 W/m² 6,5 °C 17,6 °C 0,0 km/h (0 Bft)
23.04.2019 18:35 17,7 °C 48 % 996,7 hPa 0,0 mm 0,0 km/h (0 Bft) O-NO 68 ° 0 min 0,000 mm 0,7 UV-I 98 W/m² 6,6 °C 17,7 °C 0,0 km/h (0 Bft)
23.04.2019 18:36 17,6 °C 51 % 996,7 hPa 0,0 mm 0,0 km/h (0 Bft) O-NO 68 ° 0 min 0,000 mm 0,7 UV-I 98 W/m² 7,3 °C 17,6 °C 0,0 km/h (0 Bft)
23.04.2019 18:37 17,6 °C 50 % 996,8 hPa 0,0 mm 0,0 km/h (0 Bft) O-NO 68 ° 0 min 0,000 mm 0,7 UV-I 93 W/m² 7,1 °C 17,6 °C 0,0 km/h (0 Bft)
23.04.2019 18:38 17,5 °C 49 % 996,7 hPa 0,0 mm 0,0 km/h (0 Bft) O-NO 68 ° 0 min 0,000 mm 0,6 UV-I 93 W/m² 6,7 °C 17,5 °C 0,0 km/h (0 Bft)
23.04.2019 18:39 17,4 °C 51 % 996,8 hPa 0,0 mm 1,7 km/h (1 Bft) O-NO 68 ° 0 min 0,000 mm 0,6 UV-I 91 W/m² 7,2 °C 17,4 °C 4,8 km/h (1 Bft)
23.04.2019 18:40 17,4 °C 49 % 996,7 hPa 0,0 mm 0,9 km/h (0 Bft) O 88 ° 0 min 0,000 mm 0,6 UV-I 90 W/m² 6,6 °C 17,4 °C 3,2 km/h (1 Bft)
23.04.2019 18:41 17,4 °C 49 % 996,7 hPa 0,0 mm 2,6 km/h (1 Bft) O 88 ° 0 min 0,000 mm 0,6 UV-I 90 W/m² 6,6 °C 17,4 °C 3,2 km/h (1 Bft)
23.04.2019 18:42 17,3 °C 53 % 996,7 hPa 0,0 mm 1,0 km/h (0 Bft) O 88 ° 0 min 0,000 mm 0,6 UV-I 88 W/m² 7,6 °C 17,3 °C 1,6 km/h (1 Bft)
23.04.2019 18:43 17,3 °C 48 % 996,7 hPa 0,0 mm 0,9 km/h (0 Bft) O 88 ° 0 min 0,000 mm 0,6 UV-I 86 W/m² 6,2 °C 17,3 °C 3,2 km/h (1 Bft)
23.04.2019 18:44 17,3 °C 51 % 996,7 hPa 0,0 mm 1,5 km/h (1 Bft) S-SO 167 ° 0 min 0,000 mm 0,6 UV-I 86 W/m² 7,1 °C 17,3 °C 4,8 km/h (1 Bft)
23.04.2019 18:45 17,3 °C 49 % 996,7 hPa 0,0 mm 2,5 km/h (1 Bft) O-SO 123 ° 0 min 0,000 mm 0,6 UV-I 84 W/m² 6,5 °C 17,3 °C 4,8 km/h (1 Bft)
23.04.2019 18:46 17,3 °C 50 % 996,7 hPa 0,0 mm 2,7 km/h (1 Bft) O 95 ° 0 min 0,000 mm 0,6 UV-I 84 W/m² 6,8 °C 17,3 °C 6,4 km/h (2 Bft)
23.04.2019 18:47 17,2 °C 52 % 996,7 hPa 0,0 mm 4,1 km/h (1 Bft) SO 132 ° 0 min 0,000 mm 0,6 UV-I 83 W/m² 7,3 °C 17,2 °C 6,4 km/h (2 Bft)
23.04.2019 18:48 17,2 °C 50 % 996,6 hPa 0,0 mm 3,0 km/h (1 Bft) O-SO 121 ° 0 min 0,000 mm 0,5 UV-I 81 W/m² 6,7 °C 17,2 °C 4,8 km/h (1 Bft)
23.04.2019 18:49 17,1 °C 51 % 996,7 hPa 0,0 mm 3,4 km/h (1 Bft) O-NO 74 ° 0 min 0,000 mm 0,5 UV-I 79 W/m² 6,9 °C 17,1 °C 4,8 km/h (1 Bft)
23.04.2019 18:50 17,0 °C 53 % 996,7 hPa 0,0 mm 2,5 km/h (1 Bft) O-NO 74 ° 0 min 0,000 mm 0,5 UV-I 76 W/m² 7,4 °C 17,0 °C 4,8 km/h (1 Bft)
23.04.2019 18:51 16,9 °C 52 % 996,7 hPa 0,0 mm 0,2 km/h (0 Bft) O-NO 74 ° 0 min 0,000 mm 0,5 UV-I 76 W/m² 7,0 °C 16,9 °C 1,6 km/h (1 Bft)
23.04.2019 18:52 16,9 °C 51 % 996,7 hPa 0,0 mm 0,0 km/h (0 Bft) O-NO 74 ° 0 min 0,000 mm 0,5 UV-I 72 W/m² 6,7 °C 16,9 °C 0,0 km/h (0 Bft)
23.04.2019 18:53 16,9 °C 50 % 996,7 hPa 0,0 mm 0,0 km/h (0 Bft) O-NO 74 ° 0 min 0,000 mm 0,5 UV-I 70 W/m² 6,4 °C 16,9 °C 0,0 km/h (0 Bft)
23.04.2019 18:54 16,8 °C 50 % 996,7 hPa 0,0 mm 0,5 km/h (0 Bft) O-NO 74 ° 0 min 0,000 mm 0,5 UV-I 67 W/m² 6,3 °C 16,8 °C 1,6 km/h (1 Bft)
23.04.2019 18:55 16,8 °C 51 % 996,7 hPa 0,0 mm 0,2 km/h (0 Bft) O-NO 74 ° 0 min 0,000 mm 0,5 UV-I 63 W/m² 6,6 °C 16,8 °C 1,6 km/h (1 Bft)
23.04.2019 18:56 16,8 °C 54 % 996,7 hPa 0,0 mm 1,1 km/h (1 Bft) O-NO 74 ° 0 min 0,000 mm 0,5 UV-I 60 W/m² 7,4 °C 16,8 °C 3,2 km/h (1 Bft)
23.04.2019 18:57 16,8 °C 50 % 996,6 hPa 0,0 mm 0,7 km/h (0 Bft) O-NO 74 ° 0 min 0,000 mm 0,5 UV-I 58 W/m² 6,3 °C 16,8 °C 1,6 km/h (1 Bft)
23.04.2019 18:58 16,8 °C 51 % 996,7 hPa 0,0 mm 4,9 km/h (1 Bft) O 83 ° 0 min 0,000 mm 0,5 UV-I 58 W/m² 6,6 °C 16,8 °C 6,4 km/h (2 Bft)
23.04.2019 18:59 16,7 °C 50 % 996,6 hPa 0,0 mm 0,0 km/h (0 Bft) O 83 ° 0 min 0,000 mm 0,5 UV-I 56 W/m² 6,2 °C 16,7 °C 0,0 km/h (0 Bft)
23.04.2019 19:00 16,7 °C 50 % 996,7 hPa 0,0 mm 0,0 km/h (0 Bft) O 83 ° 0 min 0,000 mm 0,0 UV-I 54 W/m² 6,2 °C 16,7 °C 0,0 km/h (0 Bft)
23.04.2019 19:01 16,7 °C 49 % 996,7 hPa 0,0 mm 0,1 km/h (0 Bft) O 83 ° 0 min 0,076 mm 0,0 UV-I 53 W/m² 5,9 °C 16,7 °C 1,6 km/h (1 Bft)
23.04.2019 19:02 16,7 °C 51 % 996,7 hPa 0,0 mm 0,7 km/h (0 Bft) O 83 ° 0 min 0,000 mm 0,0 UV-I 53 W/m² 6,5 °C 16,7 °C 1,6 km/h (1 Bft)
23.04.2019 19:03 16,7 °C 50 % 996,7 hPa 0,0 mm 0,1 km/h (0 Bft) O 83 ° 0 min 0,000 mm 0,0 UV-I 51 W/m² 6,2 °C 16,7 °C 1,6 km/h (1 Bft)
23.04.2019 19:04 16,7 °C 51 % 996,7 hPa 0,0 mm 0,1 km/h (0 Bft) O 83 ° 0 min 0,000 mm 0,0 UV-I 49 W/m² 6,5 °C 16,7 °C 1,6 km/h (1 Bft)
23.04.2019 19:05 16,6 °C 50 % 996,7 hPa 0,0 mm 0,0 km/h (0 Bft) O 83 ° 0 min 0,000 mm 0,0 UV-I 49 W/m² 6,1 °C 16,6 °C 0,0 km/h (0 Bft)
23.04.2019 19:06 16,7 °C 49 % 996,7 hPa 0,0 mm 1,7 km/h (1 Bft) O 83 ° 0 min 0,000 mm 0,0 UV-I 46 W/m² 5,9 °C 16,7 °C 3,2 km/h (1 Bft)
23.04.2019 19:07 16,6 °C 50 % 996,7 hPa 0,0 mm 0,7 km/h (0 Bft) O 83 ° 0 min 0,000 mm 0,0 UV-I 44 W/m² 6,1 °C 16,6 °C 3,2 km/h (1 Bft)
23.04.2019 19:08 16,6 °C 51 % 996,7 hPa 0,0 mm 1,7 km/h (1 Bft) O 84 ° 0 min 0,000 mm 0,0 UV-I 44 W/m² 6,4 °C 16,6 °C 3,2 km/h (1 Bft)
23.04.2019 19:09 16,4 °C 50 % 996,7 hPa 0,0 mm 0,0 km/h (0 Bft) O 84 ° 0 min 0,000 mm 0,0 UV-I 42 W/m² 6,0 °C 16,4 °C 0,0 km/h (0 Bft)
23.04.2019 19:10 16,4 °C 50 % 996,7 hPa 0,0 mm 0,0 km/h (0 Bft) O 84 ° 0 min 0,000 mm 0,0 UV-I 42 W/m² 6,0 °C 16,4 °C 0,0 km/h (0 Bft)
23.04.2019 19:11 16,4 °C 50 % 996,7 hPa 0,0 mm 0,0 km/h (0 Bft) O 84 ° 0 min 0,000 mm 0,0 UV-I 42 W/m² 6,0 °C 16,4 °C 0,0 km/h (0 Bft)
23.04.2019 19:12 16,4 °C 49 % 996,7 hPa 0,0 mm 0,0 km/h (0 Bft) O 84 ° 0 min 0,000 mm 0,0 UV-I 40 W/m² 5,7 °C 16,4 °C 0,0 km/h (0 Bft)
23.04.2019 19:13 16,4 °C 49 % 996,7 hPa 0,0 mm 0,0 km/h (0 Bft) O 84 ° 0 min 0,000 mm 0,0 UV-I 40 W/m² 5,7 °C 16,4 °C 0,0 km/h (0 Bft)
23.04.2019 19:14 16,3 °C 52 % 996,7 hPa 0,0 mm 0,0 km/h (0 Bft) O 84 ° 0 min 0,000 mm 0,0 UV-I 40 W/m² 6,4 °C 16,3 °C 0,0 km/h (0 Bft)
23.04.2019 19:15 16,2 °C 55 % 996,7 hPa 0,0 mm 0,0 km/h (0 Bft) O 84 ° 0 min 0,000 mm 0,0 UV-I 40 W/m² 7,2 °C 16,2 °C 0,0 km/h (0 Bft)
23.04.2019 19:16 16,0 °C 52 % 996,7 hPa 0,0 mm 0,0 km/h (0 Bft) O 84 ° 0 min 0,000 mm 0,0 UV-I 40 W/m² 6,2 °C 16,0 °C 0,0 km/h (0 Bft)
23.04.2019 19:17 15,9 °C 53 % 996,7 hPa 0,0 mm 0,2 km/h (0 Bft) O 84 ° 0 min 0,000 mm 0,0 UV-I 42 W/m² 6,3 °C 15,9 °C 1,6 km/h (1 Bft)
23.04.2019 19:18 15,9 °C 52 % 996,7 hPa 0,0 mm 0,0 km/h (0 Bft) O 84 ° 0 min 0,000 mm 0,0 UV-I 44 W/m² 6,1 °C 15,9 °C 0,0 km/h (0 Bft)
23.04.2019 19:19 15,9 °C 53 % 996,7 hPa 0,0 mm 0,0 km/h (0 Bft) O 84 ° 0 min 0,000 mm 0,0 UV-I 49 W/m² 6,3 °C 15,9 °C 0,0 km/h (0 Bft)
23.04.2019 19:20 15,8 °C 53 % 996,7 hPa 0,0 mm 0,7 km/h (0 Bft) O-NO 69 ° 0 min 0,000 mm 0,0 UV-I 51 W/m² 6,2 °C 15,8 °C 4,8 km/h (1 Bft)
23.04.2019 19:21 15,9 °C 52 % 996,7 hPa 0,0 mm 2,0 km/h (1 Bft) O 79 ° 0 min 0,000 mm 0,0 UV-I 54 W/m² 6,1 °C 15,9 °C 3,2 km/h (1 Bft)
23.04.2019 19:22 15,8 °C 53 % 996,7 hPa 0,0 mm 0,2 km/h (0 Bft) O 79 ° 0 min 0,000 mm 0,0 UV-I 56 W/m² 6,2 °C 15,8 °C 1,6 km/h (1 Bft)
23.04.2019 19:23 15,8 °C 53 % 996,7 hPa 0,0 mm 0,0 km/h (0 Bft) O 79 ° 0 min 0,000 mm 0,0 UV-I 60 W/m² 6,2 °C 15,8 °C 0,0 km/h (0 Bft)
23.04.2019 19:24 15,8 °C 53 % 996,7 hPa 0,0 mm 2,4 km/h (1 Bft) O 95 ° 0 min 0,000 mm 0,0 UV-I 58 W/m² 6,2 °C 15,8 °C 6,4 km/h (2 Bft)
23.04.2019 19:25 15,8 °C 53 % 996,7 hPa 0,0 mm 0,8 km/h (0 Bft) O 95 ° 0 min 0,000 mm 0,0 UV-I 56 W/m² 6,2 °C 15,8 °C 3,2 km/h (1 Bft)
23.04.2019 19:26 15,8 °C 52 % 996,7 hPa 0,0 mm 0,3 km/h (0 Bft) O 96 ° 0 min 0,000 mm 0,0 UV-I 54 W/m² 6,0 °C 15,8 °C 1,6 km/h (1 Bft)
23.04.2019 19:27 15,9 °C 51 % 996,7 hPa 0,0 mm 0,0 km/h (0 Bft) O 95 ° 0 min 0,000 mm 0,0 UV-I 54 W/m² 5,8 °C 15,9 °C 0,0 km/h (0 Bft)
23.04.2019 19:28 15,9 °C 53 % 996,7 hPa 0,0 mm 4,9 km/h (1 Bft) S 173 ° 0 min 0,000 mm 0,0 UV-I 53 W/m² 6,3 °C 15,9 °C 11,3 km/h (2 Bft)
23.04.2019 19:29 15,9 °C 52 % 996,7 hPa 0,0 mm 3,3 km/h (1 Bft) N-NO 32 ° 0 min 0,000 mm 0,0 UV-I 51 W/m² 6,1 °C 15,9 °C 6,4 km/h (2 Bft)
23.04.2019 19:30 15,9 °C 50 % 996,7 hPa 0,0 mm 4,2 km/h (1 Bft) O-SO 109 ° 0 min 0,000 mm 0,0 UV-I 47 W/m² 5,5 °C 15,9 °C 8,0 km/h (2 Bft)
23.04.2019 19:31 15,9 °C 50 % 996,7 hPa 0,0 mm 0,5 km/h (0 Bft) N-NO 30 ° 0 min 0,000 mm 0,0 UV-I 46 W/m² 5,5 °C 15,9 °C 3,2 km/h (1 Bft)
23.04.2019 19:32 16,0 °C 51 % 996,7 hPa 0,0 mm 0,6 km/h (0 Bft) N-NO 28 ° 0 min 0,000 mm 0,0 UV-I 42 W/m² 5,9 °C 16,0 °C 3,2 km/h (1 Bft)
23.04.2019 19:33 16,1 °C 50 % 996,7 hPa 0,0 mm 0,5 km/h (0 Bft) O-NO 64 ° 0 min 0,000 mm 0,0 UV-I 40 W/m² 5,7 °C 16,1 °C 1,6 km/h (1 Bft)
23.04.2019 19:34 16,0 °C 50 % 996,8 hPa 0,0 mm 0,0 km/h (0 Bft) O-NO 64 ° 0 min 0,000 mm 0,0 UV-I 40 W/m² 5,6 °C 16,0 °C 0,0 km/h (0 Bft)
23.04.2019 19:35 16,0 °C 49 % 996,8 hPa 0,0 mm 1,1 km/h (1 Bft) NW 323 ° 0 min 0,000 mm 0,0 UV-I 35 W/m² 5,3 °C 16,0 °C 4,8 km/h (1 Bft)
23.04.2019 19:36 15,9 °C 52 % 996,8 hPa 0,0 mm 1,5 km/h (1 Bft) SO 124 ° 0 min 0,000 mm 0,0 UV-I 33 W/m² 6,1 °C 15,9 °C 3,2 km/h (1 Bft)
23.04.2019 19:37 15,9 °C 49 % 996,9 hPa 0,0 mm 0,5 km/h (0 Bft) O-NO 75 ° 0 min 0,000 mm 0,0 UV-I 30 W/m² 5,2 °C 15,9 °C 3,2 km/h (1 Bft)
23.04.2019 19:38 15,9 °C 50 % 996,8 hPa 0,0 mm 0,5 km/h (0 Bft) O 80 ° 0 min 0,000 mm 0,0 UV-I 30 W/m² 5,5 °C 15,9 °C 3,2 km/h (1 Bft)
23.04.2019 19:39 15,9 °C 50 % 996,8 hPa 0,0 mm 0,8 km/h (0 Bft) O 80 ° 0 min 0,000 mm 0,0 UV-I 30 W/m² 5,5 °C 15,9 °C 3,2 km/h (1 Bft)
23.04.2019 19:40 15,7 °C 52 % 996,8 hPa 0,0 mm 3,1 km/h (1 Bft) O 94 ° 0 min 0,000 mm 0,0 UV-I 26 W/m² 5,9 °C 15,7 °C 8,0 km/h (2 Bft)
23.04.2019 19:41 15,5 °C 52 % 996,9 hPa 0,0 mm 0,5 km/h (0 Bft) O-NO 76 ° 0 min 0,000 mm 0,0 UV-I 25 W/m² 5,7 °C 15,5 °C 1,6 km/h (1 Bft)
23.04.2019 19:42 15,4 °C 52 % 996,9 hPa 0,0 mm 0,6 km/h (0 Bft) O-NO 74 ° 0 min 0,000 mm 0,0 UV-I 23 W/m² 5,6 °C 15,4 °C 3,2 km/h (1 Bft)
23.04.2019 19:43 15,3 °C 51 % 996,9 hPa 0,0 mm 1,0 km/h (0 Bft) NW 325 ° 0 min 0,000 mm 0,0 UV-I 23 W/m² 5,2 °C 15,3 °C 4,8 km/h (1 Bft)
23.04.2019 19:44 15,3 °C 51 % 996,8 hPa 0,0 mm 0,3 km/h (0 Bft) NW 321 ° 0 min 0,000 mm 0,0 UV-I 21 W/m² 5,2 °C 15,3 °C 3,2 km/h (1 Bft)
23.04.2019 19:45 15,3 °C 50 % 996,9 hPa 0,0 mm 0,8 km/h (0 Bft) SW 215 ° 0 min 0,000 mm 0,0 UV-I 21 W/m² 4,9 °C 15,3 °C 3,2 km/h (1 Bft)
23.04.2019 19:46 15,4 °C 52 % 996,8 hPa 0,0 mm 1,6 km/h (1 Bft) O-NO 63 ° 0 min 0,000 mm 0,0 UV-I 21 W/m² 5,6 °C 15,4 °C 3,2 km/h (1 Bft)
23.04.2019 19:47 15,3 °C 52 % 996,9 hPa 0,0 mm 0,5 km/h (0 Bft) O-NO 66 ° 0 min 0,000 mm 0,0 UV-I 19 W/m² 5,5 °C 15,3 °C 3,2 km/h (1 Bft)
23.04.2019 19:48 15,2 °C 52 % 996,8 hPa 0,0 mm 3,0 km/h (1 Bft) NO 36 ° 0 min 0,000 mm 0,0 UV-I 19 W/m² 5,4 °C 15,2 °C 4,8 km/h (1 Bft)
23.04.2019 19:49 15,2 °C 52 % 996,9 hPa 0,0 mm 0,2 km/h (0 Bft) NO 40 ° 0 min 0,000 mm 0,0 UV-I 18 W/m² 5,4 °C 15,2 °C 1,6 km/h (1 Bft)
23.04.2019 19:50 15,2 °C 51 % 996,8 hPa 0,0 mm 0,0 km/h (0 Bft) NO 40 ° 0 min 0,000 mm 0,0 UV-I 18 W/m² 5,1 °C 15,2 °C 0,0 km/h (0 Bft)
23.04.2019 19:51 15,2 °C 51 % 996,8 hPa 0,0 mm 0,5 km/h (0 Bft) N 360 ° 0 min 0,000 mm 0,0 UV-I 18 W/m² 5,1 °C 15,2 °C 1,6 km/h (1 Bft)
23.04.2019 19:52 15,1 °C 51 % 996,8 hPa 0,0 mm 3,4 km/h (1 Bft) NO 42 ° 0 min 0,000 mm 0,0 UV-I 18 W/m² 5,0 °C 15,1 °C 6,4 km/h (2 Bft)
23.04.2019 19:53 15,1 °C 52 % 996,9 hPa 0,0 mm 1,2 km/h (1 Bft) O 90 ° 0 min 0,000 mm 0,0 UV-I 16 W/m² 5,3 °C 15,1 °C 3,2 km/h (1 Bft)
23.04.2019 19:54 14,9 °C 52 % 996,8 hPa 0,0 mm 0,1 km/h (0 Bft) O 90 ° 0 min 0,000 mm 0,0 UV-I 14 W/m² 5,1 °C 14,9 °C 1,6 km/h (1 Bft)
23.04.2019 19:55 14,9 °C 52 % 996,8 hPa 0,0 mm 0,0 km/h (0 Bft) O 90 ° 0 min 0,000 mm 0,0 UV-I 14 W/m² 5,1 °C 14,9 °C 0,0 km/h (0 Bft)
23.04.2019 19:56 14,9 °C 52 % 996,9 hPa 0,0 mm 0,8 km/h (0 Bft) O 88 ° 0 min 0,000 mm 0,0 UV-I 14 W/m² 5,1 °C 14,9 °C 1,6 km/h (1 Bft)
23.04.2019 19:57 14,9 °C 51 % 996,8 hPa 0,0 mm 0,3 km/h (0 Bft) O 88 ° 0 min 0,000 mm 0,0 UV-I 14 W/m² 4,9 °C 14,9 °C 1,6 km/h (1 Bft)
23.04.2019 19:58 14,9 °C 51 % 996,9 hPa 0,0 mm 0,0 km/h (0 Bft) O-NO 58 ° 0 min 0,000 mm 0,0 UV-I 12 W/m² 4,9 °C 14,9 °C 0,0 km/h (0 Bft)
23.04.2019 19:59 14,8 °C 52 % 996,9 hPa 0,0 mm 0,7 km/h (0 Bft) SO 134 ° 0 min 0,000 mm 0,0 UV-I 12 W/m² 5,0 °C 14,8 °C 3,2 km/h (1 Bft)
23.04.2019 20:00 14,8 °C 51 % 996,9 hPa 0,0 mm 1,1 km/h (1 Bft) O-SO 120 ° 0 min 0,000 mm 0,0 UV-I 11 W/m² 4,8 °C 14,8 °C 3,2 km/h (1 Bft)
23.04.2019 20:01 14,8 °C 52 % 996,9 hPa 0,0 mm 0,0 km/h (0 Bft) O-SO 120 ° 0 min 0,026 mm 0,0 UV-I 11 W/m² 5,0 °C 14,8 °C 0,0 km/h (0 Bft)
23.04.2019 20:02 14,8 °C 52 % 996,9 hPa 0,0 mm 0,0 km/h (0 Bft) O-SO 120 ° 0 min 0,000 mm 0,0 UV-I 11 W/m² 5,0 °C 14,8 °C 0,0 km/h (0 Bft)
23.04.2019 20:03 14,8 °C 52 % 997,0 hPa 0,0 mm 0,0 km/h (0 Bft) O-SO 120 ° 0 min 0,000 mm 0,0 UV-I 11 W/m² 5,0 °C 14,8 °C 0,0 km/h (0 Bft)
23.04.2019 20:04 14,8 °C 52 % 996,9 hPa 0,0 mm 0,0 km/h (0 Bft) O-SO 120 ° 0 min 0,000 mm 0,0 UV-I 9 W/m² 5,0 °C 14,8 °C 0,0 km/h (0 Bft)
23.04.2019 20:05 14,8 °C 52 % 996,9 hPa 0,0 mm 0,0 km/h (0 Bft) O-SO 120 ° 0 min 0,000 mm 0,0 UV-I 9 W/m² 5,0 °C 14,8 °C 0,0 km/h (0 Bft)
23.04.2019 20:06 14,8 °C 52 % 996,8 hPa 0,0 mm 0,2 km/h (0 Bft) O-SO 120 ° 0 min 0,000 mm 0,0 UV-I 9 W/m² 5,0 °C 14,8 °C 1,6 km/h (1 Bft)
23.04.2019 20:07 14,7 °C 52 % 996,9 hPa 0,0 mm 0,0 km/h (0 Bft) O-SO 120 ° 0 min 0,000 mm 0,0 UV-I 7 W/m² 5,0 °C 14,7 °C 0,0 km/h (0 Bft)
23.04.2019 20:08 14,6 °C 52 % 996,9 hPa 0,0 mm 0,8 km/h (0 Bft) O-SO 119 ° 0 min 0,000 mm 0,0 UV-I 7 W/m² 4,9 °C 14,6 °C 3,2 km/h (1 Bft)
23.04.2019 20:09 14,6 °C 52 % 996,9 hPa 0,0 mm 1,8 km/h (1 Bft) NW 316 ° 0 min 0,000 mm 0,0 UV-I 7 W/m² 4,9 °C 14,6 °C 3,2 km/h (1 Bft)
23.04.2019 20:10 14,5 °C 52 % 997,0 hPa 0,0 mm 1,0 km/h (0 Bft) N-NO 33 ° 0 min 0,000 mm 0,0 UV-I 7 W/m² 4,8 °C 14,5 °C 4,8 km/h (1 Bft)
23.04.2019 20:11 14,4 °C 53 % 997,0 hPa 0,0 mm 0,2 km/h (0 Bft) NO 34 ° 0 min 0,000 mm 0,0 UV-I 5 W/m² 4,9 °C 14,4 °C 1,6 km/h (1 Bft)
23.04.2019 20:12 14,4 °C 52 % 997,0 hPa 0,0 mm 0,0 km/h (0 Bft) NO 34 ° 0 min 0,000 mm 0,0 UV-I 5 W/m² 4,7 °C 14,4 °C 0,0 km/h (0 Bft)
23.04.2019 20:13 14,4 °C 52 % 997,0 hPa 0,0 mm 0,2 km/h (0 Bft) NO 34 ° 0 min 0,000 mm 0,0 UV-I 5 W/m² 4,7 °C 14,4 °C 1,6 km/h (1 Bft)
23.04.2019 20:14 14,4 °C 53 % 997,1 hPa 0,0 mm 1,4 km/h (1 Bft) NO 34 ° 0 min 0,000 mm 0,0 UV-I 5 W/m² 4,9 °C 14,4 °C 4,8 km/h (1 Bft)
23.04.2019 20:15 14,4 °C 53 % 997,1 hPa 0,0 mm 0,6 km/h (0 Bft) O-SO 105 ° 0 min 0,000 mm 0,0 UV-I 5 W/m² 4,9 °C 14,4 °C 3,2 km/h (1 Bft)
23.04.2019 20:16 14,4 °C 52 % 997,1 hPa 0,0 mm 0,7 km/h (0 Bft) O-SO 105 ° 0 min 0,000 mm 0,0 UV-I 0 W/m² 4,7 °C 14,4 °C 3,2 km/h (1 Bft)
23.04.2019 20:17 14,4 °C 53 % 997,1 hPa 0,0 mm 0,1 km/h (0 Bft) N 351 ° 0 min 0,000 mm 0,0 UV-I 0 W/m² 4,9 °C 14,4 °C 1,6 km/h (1 Bft)
23.04.2019 20:18 14,4 °C 52 % 997,1 hPa 0,0 mm 0,0 km/h (0 Bft) NO 54 ° 0 min 0,000 mm 0,0 UV-I 0 W/m² 4,7 °C 14,4 °C 0,0 km/h (0 Bft)
23.04.2019 20:19 14,4 °C 51 % 997,1 hPa 0,0 mm 0,0 km/h (0 Bft) NO 54 ° 0 min 0,000 mm 0,0 UV-I 0 W/m² 4,4 °C 14,4 °C 0,0 km/h (0 Bft)
23.04.2019 20:20 14,4 °C 51 % 997,1 hPa 0,0 mm 0,0 km/h (0 Bft) NO 54 ° 0 min 0,000 mm 0,0 UV-I 0 W/m² 4,4 °C 14,4 °C 0,0 km/h (0 Bft)
23.04.2019 20:21 14,4 °C 53 % 997,1 hPa 0,0 mm 0,6 km/h (0 Bft) O 99 ° 0 min 0,000 mm 0,0 UV-I 0 W/m² 4,9 °C 14,4 °C 1,6 km/h (1 Bft)
23.04.2019 20:22 14,3 °C 52 % 997,1 hPa 0,0 mm 0,3 km/h (0 Bft) O 96 ° 0 min 0,000 mm 0,0 UV-I 0 W/m² 4,6 °C 14,3 °C 1,6 km/h (1 Bft)
23.04.2019 20:23 14,3 °C 52 % 997,1 hPa 0,0 mm 2,2 km/h (1 Bft) NO 36 ° 0 min 0,000 mm 0,0 UV-I 0 W/m² 4,6 °C 14,3 °C 4,8 km/h (1 Bft)
23.04.2019 20:24 14,2 °C 52 % 997,1 hPa 0,0 mm 0,0 km/h (0 Bft) NO 37 ° 0 min 0,000 mm 0,0 UV-I 0 W/m² 4,5 °C 14,2 °C 0,0 km/h (0 Bft)
23.04.2019 20:25 14,2 °C 52 % 997,1 hPa 0,0 mm 0,0 km/h (0 Bft) NO 36 ° 0 min 0,000 mm 0,0 UV-I 0 W/m² 4,5 °C 14,2 °C 0,0 km/h (0 Bft)
23.04.2019 20:26 14,2 °C 52 % 997,2 hPa 0,0 mm 0,0 km/h (0 Bft) NO 36 ° 0 min 0,000 mm 0,0 UV-I 0 W/m² 4,5 °C 14,2 °C 0,0 km/h (0 Bft)
23.04.2019 20:27 14,1 °C 52 % 997,1 hPa 0,0 mm 1,3 km/h (1 Bft) S 183 ° 0 min 0,000 mm 0,0 UV-I 0 W/m² 4,4 °C 14,1 °C 6,4 km/h (2 Bft)
23.04.2019 20:28 14,1 °C 52 % 997,2 hPa 0,0 mm 1,3 km/h (1 Bft) S-SO 166 ° 0 min 0,000 mm 0,0 UV-I 0 W/m² 4,4 °C 14,1 °C 6,4 km/h (2 Bft)
23.04.2019 20:29 14,1 °C 52 % 997,2 hPa 0,0 mm 0,4 km/h (0 Bft) NO 53 ° 0 min 0,000 mm 0,0 UV-I 0 W/m² 4,4 °C 14,1 °C 3,2 km/h (1 Bft)
23.04.2019 20:30 14,0 °C 53 % 997,2 hPa 0,0 mm 1,5 km/h (1 Bft) O-SO 107 ° 0 min 0,000 mm 0,0 UV-I 0 W/m² 4,6 °C 14,0 °C 3,2 km/h (1 Bft)
23.04.2019 20:31 14,1 °C 53 % 997,2 hPa 0,0 mm 0,6 km/h (0 Bft) NO 55 ° 0 min 0,000 mm 0,0 UV-I 0 W/m² 4,7 °C 14,1 °C 1,6 km/h (1 Bft)
23.04.2019 20:32 13,9 °C 53 % 997,2 hPa 0,0 mm 0,8 km/h (0 Bft) NO 54 ° 0 min 0,000 mm 0,0 UV-I 0 W/m² 4,5 °C 13,9 °C 3,2 km/h (1 Bft)
23.04.2019 20:33 13,8 °C 53 % 997,2 hPa 0,0 mm 0,0 km/h (0 Bft) NO 54 ° 0 min 0,000 mm 0,0 UV-I 0 W/m² 4,4 °C 13,8 °C 0,0 km/h (0 Bft)
23.04.2019 20:34 13,8 °C 53 % 997,2 hPa 0,0 mm 0,0 km/h (0 Bft) NO 54 ° 0 min 0,000 mm 0,0 UV-I 0 W/m² 4,4 °C 13,8 °C 0,0 km/h (0 Bft)
23.04.2019 20:35 13,8 °C 53 % 997,2 hPa 0,0 mm 0,0 km/h (0 Bft) NO 54 ° 0 min 0,000 mm 0,0 UV-I 0 W/m² 4,4 °C 13,8 °C 0,0 km/h (0 Bft)
23.04.2019 20:36 13,8 °C 53 % 997,3 hPa 0,0 mm 0,0 km/h (0 Bft) NO 54 ° 0 min 0,000 mm 0,0 UV-I 0 W/m² 4,4 °C 13,8 °C 0,0 km/h (0 Bft)
23.04.2019 20:37 13,8 °C 52 % 997,3 hPa 0,0 mm 0,6 km/h (0 Bft) NW 306 ° 0 min 0,000 mm 0,0 UV-I 0 W/m² 4,1 °C 13,8 °C 4,8 km/h (1 Bft)
23.04.2019 20:38 13,8 °C 53 % 997,2 hPa 0,0 mm 3,4 km/h (1 Bft) SO 146 ° 0 min 0,000 mm 0,0 UV-I 0 W/m² 4,4 °C 13,8 °C 6,4 km/h (2 Bft)
23.04.2019 20:39 13,9 °C 52 % 997,3 hPa 0,0 mm 0,3 km/h (0 Bft) SO 145 ° 0 min 0,000 mm 0,0 UV-I 0 W/m² 4,2 °C 13,9 °C 1,6 km/h (1 Bft)
23.04.2019 20:40 13,9 °C 52 % 997,3 hPa 0,0 mm 0,0 km/h (0 Bft) SO 145 ° 0 min 0,000 mm 0,0 UV-I 0 W/m² 4,2 °C 13,9 °C 0,0 km/h (0 Bft)
23.04.2019 20:41 13,9 °C 52 % 997,4 hPa 0,0 mm 1,7 km/h (1 Bft) SO 146 ° 0 min 0,000 mm 0,0 UV-I 0 W/m² 4,2 °C 13,9 °C 3,2 km/h (1 Bft)
23.04.2019 20:42 13,9 °C 52 % 997,4 hPa 0,0 mm 0,4 km/h (0 Bft) S-SO 147 ° 0 min 0,000 mm 0,0 UV-I 0 W/m² 4,2 °C 13,9 °C 3,2 km/h (1 Bft)
23.04.2019 20:43 13,9 °C 51 % 997,3 hPa 0,0 mm 0,0 km/h (0 Bft) S-SO 147 ° 0 min 0,000 mm 0,0 UV-I 0 W/m² 3,9 °C 13,9 °C 0,0 km/h (0 Bft)
23.04.2019 20:44 13,9 °C 52 % 997,4 hPa 0,0 mm 0,0 km/h (0 Bft) S-SO 147 ° 0 min 0,000 mm 0,0 UV-I 0 W/m² 4,2 °C 13,9 °C 0,0 km/h (0 Bft)
23.04.2019 20:45 13,9 °C 52 % 997,4 hPa 0,0 mm 0,1 km/h (0 Bft) S-SO 147 ° 0 min 0,000 mm 0,0 UV-I 0 W/m² 4,2 °C 13,9 °C 1,6 km/h (1 Bft)
23.04.2019 20:46 13,8 °C 52 % 997,4 hPa 0,0 mm 0,0 km/h (0 Bft) S-SO 147 ° 0 min 0,000 mm 0,0 UV-I 0 W/m² 4,1 °C 13,8 °C 0,0 km/h (0 Bft)
23.04.2019 20:47 13,8 °C 53 % 997,4 hPa 0,0 mm 0,0 km/h (0 Bft) SO 145 ° 0 min 0,000 mm 0,0 UV-I 0 W/m² 4,4 °C 13,8 °C 0,0 km/h (0 Bft)
23.04.2019 20:48 13,7 °C 53 % 997,5 hPa 0,0 mm 0,0 km/h (0 Bft) SO 145 ° 0 min 0,000 mm 0,0 UV-I 0 W/m² 4,3 °C 13,7 °C 0,0 km/h (0 Bft)
23.04.2019 20:49 13,7 °C 53 % 997,5 hPa 0,0 mm 0,0 km/h (0 Bft) SO 145 ° 0 min 0,000 mm 0,0 UV-I 0 W/m² 4,3 °C 13,7 °C 0,0 km/h (0 Bft)
23.04.2019 20:50 13,6 °C 53 % 997,5 hPa 0,0 mm 0,0 km/h (0 Bft) SO 144 ° 0 min 0,000 mm 0,0 UV-I 0 W/m² 4,2 °C 13,6 °C 0,0 km/h (0 Bft)
23.04.2019 20:51 13,5 °C 53 % 997,5 hPa 0,0 mm 0,0 km/h (0 Bft) SO 146 ° 0 min 0,000 mm 0,0 UV-I 0 W/m² 4,1 °C 13,5 °C 0,0 km/h (0 Bft)
23.04.2019 20:52 13,5 °C 53 % 997,6 hPa 0,0 mm 0,6 km/h (0 Bft) NW 308 ° 0 min 0,000 mm 0,0 UV-I 0 W/m² 4,1 °C 13,5 °C 3,2 km/h (1 Bft)
23.04.2019 20:53 13,4 °C 54 % 997,6 hPa 0,0 mm 0,5 km/h (0 Bft) NW 308 ° 0 min 0,000 mm 0,0 UV-I 0 W/m² 4,3 °C 13,4 °C 3,2 km/h (1 Bft)
23.04.2019 20:54 13,4 °C 53 % 997,6 hPa 0,0 mm 0,0 km/h (0 Bft) NW 308 ° 0 min 0,000 mm 0,0 UV-I 0 W/m² 4,0 °C 13,4 °C 0,0 km/h (0 Bft)
23.04.2019 20:55 13,4 °C 54 % 997,6 hPa 0,0 mm 0,0 km/h (0 Bft) NW 308 ° 0 min 0,000 mm 0,0 UV-I 0 W/m² 4,3 °C 13,4 °C 0,0 km/h (0 Bft)
23.04.2019 20:56 13,3 °C 55 % 997,6 hPa 0,0 mm 0,0 km/h (0 Bft) NW 308 ° 0 min 0,000 mm 0,0 UV-I 0 W/m² 4,5 °C 13,3 °C 0,0 km/h (0 Bft)
23.04.2019 20:57 13,3 °C 55 % 997,6 hPa 0,0 mm 0,1 km/h (0 Bft) NW 308 ° 0 min 0,000 mm 0,0 UV-I 0 W/m² 4,5 °C 13,3 °C 1,6 km/h (1 Bft)
23.04.2019 20:58 13,3 °C 55 % 997,6 hPa 0,0 mm 0,1 km/h (0 Bft) NW 308 ° 0 min 0,000 mm 0,0 UV-I 0 W/m² 4,5 °C 13,3 °C 1,6 km/h (1 Bft)
23.04.2019 20:59 13,3 °C 54 % 997,6 hPa 0,0 mm 3,3 km/h (1 Bft) S-SO 166 ° 0 min 0,000 mm 0,0 UV-I 0 W/m² 4,2 °C 13,3 °C 12,9 km/h (3 Bft)
23.04.2019 21:00 13,3 °C 55 % 997,6 hPa 0,0 mm 0,2 km/h (0 Bft) S-SO 166 ° 0 min 0,000 mm 0,0 UV-I 0 W/m² 4,5 °C 13,3 °C 1,6 km/h (1 Bft)
23.04.2019 21:01 13,2 °C 54 % 997,6 hPa 0,0 mm 0,0 km/h (0 Bft) S-SO 166 ° 0 min 0,000 mm 0,0 UV-I 0 W/m² 4,1 °C 13,2 °C 0,0 km/h (0 Bft)
23.04.2019 21:02 13,3 °C 54 % 997,7 hPa 0,0 mm 0,0 km/h (0 Bft) S-SO 166 ° 0 min 0,000 mm 0,0 UV-I 0 W/m² 4,2 °C 13,3 °C 0,0 km/h (0 Bft)
23.04.2019 21:03 13,3 °C 54 % 997,7 hPa 0,0 mm 0,0 km/h (0 Bft) S-SO 166 ° 0 min 0,000 mm 0,0 UV-I 0 W/m² 4,2 °C 13,3 °C 0,0 km/h (0 Bft)
23.04.2019 21:04 13,3 °C 54 % 997,8 hPa 0,0 mm 1,0 km/h (0 Bft) W-SW 246 ° 0 min 0,000 mm 0,0 UV-I 0 W/m² 4,2 °C 13,3 °C 3,2 km/h (1 Bft)
23.04.2019 21:05 13,3 °C 54 % 997,8 hPa 0,0 mm 0,5 km/h (0 Bft) W-SW 246 ° 0 min 0,000 mm 0,0 UV-I 0 W/m² 4,2 °C 13,3 °C 1,6 km/h (1 Bft)
23.04.2019 21:06 13,3 °C 55 % 997,8 hPa 0,0 mm 0,5 km/h (0 Bft) W-SW 246 ° 0 min 0,000 mm 0,0 UV-I 0 W/m² 4,5 °C 13,3 °C 1,6 km/h (1 Bft)
23.04.2019 21:07 13,3 °C 54 % 997,8 hPa 0,0 mm 0,2 km/h (0 Bft) W-SW 246 ° 0 min 0,000 mm 0,0 UV-I 0 W/m² 4,2 °C 13,3 °C 1,6 km/h (1 Bft)
23.04.2019 21:08 13,3 °C 55 % 997,8 hPa 0,0 mm 0,4 km/h (0 Bft) W-SW 246 ° 0 min 0,000 mm 0,0 UV-I 0 W/m² 4,5 °C 13,3 °C 1,6 km/h (1 Bft)
23.04.2019 21:09 13,3 °C 56 % 997,8 hPa 0,0 mm 0,0 km/h (0 Bft) W-SW 246 ° 0 min 0,000 mm 0,0 UV-I 0 W/m² 4,7 °C 13,3 °C 0,0 km/h (0 Bft)
23.04.2019 21:10 13,2 °C 55 % 997,8 hPa 0,0 mm 0,0 km/h (0 Bft) W-SW 246 ° 0 min 0,000 mm 0,0 UV-I 0 W/m² 4,4 °C 13,2 °C 0,0 km/h (0 Bft)
23.04.2019 21:11 13,1 °C 56 % 997,9 hPa 0,0 mm 0,0 km/h (0 Bft) W-SW 246 ° 0 min 0,000 mm 0,0 UV-I 0 W/m² 4,5 °C 13,1 °C 0,0 km/h (0 Bft)
23.04.2019 21:12 13,1 °C 55 % 997,9 hPa 0,0 mm 0,0 km/h (0 Bft) W-SW 246 ° 0 min 0,000 mm 0,0 UV-I 0 W/m² 4,3 °C 13,1 °C 0,0 km/h (0 Bft)
23.04.2019 21:13 13,1 °C 56 % 997,9 hPa 0,0 mm 0,0 km/h (0 Bft) W-SW 246 ° 0 min 0,000 mm 0,0 UV-I 0 W/m² 4,5 °C 13,1 °C 0,0 km/h (0 Bft)
23.04.2019 21:14 13,1 °C 57 % 997,9 hPa 0,0 mm 0,0 km/h (0 Bft) W-SW 246 ° 0 min 0,000 mm 0,0 UV-I 0 W/m² 4,8 °C 13,1 °C 0,0 km/h (0 Bft)
23.04.2019 21:15 12,9 °C 56 % 997,9 hPa 0,0 mm 0,0 km/h (0 Bft) W-SW 246 ° 0 min 0,000 mm 0,0 UV-I 0 W/m² 4,3 °C 12,9 °C 0,0 km/h (0 Bft)
23.04.2019 21:16 12,9 °C 56 % 997,9 hPa 0,0 mm 0,0 km/h (0 Bft) W-SW 246 ° 0 min 0,000 mm 0,0 UV-I 0 W/m² 4,3 °C 12,9 °C 0,0 km/h (0 Bft)
23.04.2019 21:17 12,9 °C 56 % 997,9 hPa 0,0 mm 0,0 km/h (0 Bft) W-SW 246 ° 0 min 0,000 mm 0,0 UV-I 0 W/m² 4,3 °C 12,9 °C 0,0 km/h (0 Bft)
23.04.2019 21:18 12,9 °C 56 % 997,9 hPa 0,0 mm 0,0 km/h (0 Bft) W-SW 246 ° 0 min 0,000 mm 0,0 UV-I 0 W/m² 4,3 °C 12,9 °C 0,0 km/h (0 Bft)
23.04.2019 21:19 12,9 °C 56 % 997,9 hPa 0,0 mm 0,0 km/h (0 Bft) W-SW 246 ° 0 min 0,000 mm 0,0 UV-I 0 W/m² 4,3 °C 12,9 °C 0,0 km/h (0 Bft)
23.04.2019 21:20 12,9 °C 56 % 998,0 hPa 0,0 mm 0,0 km/h (0 Bft) W-SW 246 ° 0 min 0,000 mm 0,0 UV-I 0 W/m² 4,3 °C 12,9 °C 0,0 km/h (0 Bft)
23.04.2019 21:21 12,9 °C 56 % 998,0 hPa 0,0 mm 0,0 km/h (0 Bft) W-SW 246 ° 0 min 0,000 mm 0,0 UV-I 0 W/m² 4,3 °C 12,9 °C 0,0 km/h (0 Bft)
23.04.2019 21:22 12,8 °C 57 % 997,9 hPa 0,0 mm 0,0 km/h (0 Bft) W-SW 246 ° 0 min 0,000 mm 0,0 UV-I 0 W/m² 4,5 °C 12,8 °C 0,0 km/h (0 Bft)
23.04.2019 21:23 12,8 °C 56 % 998,0 hPa 0,0 mm 0,0 km/h (0 Bft) W-SW 246 ° 0 min 0,000 mm 0,0 UV-I 0 W/m² 4,2 °C 12,8 °C 0,0 km/h (0 Bft)
23.04.2019 21:24 12,8 °C 56 % 998,0 hPa 0,0 mm 0,0 km/h (0 Bft) W-SW 246 ° 0 min 0,000 mm 0,0 UV-I 0 W/m² 4,2 °C 12,8 °C 0,0 km/h (0 Bft)
23.04.2019 21:25 12,8 °C 56 % 998,0 hPa 0,0 mm 0,0 km/h (0 Bft) W-SW 246 ° 0 min 0,000 mm 0,0 UV-I 0 W/m² 4,2 °C 12,8 °C 0,0 km/h (0 Bft)
23.04.2019 21:26 12,8 °C 56 % 998,1 hPa 0,0 mm 0,0 km/h (0 Bft) W-SW 246 ° 0 min 0,000 mm 0,0 UV-I 0 W/m² 4,2 °C 12,8 °C 0,0 km/h (0 Bft)
23.04.2019 21:27 12,8 °C 56 % 998,0 hPa 0,0 mm 0,0 km/h (0 Bft) W-SW 246 ° 0 min 0,000 mm 0,0 UV-I 0 W/m² 4,2 °C 12,8 °C 0,0 km/h (0 Bft)
23.04.2019 21:28 12,8 °C 56 % 997,9 hPa 0,0 mm 0,0 km/h (0 Bft) W-SW 246 ° 0 min 0,000 mm 0,0 UV-I 0 W/m² 4,2 °C 12,8 °C 0,0 km/h (0 Bft)
23.04.2019 21:29 12,8 °C 56 % 998,0 hPa 0,0 mm 0,0 km/h (0 Bft) W-SW 246 ° 0 min 0,000 mm 0,0 UV-I 0 W/m² 4,2 °C 12,8 °C 0,0 km/h (0 Bft)
23.04.2019 21:30 12,9 °C 56 % 998,0 hPa 0,0 mm 0,0 km/h (0 Bft) W-SW 246 ° 0 min 0,000 mm 0,0 UV-I 0 W/m² 4,3 °C 12,9 °C 0,0 km/h (0 Bft)
23.04.2019 21:31 12,9 °C 55 % 998,0 hPa 0,0 mm 0,0 km/h (0 Bft) W-SW 246 ° 0 min 0,000 mm 0,0 UV-I 0 W/m² 4,1 °C 12,9 °C 0,0 km/h (0 Bft)
23.04.2019 21:32 13,0 °C 56 % 998,0 hPa 0,0 mm 0,0 km/h (0 Bft) W-SW 246 ° 0 min 0,000 mm 0,0 UV-I 0 W/m² 4,4 °C 13,0 °C 0,0 km/h (0 Bft)
23.04.2019 21:33 12,9 °C 56 % 998,0 hPa 0,0 mm 0,0 km/h (0 Bft) W-SW 246 ° 0 min 0,000 mm 0,0 UV-I 0 W/m² 4,3 °C 12,9 °C 0,0 km/h (0 Bft)
23.04.2019 21:34 12,9 °C 56 % 998,0 hPa 0,0 mm 0,0 km/h (0 Bft) W-SW 246 ° 0 min 0,000 mm 0,0 UV-I 0 W/m² 4,3 °C 12,9 °C 0,0 km/h (0 Bft)
23.04.2019 21:35 12,8 °C 56 % 998,0 hPa 0,0 mm 0,0 km/h (0 Bft) W-SW 246 ° 0 min 0,000 mm 0,0 UV-I 0 W/m² 4,2 °C 12,8 °C 0,0 km/h (0 Bft)
23.04.2019 21:36 12,8 °C 56 % 998,0 hPa 0,0 mm 0,1 km/h (0 Bft) W-SW 246 ° 0 min 0,000 mm 0,0 UV-I 0 W/m² 4,2 °C 12,8 °C 1,6 km/h (1 Bft)
23.04.2019 21:37 12,7 °C 57 % 998,0 hPa 0,0 mm 0,0 km/h (0 Bft) W-SW 246 ° 0 min 0,000 mm 0,0 UV-I 0 W/m² 4,4 °C 12,7 °C 0,0 km/h (0 Bft)
23.04.2019 21:38 12,7 °C 57 % 998,1 hPa 0,0 mm 0,1 km/h (0 Bft) W-SW 246 ° 0 min 0,000 mm 0,0 UV-I 0 W/m² 4,4 °C 12,7 °C 1,6 km/h (1 Bft)
23.04.2019 21:39 12,6 °C 57 % 998,0 hPa 0,0 mm 0,1 km/h (0 Bft) W-SW 246 ° 0 min 0,000 mm 0,0 UV-I 0 W/m² 4,3 °C 12,6 °C 1,6 km/h (1 Bft)
23.04.2019 21:40 12,7 °C 57 % 998,1 hPa 0,0 mm 0,0 km/h (0 Bft) W-SW 246 ° 0 min 0,000 mm 0,0 UV-I 0 W/m² 4,4 °C 12,7 °C 0,0 km/h (0 Bft)
23.04.2019 21:41 12,7 °C 57 % 998,1 hPa 0,0 mm 0,0 km/h (0 Bft) W-SW 246 ° 0 min 0,000 mm 0,0 UV-I 0 W/m² 4,4 °C 12,7 °C 0,0 km/h (0 Bft)
23.04.2019 21:42 12,6 °C 57 % 998,1 hPa 0,0 mm 0,0 km/h (0 Bft) W-SW 246 ° 0 min 0,000 mm 0,0 UV-I 0 W/m² 4,3 °C 12,6 °C 0,0 km/h (0 Bft)
23.04.2019 21:43 12,5 °C 57 % 998,0 hPa 0,0 mm 0,0 km/h (0 Bft) W-SW 246 ° 0 min 0,000 mm 0,0 UV-I 0 W/m² 4,2 °C 12,5 °C 0,0 km/h (0 Bft)
23.04.2019 21:44 12,5 °C 57 % 998,1 hPa 0,0 mm 0,0 km/h (0 Bft) W-SW 246 ° 0 min 0,000 mm 0,0 UV-I 0 W/m² 4,2 °C 12,5 °C 0,0 km/h (0 Bft)
23.04.2019 21:45 12,5 °C 58 % 998,1 hPa 0,0 mm 0,0 km/h (0 Bft) W-SW 246 ° 0 min 0,000 mm 0,0 UV-I 0 W/m² 4,5 °C 12,5 °C 0,0 km/h (0 Bft)
23.04.2019 21:46 12,4 °C 58 % 998,1 hPa 0,0 mm 0,0 km/h (0 Bft) W-SW 246 ° 0 min 0,000 mm 0,0 UV-I 0 W/m² 4,4 °C 12,4 °C 0,0 km/h (0 Bft)
23.04.2019 21:47 12,4 °C 58 % 998,1 hPa 0,0 mm 0,0 km/h (0 Bft) W-SW 246 ° 0 min 0,000 mm 0,0 UV-I 0 W/m² 4,4 °C 12,4 °C 0,0 km/h (0 Bft)
23.04.2019 21:48 12,3 °C 58 % 998,1 hPa 0,0 mm 0,0 km/h (0 Bft) W-SW 246 ° 0 min 0,000 mm 0,0 UV-I 0 W/m² 4,3 °C 12,3 °C 0,0 km/h (0 Bft)
23.04.2019 21:49 12,2 °C 59 % 998,1 hPa 0,0 mm 0,0 km/h (0 Bft) W-SW 246 ° 0 min 0,000 mm 0,0 UV-I 0 W/m² 4,4 °C 12,2 °C 0,0 km/h (0 Bft)
23.04.2019 21:50 12,3 °C 59 % 998,1 hPa 0,0 mm 0,0 km/h (0 Bft) W-SW 246 ° 0 min 0,000 mm 0,0 UV-I 0 W/m² 4,5 °C 12,3 °C 0,0 km/h (0 Bft)
23.04.2019 21:51 12,2 °C 59 % 998,1 hPa 0,0 mm 0,0 km/h (0 Bft) W-SW 246 ° 0 min 0,000 mm 0,0 UV-I 0 W/m² 4,4 °C 12,2 °C 0,0 km/h (0 Bft)
23.04.2019 21:52 12,2 °C 59 % 998,1 hPa 0,0 mm 0,0 km/h (0 Bft) W-SW 246 ° 0 min 0,000 mm 0,0 UV-I 0 W/m² 4,4 °C 12,2 °C 0,0 km/h (0 Bft)
23.04.2019 21:53 12,2 °C 59 % 998,1 hPa 0,0 mm 0,0 km/h (0 Bft) W-SW 246 ° 0 min 0,000 mm 0,0 UV-I 0 W/m² 4,4 °C 12,2 °C 0,0 km/h (0 Bft)
23.04.2019 21:54 12,2 °C 58 % 998,1 hPa 0,0 mm 0,1 km/h (0 Bft) W-SW 246 ° 0 min 0,000 mm 0,0 UV-I 0 W/m² 4,2 °C 12,2 °C 1,6 km/h (1 Bft)
23.04.2019 21:55 12,2 °C 58 % 998,1 hPa 0,0 mm 0,0 km/h (0 Bft) W-SW 246 ° 0 min 0,000 mm 0,0 UV-I 0 W/m² 4,2 °C 12,2 °C 0,0 km/h (0 Bft)
23.04.2019 21:56 12,2 °C 58 % 998,1 hPa 0,0 mm 0,0 km/h (0 Bft) W-SW 246 ° 0 min 0,000 mm 0,0 UV-I 0 W/m² 4,2 °C 12,2 °C 0,0 km/h (0 Bft)
23.04.2019 21:57 12,2 °C 58 % 998,1 hPa 0,0 mm 0,0 km/h (0 Bft) W-SW 246 ° 0 min 0,000 mm 0,0 UV-I 0 W/m² 4,2 °C 12,2 °C 0,0 km/h (0 Bft)
23.04.2019 21:58 12,2 °C 58 % 998,2 hPa 0,0 mm 0,0 km/h (0 Bft) W-SW 246 ° 0 min 0,000 mm 0,0 UV-I 0 W/m² 4,2 °C 12,2 °C 0,0 km/h (0 Bft)
23.04.2019 21:59 12,3 °C 58 % 998,2 hPa 0,0 mm 0,0 km/h (0 Bft) W-SW 246 ° 0 min 0,000 mm 0,0 UV-I 0 W/m² 4,3 °C 12,3 °C 0,0 km/h (0 Bft)
23.04.2019 22:00 12,2 °C 58 % 998,2 hPa 0,0 mm 0,0 km/h (0 Bft) W-SW 246 ° 0 min 0,000 mm 0,0 UV-I 0 W/m² 4,2 °C 12,2 °C 0,0 km/h (0 Bft)
23.04.2019 22:01 12,2 °C 58 % 998,2 hPa 0,0 mm 0,0 km/h (0 Bft) W-SW 246 ° 0 min 0,025 mm 0,0 UV-I 0 W/m² 4,2 °C 12,2 °C 0,0 km/h (0 Bft)
23.04.2019 22:02 12,2 °C 58 % 998,2 hPa 0,0 mm 0,0 km/h (0 Bft) W-SW 246 ° 0 min 0,000 mm 0,0 UV-I 0 W/m² 4,2 °C 12,2 °C 0,0 km/h (0 Bft)
23.04.2019 22:03 12,2 °C 59 % 998,2 hPa 0,0 mm 0,0 km/h (0 Bft) W-SW 246 ° 0 min 0,000 mm 0,0 UV-I 0 W/m² 4,4 °C 12,2 °C 0,0 km/h (0 Bft)
23.04.2019 22:04 12,1 °C 58 % 998,2 hPa 0,0 mm 0,0 km/h (0 Bft) W-SW 246 ° 0 min 0,000 mm 0,0 UV-I 0 W/m² 4,1 °C 12,1 °C 0,0 km/h (0 Bft)
23.04.2019 22:05 12,1 °C 59 % 998,2 hPa 0,0 mm 0,0 km/h (0 Bft) W-SW 246 ° 0 min 0,000 mm 0,0 UV-I 0 W/m² 4,3 °C 12,1 °C 0,0 km/h (0 Bft)
23.04.2019 22:06 12,1 °C 58 % 998,2 hPa 0,0 mm 0,0 km/h (0 Bft) W-SW 246 ° 0 min 0,000 mm 0,0 UV-I 0 W/m² 4,1 °C 12,1 °C 0,0 km/h (0 Bft)
23.04.2019 22:07 12,1 °C 58 % 998,3 hPa 0,0 mm 0,0 km/h (0 Bft) W-SW 246 ° 0 min 0,000 mm 0,0 UV-I 0 W/m² 4,1 °C 12,1 °C 0,0 km/h (0 Bft)
23.04.2019 22:08 12,0 °C 59 % 998,2 hPa 0,0 mm 0,0 km/h (0 Bft) W-SW 246 ° 0 min 0,000 mm 0,0 UV-I 0 W/m² 4,2 °C 12,0 °C 0,0 km/h (0 Bft)
23.04.2019 22:09 12,0 °C 59 % 998,3 hPa 0,0 mm 0,0 km/h (0 Bft) W-SW 246 ° 0 min 0,000 mm 0,0 UV-I 0 W/m² 4,2 °C 12,0 °C 0,0 km/h (0 Bft)
23.04.2019 22:10 12,1 °C 58 % 998,3 hPa 0,0 mm 0,0 km/h (0 Bft) W-SW 246 ° 0 min 0,000 mm 0,0 UV-I 0 W/m² 4,1 °C 12,1 °C 0,0 km/h (0 Bft)
23.04.2019 22:11 12,1 °C 59 % 998,3 hPa 0,0 mm 0,0 km/h (0 Bft) W-SW 246 ° 0 min 0,000 mm 0,0 UV-I 0 W/m² 4,3 °C 12,1 °C 0,0 km/h (0 Bft)
23.04.2019 22:12 12,0 °C 59 % 998,3 hPa 0,0 mm 0,0 km/h (0 Bft) W-SW 246 ° 0 min 0,000 mm 0,0 UV-I 0 W/m² 4,2 °C 12,0 °C 0,0 km/h (0 Bft)
23.04.2019 22:13 12,0 °C 59 % 998,4 hPa 0,0 mm 0,0 km/h (0 Bft) W-SW 246 ° 0 min 0,000 mm 0,0 UV-I 0 W/m² 4,2 °C 12,0 °C 0,0 km/h (0 Bft)
23.04.2019 22:14 11,9 °C 58 % 998,4 hPa 0,0 mm 0,0 km/h (0 Bft) W-SW 246 ° 0 min 0,000 mm 0,0 UV-I 0 W/m² 3,9 °C 11,9 °C 0,0 km/h (0 Bft)
23.04.2019 22:15 12,1 °C 58 % 998,3 hPa 0,0 mm 0,0 km/h (0 Bft) W-SW 246 ° 0 min 0,000 mm 0,0 UV-I 0 W/m² 4,1 °C 12,1 °C 0,0 km/h (0 Bft)
23.04.2019 22:16 12,2 °C 58 % 998,4 hPa 0,0 mm 0,0 km/h (0 Bft) W-SW 246 ° 0 min 0,000 mm 0,0 UV-I 0 W/m² 4,2 °C 12,2 °C 0,0 km/h (0 Bft)
23.04.2019 22:17 12,3 °C 57 % 998,4 hPa 0,0 mm 0,0 km/h (0 Bft) W-SW 246 ° 0 min 0,000 mm 0,0 UV-I 0 W/m² 4,0 °C 12,3 °C 0,0 km/h (0 Bft)
23.04.2019 22:18 12,3 °C 57 % 998,4 hPa 0,0 mm 0,0 km/h (0 Bft) W-SW 246 ° 0 min 0,000 mm 0,0 UV-I 0 W/m² 4,0 °C 12,3 °C 0,0 km/h (0 Bft)
23.04.2019 22:19 12,2 °C 58 % 998,4 hPa 0,0 mm 0,0 km/h (0 Bft) W-SW 246 ° 0 min 0,000 mm 0,0 UV-I 0 W/m² 4,2 °C 12,2 °C 0,0 km/h (0 Bft)
23.04.2019 22:20 12,0 °C 58 % 998,4 hPa 0,0 mm 0,0 km/h (0 Bft) W-SW 246 ° 0 min 0,000 mm 0,0 UV-I 0 W/m² 4,0 °C 12,0 °C 0,0 km/h (0 Bft)
23.04.2019 22:21 11,9 °C 59 % 998,3 hPa 0,0 mm 0,0 km/h (0 Bft) W-SW 246 ° 0 min 0,000 mm 0,0 UV-I 0 W/m² 4,1 °C 11,9 °C 0,0 km/h (0 Bft)
23.04.2019 22:22 11,9 °C 59 % 998,3 hPa 0,0 mm 0,2 km/h (0 Bft) S 188 ° 0 min 0,000 mm 0,0 UV-I 0 W/m² 4,1 °C 11,9 °C 1,6 km/h (1 Bft)
23.04.2019 22:23 11,8 °C 59 % 998,3 hPa 0,0 mm 0,4 km/h (0 Bft) S 188 ° 0 min 0,000 mm 0,0 UV-I 0 W/m² 4,1 °C 11,8 °C 1,6 km/h (1 Bft)
23.04.2019 22:24 11,7 °C 59 % 998,3 hPa 0,0 mm 0,0 km/h (0 Bft) S 188 ° 0 min 0,000 mm 0,0 UV-I 0 W/m² 4,0 °C 11,7 °C 0,0 km/h (0 Bft)
23.04.2019 22:25 11,7 °C 59 % 998,3 hPa 0,0 mm 0,0 km/h (0 Bft) S 188 ° 0 min 0,000 mm 0,0 UV-I 0 W/m² 4,0 °C 11,7 °C 0,0 km/h (0 Bft)
23.04.2019 22:26 11,8 °C 59 % 998,3 hPa 0,0 mm 0,0 km/h (0 Bft) S 188 ° 0 min 0,000 mm 0,0 UV-I 0 W/m² 4,1 °C 11,8 °C 0,0 km/h (0 Bft)
23.04.2019 22:27 11,8 °C 59 % 998,3 hPa 0,0 mm 0,0 km/h (0 Bft) S 188 ° 0 min 0,000 mm 0,0 UV-I 0 W/m² 4,1 °C 11,8 °C 0,0 km/h (0 Bft)
23.04.2019 22:28 11,9 °C 59 % 998,3 hPa 0,0 mm 0,0 km/h (0 Bft) S 188 ° 0 min 0,000 mm 0,0 UV-I 0 W/m² 4,1 °C 11,9 °C 0,0 km/h (0 Bft)
23.04.2019 22:29 11,9 °C 58 % 998,4 hPa 0,0 mm 0,0 km/h (0 Bft) S 188 ° 0 min 0,000 mm 0,0 UV-I 0 W/m² 3,9 °C 11,9 °C 0,0 km/h (0 Bft)
23.04.2019 22:30 12,0 °C 58 % 998,3 hPa 0,0 mm 0,0 km/h (0 Bft) S 188 ° 0 min 0,000 mm 0,0 UV-I 0 W/m² 4,0 °C 12,0 °C 0,0 km/h (0 Bft)
23.04.2019 22:31 12,1 °C 58 % 998,3 hPa 0,0 mm 0,0 km/h (0 Bft) S 188 ° 0 min 0,000 mm 0,0 UV-I 0 W/m² 4,1 °C 12,1 °C 0,0 km/h (0 Bft)
23.04.2019 22:32 12,2 °C 58 % 998,3 hPa 0,0 mm 0,0 km/h (0 Bft) S 188 ° 0 min 0,000 mm 0,0 UV-I 0 W/m² 4,2 °C 12,2 °C 0,0 km/h (0 Bft)
23.04.2019 22:33 12,2 °C 58 % 998,3 hPa 0,0 mm 0,0 km/h (0 Bft) S 188 ° 0 min 0,000 mm 0,0 UV-I 0 W/m² 4,2 °C 12,2 °C 0,0 km/h (0 Bft)
23.04.2019 22:34 11,9 °C 59 % 998,3 hPa 0,0 mm 0,0 km/h (0 Bft) S 189 ° 0 min 0,000 mm 0,0 UV-I 0 W/m² 4,1 °C 11,9 °C 0,0 km/h (0 Bft)
23.04.2019 22:35 11,8 °C 59 % 998,3 hPa 0,0 mm 0,9 km/h (0 Bft) S 189 ° 0 min 0,000 mm 0,0 UV-I 0 W/m² 4,1 °C 11,8 °C 4,8 km/h (1 Bft)
23.04.2019 22:36 11,7 °C 59 % 998,3 hPa 0,0 mm 3,7 km/h (1 Bft) W-SW 246 ° 0 min 0,000 mm 0,0 UV-I 0 W/m² 4,0 °C 11,7 °C 4,8 km/h (1 Bft)
23.04.2019 22:37 11,7 °C 59 % 998,4 hPa 0,0 mm 3,8 km/h (1 Bft) W-SW 247 ° 0 min 0,000 mm 0,0 UV-I 0 W/m² 4,0 °C 11,7 °C 6,4 km/h (2 Bft)
23.04.2019 22:38 11,8 °C 59 % 998,4 hPa 0,0 mm 5,7 km/h (1 Bft) SW 217 ° 0 min 0,000 mm 0,0 UV-I 0 W/m² 4,1 °C 11,8 °C 8,0 km/h (2 Bft)
23.04.2019 22:39 11,9 °C 58 % 998,4 hPa 0,0 mm 4,7 km/h (1 Bft) S-SW 211 ° 0 min 0,000 mm 0,0 UV-I 0 W/m² 3,9 °C 11,9 °C 6,4 km/h (2 Bft)
23.04.2019 22:40 12,0 °C 58 % 998,4 hPa 0,0 mm 4,1 km/h (1 Bft) S-SW 211 ° 0 min 0,000 mm 0,0 UV-I 0 W/m² 4,0 °C 12,0 °C 6,4 km/h (2 Bft)
23.04.2019 22:41 12,0 °C 59 % 998,4 hPa 0,0 mm 5,2 km/h (1 Bft) S-SW 209 ° 0 min 0,000 mm 0,0 UV-I 0 W/m² 4,2 °C 12,0 °C 8,0 km/h (2 Bft)
23.04.2019 22:42 12,1 °C 58 % 998,4 hPa 0,0 mm 3,7 km/h (1 Bft) W-SW 250 ° 0 min 0,000 mm 0,0 UV-I 0 W/m² 4,1 °C 12,1 °C 8,0 km/h (2 Bft)
23.04.2019 22:43 12,1 °C 58 % 998,4 hPa 0,0 mm 6,0 km/h (2 Bft) SW 220 ° 0 min 0,000 mm 0,0 UV-I 0 W/m² 4,1 °C 12,1 °C 9,7 km/h (2 Bft)
23.04.2019 22:44 12,0 °C 59 % 998,5 hPa 0,0 mm 5,5 km/h (1 Bft) S-SW 205 ° 0 min 0,000 mm 0,0 UV-I 0 W/m² 4,2 °C 12,0 °C 8,0 km/h (2 Bft)
23.04.2019 22:45 11,9 °C 59 % 998,5 hPa 0,0 mm 3,8 km/h (1 Bft) S-SW 201 ° 0 min 0,000 mm 0,0 UV-I 0 W/m² 4,1 °C 11,9 °C 6,4 km/h (2 Bft)
23.04.2019 22:46 11,8 °C 60 % 998,5 hPa 0,0 mm 3,2 km/h (1 Bft) SW 219 ° 0 min 0,000 mm 0,0 UV-I 0 W/m² 4,3 °C 11,8 °C 4,8 km/h (1 Bft)
23.04.2019 22:47 11,8 °C 60 % 998,5 hPa 0,0 mm 0,3 km/h (0 Bft) SW 219 ° 0 min 0,000 mm 0,0 UV-I 0 W/m² 4,3 °C 11,8 °C 1,6 km/h (1 Bft)
23.04.2019 22:48 11,7 °C 60 % 998,5 hPa 0,0 mm 2,8 km/h (1 Bft) S-SW 203 ° 0 min 0,000 mm 0,0 UV-I 0 W/m² 4,2 °C 11,7 °C 8,0 km/h (2 Bft)
23.04.2019 22:49 11,6 °C 60 % 998,5 hPa 0,0 mm 6,5 km/h (2 Bft) S 191 ° 0 min 0,000 mm 0,0 UV-I 0 W/m² 4,1 °C 11,6 °C 8,0 km/h (2 Bft)
23.04.2019 22:50 11,6 °C 61 % 998,5 hPa 0,0 mm 4,3 km/h (1 Bft) S-SW 203 ° 0 min 0,000 mm 0,0 UV-I 0 W/m² 4,3 °C 11,6 °C 6,4 km/h (2 Bft)
23.04.2019 22:51 11,4 °C 61 % 998,5 hPa 0,0 mm 5,6 km/h (1 Bft) S 183 ° 0 min 0,000 mm 0,0 UV-I 0 W/m² 4,2 °C 11,4 °C 6,4 km/h (2 Bft)
23.04.2019 22:52 11,3 °C 62 % 998,5 hPa 0,0 mm 3,7 km/h (1 Bft) S-SW 202 ° 0 min 0,000 mm 0,0 UV-I 0 W/m² 4,3 °C 11,3 °C 6,4 km/h (2 Bft)
23.04.2019 22:53 11,2 °C 63 % 998,6 hPa 0,0 mm 4,8 km/h (1 Bft) S-SW 207 ° 0 min 0,000 mm 0,0 UV-I 0 W/m² 4,4 °C 11,2 °C 6,4 km/h (2 Bft)
23.04.2019 22:54 11,1 °C 63 % 998,5 hPa 0,0 mm 2,9 km/h (1 Bft) S-SW 207 ° 0 min 0,000 mm 0,0 UV-I 0 W/m² 4,3 °C 11,1 °C 4,8 km/h (1 Bft)
23.04.2019 22:55 11,1 °C 63 % 998,6 hPa 0,0 mm 3,8 km/h (1 Bft) S-SW 209 ° 0 min 0,000 mm 0,0 UV-I 0 W/m² 4,3 °C 11,1 °C 6,4 km/h (2 Bft)
23.04.2019 22:56 11,0 °C 63 % 998,6 hPa 0,0 mm 5,7 km/h (1 Bft) S-SW 194 ° 0 min 0,000 mm 0,0 UV-I 0 W/m² 4,2 °C 11,0 °C 8,0 km/h (2 Bft)
23.04.2019 22:57 10,8 °C 64 % 998,6 hPa 0,0 mm 5,6 km/h (1 Bft) S-SW 196 ° 0 min 0,000 mm 0,0 UV-I 0 W/m² 4,3 °C 10,8 °C 6,4 km/h (2 Bft)
23.04.2019 22:58 10,7 °C 65 % 998,6 hPa 0,0 mm 5,1 km/h (1 Bft) S-SW 196 ° 0 min 0,000 mm 0,0 UV-I 0 W/m² 4,4 °C 10,7 °C 9,7 km/h (2 Bft)
23.04.2019 22:59 10,7 °C 65 % 998,6 hPa 0,0 mm 8,9 km/h (2 Bft) S-SW 208 ° 0 min 0,000 mm 0,0 UV-I 0 W/m² 4,4 °C 10,7 °C 12,9 km/h (3 Bft)
23.04.2019 23:00 10,7 °C 64 % 998,6 hPa 0,0 mm 5,8 km/h (2 Bft) S-SW 194 ° 0 min 0,000 mm 0,0 UV-I 0 W/m² 4,2 °C 10,7 °C 8,0 km/h (2 Bft)
23.04.2019 23:01 10,8 °C 64 % 998,6 hPa 0,0 mm 4,4 km/h (1 Bft) S-SW 208 ° 0 min 0,025 mm 0,0 UV-I 0 W/m² 4,3 °C 10,8 °C 6,4 km/h (2 Bft)
23.04.2019 23:02 10,8 °C 64 % 998,6 hPa 0,0 mm 0,7 km/h (0 Bft) S-SW 209 ° 0 min 0,000 mm 0,0 UV-I 0 W/m² 4,3 °C 10,8 °C 3,2 km/h (1 Bft)
23.04.2019 23:03 10,7 °C 65 % 998,6 hPa 0,0 mm 1,1 km/h (1 Bft) S-SW 211 ° 0 min 0,000 mm 0,0 UV-I 0 W/m² 4,4 °C 10,7 °C 3,2 km/h (1 Bft)
23.04.2019 23:04 10,7 °C 65 % 998,6 hPa 0,0 mm 0,0 km/h (0 Bft) S-SW 211 ° 0 min 0,000 mm 0,0 UV-I 0 W/m² 4,4 °C 10,7 °C 0,0 km/h (0 Bft)
23.04.2019 23:05 10,7 °C 65 % 998,6 hPa 0,0 mm 0,0 km/h (0 Bft) S-SW 211 ° 0 min 0,000 mm 0,0 UV-I 0 W/m² 4,4 °C 10,7 °C 0,0 km/h (0 Bft)
23.04.2019 23:06 10,7 °C 65 % 998,6 hPa 0,0 mm 0,0 km/h (0 Bft) S-SW 211 ° 0 min 0,000 mm 0,0 UV-I 0 W/m² 4,4 °C 10,7 °C 0,0 km/h (0 Bft)
23.04.2019 23:07 10,7 °C 65 % 998,6 hPa 0,0 mm 0,0 km/h (0 Bft) S-SW 211 ° 0 min 0,000 mm 0,0 UV-I 0 W/m² 4,4 °C 10,7 °C 0,0 km/h (0 Bft)
23.04.2019 23:08 10,7 °C 65 % 998,6 hPa 0,0 mm 0,0 km/h (0 Bft) S-SW 211 ° 0 min 0,000 mm 0,0 UV-I 0 W/m² 4,4 °C 10,7 °C 0,0 km/h (0 Bft)
23.04.2019 23:09 10,7 °C 65 % 998,7 hPa 0,0 mm 0,0 km/h (0 Bft) S-SW 211 ° 0 min 0,000 mm 0,0 UV-I 0 W/m² 4,4 °C 10,7 °C 0,0 km/h (0 Bft)
23.04.2019 23:10 10,7 °C 65 % 998,7 hPa 0,0 mm 0,0 km/h (0 Bft) S-SW 211 ° 0 min 0,000 mm 0,0 UV-I 0 W/m² 4,4 °C 10,7 °C 0,0 km/h (0 Bft)
23.04.2019 23:11 10,8 °C 65 % 998,7 hPa 0,0 mm 0,0 km/h (0 Bft) S-SW 211 ° 0 min 0,000 mm 0,0 UV-I 0 W/m² 4,5 °C 10,8 °C 0,0 km/h (0 Bft)
23.04.2019 23:12 10,9 °C 65 % 998,7 hPa 0,0 mm 0,0 km/h (0 Bft) S-SW 211 ° 0 min 0,000 mm 0,0 UV-I 0 W/m² 4,6 °C 10,9 °C 0,0 km/h (0 Bft)
23.04.2019 23:13 10,9 °C 64 % 998,7 hPa 0,0 mm 0,0 km/h (0 Bft) S-SW 211 ° 0 min 0,000 mm 0,0 UV-I 0 W/m² 4,4 °C 10,9 °C 0,0 km/h (0 Bft)
23.04.2019 23:14 11,0 °C 64 % 998,7 hPa 0,0 mm 0,0 km/h (0 Bft) S-SW 211 ° 0 min 0,000 mm 0,0 UV-I 0 W/m² 4,5 °C 11,0 °C 0,0 km/h (0 Bft)
23.04.2019 23:15 11,1 °C 64 % 998,7 hPa 0,0 mm 0,0 km/h (0 Bft) S-SW 211 ° 0 min 0,000 mm 0,0 UV-I 0 W/m² 4,6 °C 11,1 °C 0,0 km/h (0 Bft)
23.04.2019 23:16 11,2 °C 63 % 998,7 hPa 0,0 mm 0,0 km/h (0 Bft) S-SW 211 ° 0 min 0,000 mm 0,0 UV-I 0 W/m² 4,4 °C 11,2 °C 0,0 km/h (0 Bft)
23.04.2019 23:17 11,2 °C 63 % 998,7 hPa 0,0 mm 0,0 km/h (0 Bft) S-SW 211 ° 0 min 0,000 mm 0,0 UV-I 0 W/m² 4,4 °C 11,2 °C 0,0 km/h (0 Bft)
23.04.2019 23:18 11,3 °C 63 % 998,7 hPa 0,0 mm 0,0 km/h (0 Bft) S-SW 211 ° 0 min 0,000 mm 0,0 UV-I 0 W/m² 4,5 °C 11,3 °C 0,0 km/h (0 Bft)
23.04.2019 23:19 11,4 °C 62 % 998,7 hPa 0,0 mm 0,0 km/h (0 Bft) S-SW 211 ° 0 min 0,000 mm 0,0 UV-I 0 W/m² 4,4 °C 11,4 °C 0,0 km/h (0 Bft)
23.04.2019 23:20 11,6 °C 62 % 998,8 hPa 0,0 mm 0,0 km/h (0 Bft) S-SW 211 ° 0 min 0,000 mm 0,0 UV-I 0 W/m² 4,6 °C 11,6 °C 0,0 km/h (0 Bft)
23.04.2019 23:21 11,6 °C 62 % 998,8 hPa 0,0 mm 0,0 km/h (0 Bft) S-SW 211 ° 0 min 0,000 mm 0,0 UV-I 0 W/m² 4,6 °C 11,6 °C 0,0 km/h (0 Bft)
23.04.2019 23:22 11,6 °C 62 % 998,7 hPa 0,0 mm 0,0 km/h (0 Bft) S-SW 211 ° 0 min 0,000 mm 0,0 UV-I 0 W/m² 4,6 °C 11,6 °C 0,0 km/h (0 Bft)
23.04.2019 23:23 11,7 °C 61 % 998,7 hPa 0,0 mm 0,0 km/h (0 Bft) S-SW 211 ° 0 min 0,000 mm 0,0 UV-I 0 W/m² 4,4 °C 11,7 °C 0,0 km/h (0 Bft)
23.04.2019 23:24 11,8 °C 61 % 998,8 hPa 0,0 mm 0,0 km/h (0 Bft) S-SW 211 ° 0 min 0,000 mm 0,0 UV-I 0 W/m² 4,5 °C 11,8 °C 0,0 km/h (0 Bft)
23.04.2019 23:25 11,8 °C 61 % 998,8 hPa 0,0 mm 0,0 km/h (0 Bft) S-SW 211 ° 0 min 0,000 mm 0,0 UV-I 0 W/m² 4,5 °C 11,8 °C 0,0 km/h (0 Bft)
23.04.2019 23:26 11,8 °C 61 % 998,8 hPa 0,0 mm 0,0 km/h (0 Bft) S-SW 211 ° 0 min 0,000 mm 0,0 UV-I 0 W/m² 4,5 °C 11,8 °C 0,0 km/h (0 Bft)
23.04.2019 23:27 11,8 °C 62 % 998,7 hPa 0,0 mm 0,0 km/h (0 Bft) S-SW 211 ° 0 min 0,000 mm 0,0 UV-I 0 W/m² 4,8 °C 11,8 °C 0,0 km/h (0 Bft)
23.04.2019 23:28 11,8 °C 62 % 998,8 hPa 0,0 mm 0,0 km/h (0 Bft) S-SW 211 ° 0 min 0,000 mm 0,0 UV-I 0 W/m² 4,8 °C 11,8 °C 0,0 km/h (0 Bft)
23.04.2019 23:29 11,7 °C 62 % 998,8 hPa 0,0 mm 0,0 km/h (0 Bft) S-SW 211 ° 0 min 0,000 mm 0,0 UV-I 0 W/m² 4,7 °C 11,7 °C 0,0 km/h (0 Bft)
23.04.2019 23:30 11,6 °C 62 % 998,8 hPa 0,0 mm 0,0 km/h (0 Bft) S-SW 211 ° 0 min 0,000 mm 0,0 UV-I 0 W/m² 4,6 °C 11,6 °C 0,0 km/h (0 Bft)
23.04.2019 23:31 11,6 °C 62 % 998,8 hPa 0,0 mm 0,0 km/h (0 Bft) S-SW 211 ° 0 min 0,000 mm 0,0 UV-I 0 W/m² 4,6 °C 11,6 °C 0,0 km/h (0 Bft)
23.04.2019 23:32 11,5 °C 63 % 998,9 hPa 0,0 mm 0,0 km/h (0 Bft) S-SW 211 ° 0 min 0,000 mm 0,0 UV-I 0 W/m² 4,7 °C 11,5 °C 0,0 km/h (0 Bft)
23.04.2019 23:33 11,4 °C 64 % 998,8 hPa 0,0 mm 0,0 km/h (0 Bft) S-SW 211 ° 0 min 0,000 mm 0,0 UV-I 0 W/m² 4,8 °C 11,4 °C 0,0 km/h (0 Bft)
23.04.2019 23:34 11,3 °C 64 % 998,8 hPa 0,0 mm 0,0 km/h (0 Bft) S-SW 211 ° 0 min 0,000 mm 0,0 UV-I 0 W/m² 4,7 °C 11,3 °C 0,0 km/h (0 Bft)
23.04.2019 23:35 11,3 °C 65 % 998,8 hPa 0,0 mm 0,0 km/h (0 Bft) S-SW 211 ° 0 min 0,000 mm 0,0 UV-I 0 W/m² 5,0 °C 11,3 °C 0,0 km/h (0 Bft)
23.04.2019 23:36 11,3 °C 64 % 998,8 hPa 0,0 mm 0,0 km/h (0 Bft) S-SW 211 ° 0 min 0,000 mm 0,0 UV-I 0 W/m² 4,7 °C 11,3 °C 0,0 km/h (0 Bft)
23.04.2019 23:37 11,4 °C 64 % 998,8 hPa 0,0 mm 0,0 km/h (0 Bft) S-SW 211 ° 0 min 0,000 mm 0,0 UV-I 0 W/m² 4,8 °C 11,4 °C 0,0 km/h (0 Bft)
23.04.2019 23:38 11,4 °C 64 % 998,8 hPa 0,0 mm 0,0 km/h (0 Bft) S-SW 211 ° 0 min 0,000 mm 0,0 UV-I 0 W/m² 4,8 °C 11,4 °C 0,0 km/h (0 Bft)
23.04.2019 23:39 11,4 °C 63 % 998,8 hPa 0,0 mm 0,0 km/h (0 Bft) S-SW 211 ° 0 min 0,000 mm 0,0 UV-I 0 W/m² 4,6 °C 11,4 °C 0,0 km/h (0 Bft)
23.04.2019 23:40 11,5 °C 63 % 998,8 hPa 0,0 mm 0,0 km/h (0 Bft) S-SW 211 ° 0 min 0,000 mm 0,0 UV-I 0 W/m² 4,7 °C 11,5 °C 0,0 km/h (0 Bft)
23.04.2019 23:41 11,5 °C 63 % 998,9 hPa 0,0 mm 0,0 km/h (0 Bft) S-SW 211 ° 0 min 0,000 mm 0,0 UV-I 0 W/m² 4,7 °C 11,5 °C 0,0 km/h (0 Bft)
23.04.2019 23:42 11,5 °C 63 % 998,9 hPa 0,0 mm 0,0 km/h (0 Bft) S-SW 211 ° 0 min 0,000 mm 0,0 UV-I 0 W/m² 4,7 °C 11,5 °C 0,0 km/h (0 Bft)
23.04.2019 23:43 11,5 °C 63 % 998,9 hPa 0,0 mm 0,0 km/h (0 Bft) S-SW 211 ° 0 min 0,000 mm 0,0 UV-I 0 W/m² 4,7 °C 11,5 °C 0,0 km/h (0 Bft)
23.04.2019 23:44 11,6 °C 63 % 998,9 hPa 0,0 mm 0,0 km/h (0 Bft) S-SW 211 ° 0 min 0,000 mm 0,0 UV-I 0 W/m² 4,8 °C 11,6 °C 0,0 km/h (0 Bft)
23.04.2019 23:45 11,6 °C 63 % 998,9 hPa 0,0 mm 0,0 km/h (0 Bft) S-SW 211 ° 0 min 0,000 mm 0,0 UV-I 0 W/m² 4,8 °C 11,6 °C 0,0 km/h (0 Bft)
23.04.2019 23:46 11,6 °C 63 % 998,8 hPa 0,0 mm 0,0 km/h (0 Bft) S-SW 211 ° 0 min 0,000 mm 0,0 UV-I 0 W/m² 4,8 °C 11,6 °C 0,0 km/h (0 Bft)
23.04.2019 23:47 11,6 °C 63 % 998,9 hPa 0,0 mm 0,0 km/h (0 Bft) S-SW 211 ° 0 min 0,000 mm 0,0 UV-I 0 W/m² 4,8 °C 11,6 °C 0,0 km/h (0 Bft)
23.04.2019 23:48 11,6 °C 62 % 998,9 hPa 0,0 mm 0,0 km/h (0 Bft) S-SW 211 ° 0 min 0,000 mm 0,0 UV-I 0 W/m² 4,6 °C 11,6 °C 0,0 km/h (0 Bft)
23.04.2019 23:49 11,6 °C 62 % 998,9 hPa 0,0 mm 0,0 km/h (0 Bft) S-SW 211 ° 0 min 0,000 mm 0,0 UV-I 0 W/m² 4,6 °C 11,6 °C 0,0 km/h (0 Bft)
23.04.2019 23:50 11,6 °C 62 % 998,9 hPa 0,0 mm 0,0 km/h (0 Bft) S-SW 211 ° 0 min 0,000 mm 0,0 UV-I 0 W/m² 4,6 °C 11,6 °C 0,0 km/h (0 Bft)
23.04.2019 23:51 11,6 °C 62 % 998,9 hPa 0,0 mm 0,0 km/h (0 Bft) S-SW 211 ° 0 min 0,000 mm 0,0 UV-I 0 W/m² 4,6 °C 11,6 °C 0,0 km/h (0 Bft)
23.04.2019 23:52 11,6 °C 61 % 998,9 hPa 0,0 mm 0,0 km/h (0 Bft) S-SW 211 ° 0 min 0,000 mm 0,0 UV-I 0 W/m² 4,3 °C 11,6 °C 0,0 km/h (0 Bft)
23.04.2019 23:53 11,7 °C 62 % 998,9 hPa 0,0 mm 0,0 km/h (0 Bft) S-SW 211 ° 0 min 0,000 mm 0,0 UV-I 0 W/m² 4,7 °C 11,7 °C 0,0 km/h (0 Bft)
23.04.2019 23:54 11,7 °C 62 % 998,9 hPa 0,0 mm 0,0 km/h (0 Bft) S-SW 211 ° 0 min 0,000 mm 0,0 UV-I 0 W/m² 4,7 °C 11,7 °C 0,0 km/h (0 Bft)
23.04.2019 23:55 11,6 °C 62 % 998,9 hPa 0,0 mm 0,0 km/h (0 Bft) S-SW 211 ° 0 min 0,000 mm 0,0 UV-I 0 W/m² 4,6 °C 11,6 °C 0,0 km/h (0 Bft)
23.04.2019 23:56 11,7 °C 61 % 998,9 hPa 0,0 mm 0,0 km/h (0 Bft) S-SW 211 ° 0 min 0,000 mm 0,0 UV-I 0 W/m² 4,4 °C 11,7 °C 0,0 km/h (0 Bft)
23.04.2019 23:57 11,7 °C 63 % 998,9 hPa 0,0 mm 0,3 km/h (0 Bft) S-SW 213 ° 0 min 0,000 mm 0,0 UV-I 0 W/m² 4,9 °C 11,7 °C 1,6 km/h (1 Bft)
23.04.2019 23:58 11,7 °C 61 % 998,9 hPa 0,0 mm 0,4 km/h (0 Bft) W-SW 242 ° 0 min 0,000 mm 0,0 UV-I 0 W/m² 4,4 °C 11,7 °C 4,8 km/h (1 Bft)
23.04.2019 23:59 11,7 °C 62 % 998,9 hPa 0,0 mm 2,1 km/h (1 Bft) W-SW 240 ° 0 min 0,000 mm 0,0 UV-I 0 W/m² 4,7 °C 11,7 °C 4,8 km/h (1 Bft)
_ Min-Zeit 03:40 17:29 12:10 - 23:56 - - - - - - 06:00 03:40 23:56
Minimum _ 5,3 °C 35 % 995,9 hPa - 0,0 km/h (0 Bft) - - - - - - 2,2 °C 5,3 °C 0,0 km/h (0 Bft)
_ Max-Zeit 16:39 04:42 00:12 23:59 11:14 - - 12:04 13:00 10:57 10:54 10:15 16:39 11:59
Maximum _ 19,7 °C 85 % 999,9 hPa 0,0 mm 11,5 km/h
O-SO (2 Bft)
- - 1 min 0,330 mm 4,6 UV-I 752 W/m² 8,2 °C 19,7 °C 19,3 km/h
O (3 Bft)
Durchschnitt _ 13,7 °C 56 % 997,1 hPa #0,0 mm 1,5 km/h (1 Bft) O-NO - #24 min. #2,438 mm 2,3 UV-I 146 W/m² 4,6 °C 13,7 °C 3,1 km/h (1 Bft)